[[{"header":{"parameterUnit":"m.s-1","parameterCategory":1,"la1":31.0,"la2":29.5877,"lo1":-88.7671,"lo2":-86.6584,"dy":0.0162,"dx":0.0185,"nx":115,"ny":88,"refTime":"2024-03-21T12:00:00:Z","depth":0,"parameterNumber":2,"parameterNumberName":"U-component_of_WINDS"},"data":[0.0,0.0,0.0,0.0,0.0,0.0,0.0,0.0,0.0,0.0,0.0,0.0,0.0,0.0,0.0,0.0,0.0,0.0,0.0,0.0,0.0,0.0,0.0,0.0,0.0,0.0,0.0,0.0,0.0,0.0,0.0,0.0,0.0,0.0,0.0,0.0,0.0,0.0,0.0,0.0,0.0,0.0,0.0,0.0,0.0,0.0,0.0,0.0,0.0,0.0,0.0,0.0,0.0,0.0,0.0,0.0,0.0,0.0,0.0,0.0,0.0,0.0,0.0,0.0,0.0,0.0,0.0,0.0,0.0,0.0,0.0,0.0,0.0,0.0,0.0,0.0,0.0,0.0,0.0,0.0,0.0,0.0,0.0,0.0,0.0,0.0,0.0,0.0,0.0,0.0,0.0,0.0,0.0,0.0,0.0,0.0,0.0,0.0,0.0,0.0,0.0,0.0,0.0,0.0,0.0,0.0,0.0,0.0,0.0,0.0,0.0,0.0,0.0,0.0,0.0,0.0,0.0,0.0,0.0,0.0,0.0,0.0,0.0,0.0,0.0,0.0,0.0,0.0,0.0,0.0,0.0,0.0,0.0,0.0,0.0,0.0,0.0,0.0,0.0,0.0,0.0,0.0,0.0,0.0,0.0,0.0,0.0,0.0,0.0,0.0,0.0,0.0,0.0,0.0,0.0,0.0,0.0,0.0,0.0,0.0,0.0,0.0,0.0,0.0,0.0,0.0,0.0,0.0,0.0,0.0,0.0,0.0,0.0,0.0,0.0,0.0,0.0,0.0,0.0,0.0,0.0,0.0,0.0,0.0,0.0,0.0,0.0,0.0,0.0,0.0,0.0,0.0,0.0,0.0,0.0,0.0,0.0,0.0,0.0,0.0,0.0,0.0,0.0,0.0,0.0,0.0,0.0,0.0,0.0,0.0,0.0,0.0,0.0,0.0,0.0,0.0,0.0,0.0,0.0,0.0,0.0,0.0,0.0,0.0,0.0,0.0,0.0,0.0,0.0,0.0,0.0,0.0,0.0,0.0,0.0,0.0,0.0,0.0,0.0,0.0,0.0,0.0,0.0,0.0,0.0,0.0,0.0,0.0,0.0,0.0,0.0,0.0,0.0,0.0,0.0,0.0,0.0,0.0,0.0,0.0,0.0,0.0,0.0,0.0,0.0,0.0,0.0,0.0,0.0,0.0,0.0,0.0,0.0,0.0,0.0,0.0,0.0,0.0,0.0,0.0,0.0,0.0,0.0,0.0,0.0,0.0,0.0,0.0,0.0,0.0,0.0,0.0,0.0,0.0,0.0,0.0,0.0,0.0,0.0,0.0,0.0,0.0,0.0,0.0,0.0,0.0,0.0,0.0,0.0,0.0,0.0,0.0,0.0,0.0,0.0,0.0,0.0,0.0,0.0,0.0,0.0,0.0,0.0,0.0,0.0,0.0,0.0,0.0,0.0,0.0,0.0,0.0,0.0,0.0,0.0,0.0,0.0,0.0,0.0,0.0,0.0,0.0,0.0,0.0,0.0,0.0,0.0,0.0,0.0,0.0,0.0,0.0,0.0,0.0,0.0,0.0,0.0,0.0,0.0,0.0,0.0,0.0,0.0,0.0,0.0,0.0,0.0,0.0,0.0,0.0,0.0,0.0,0.0,0.0,0.0,0.0,0.0,0.0,0.0,0.0,0.0,0.0,0.0,0.0,0.0,0.0,0.0,0.0,0.0,0.0,0.0,0.0,0.0,0.0,0.0,0.0,0.0,0.0,0.0,0.0,0.0,0.0,0.0,0.0,0.0,0.0,0.0,0.0,0.0,0.0,0.0,0.0,0.0,0.0,0.0,0.0,0.0,0.0,0.0,0.0,0.0,0.0,0.0,0.0,0.0,0.0,0.0,0.0,0.0,0.0,0.0,0.0,0.0,0.0,0.0,0.0,0.0,0.0,0.0,0.0,0.0,0.0,0.0,0.0,0.0,0.0,0.0,0.0,0.0,0.0,0.0,0.0,0.0,0.0,0.0,0.0,0.0,0.0,0.0,0.0,0.0,0.0,0.0,0.0,0.0,0.0,0.0,0.0,0.0,0.0,0.0,0.0,0.0,0.0,0.0,0.0,0.0,0.0,0.0,0.0,0.0,0.0,0.0,0.0,0.0,0.0,0.0,0.0,0.0,0.0,0.0,0.0,0.0,0.0,0.0,0.0,0.0,0.0,0.0,0.0,0.0,0.0,0.0,0.0,0.0,0.0,0.0,0.0,0.0,0.0,0.0,0.0,0.0,0.0,0.0,0.0,0.0,0.0,0.0,0.0,0.0,0.0,0.0,0.0,0.0,0.0,0.0,0.0,0.0,0.0,0.0,0.0,0.0,0.0,0.0,0.0,0.0,0.0,0.0,0.0,0.0,0.0,0.0,0.0,0.0,0.0,0.0,0.0,0.0,0.0,0.0,0.0,0.0,0.0,0.0,0.0,0.0,0.0,0.0,0.0,0.0,0.0,0.0,0.0,0.0,0.0,0.0,0.0,0.0,0.0,0.0,0.0,0.0,0.0,0.0,0.0,0.0,0.0,0.0,0.0,0.0,0.0,0.0,0.0,0.0,0.0,0.0,0.0,0.0,0.0,0.0,0.0,0.0,0.0,0.0,0.0,0.0,0.0,0.0,0.0,0.0,0.0,0.0,0.0,0.0,0.0,0.0,0.0,0.0,0.0,0.0,0.0,0.0,0.0,0.0,0.0,0.0,0.0,0.0,0.0,0.0,0.0,0.0,0.0,0.0,0.0,0.0,0.0,0.0,0.0,0.0,0.0,0.0,0.0,0.0,0.0,0.0,0.0,0.0,0.0,0.0,0.0,0.0,0.0,0.0,0.0,0.0,0.0,0.0,0.0,0.0,0.0,0.0,0.0,0.0,0.0,0.0,0.0,0.0,0.0,0.0,0.0,0.0,0.0,0.0,0.0,0.0,0.0,0.0,0.0,0.0,0.0,0.0,0.0,0.0,0.0,0.0,0.0,0.0,0.0,0.0,0.0,0.0,0.0,0.0,0.0,0.0,0.0,0.0,0.0,0.0,0.0,0.0,0.0,0.0,0.0,0.0,0.0,0.0,0.0,0.0,0.0,0.0,0.0,0.0,0.0,0.0,0.0,0.0,0.0,0.0,0.0,0.0,0.0,0.0,0.0,0.0,0.0,0.0,0.0,0.0,0.0,0.0,0.0,0.0,0.0,0.0,0.0,0.0,0.0,0.0,0.0,0.0,0.0,0.0,0.0,0.0,0.0,0.0,0.0,0.0,0.0,0.0,0.0,0.0,0.0,0.0,0.0,0.0,0.0,0.0,0.0,0.0,0.0,0.0,0.0,0.0,0.0,0.0,0.0,0.0,0.0,0.0,0.0,0.0,0.0,0.0,0.0,0.0,0.0,0.0,0.0,0.0,0.0,0.0,0.0,0.0,0.0,0.0,0.0,0.0,0.0,0.0,0.0,0.0,0.0,0.0,0.0,0.0,0.0,0.0,0.0,0.0,0.0,0.0,0.0,0.0,0.0,0.0,0.0,0.0,0.0,0.0,0.0,0.0,0.0,0.0,0.0,0.0,0.0,0.0,0.0,0.0,0.0,0.0,0.0,0.0,0.0,0.0,0.0,0.0,0.0,0.0,0.0,0.0,0.0,0.0,0.0,0.0,0.0,0.0,0.0,0.0,0.0,0.0,0.0,0.0,0.0,0.0,0.0,0.0,0.0,0.0,0.0,0.0,0.0,0.0,0.0,0.0,0.0,0.0,0.0,0.0,0.0,0.0,0.0,0.0,0.0,0.0,0.0,0.0,0.0,0.0,0.0,0.0,0.0,0.0,0.0,0.0,0.0,0.0,0.0,0.0,0.0,0.0,0.0,0.0,0.0,0.0,0.0,0.0,0.0,0.0,0.0,0.0,0.0,0.0,0.0,0.0,0.0,0.0,0.0,0.0,0.0,0.0,0.0,0.0,0.0,0.0,0.0,0.0,0.0,0.0,0.0,0.0,0.0,0.0,0.0,0.0,0.0,0.0,0.0,0.0,0.0,0.0,0.0,0.0,0.0,0.0,0.0,0.0,0.0,0.0,0.0,0.0,0.0,0.0,0.0,0.0,0.0,0.0,0.0,0.0,0.0,0.0,0.0,0.0,0.0,0.0,0.0,0.0,0.0,0.0,0.0,0.0,0.0,0.0,0.0,0.0,0.0,0.0,0.0,0.0,0.0,0.0,0.0,0.0,0.0,0.0,0.0,0.0,0.0,0.0,0.0,0.0,0.0,-2.1907,0.0,0.0,0.0,0.0,0.0,0.0,0.0,0.0,0.0,0.0,0.0,0.0,0.0,0.0,0.0,0.0,0.0,0.0,0.0,0.0,0.0,0.0,0.0,0.0,0.0,0.0,0.0,0.0,0.0,0.0,0.0,0.0,0.0,0.0,0.0,0.0,0.0,0.0,0.0,0.0,0.0,0.0,0.0,0.0,0.0,0.0,0.0,0.0,0.0,0.0,0.0,0.0,0.0,0.0,0.0,0.0,0.0,0.0,0.0,0.0,0.0,0.0,0.0,0.0,0.0,0.0,0.0,0.0,0.0,0.0,0.0,0.0,0.0,0.0,0.0,0.0,0.0,0.0,0.0,0.0,0.0,0.0,0.0,0.0,0.0,0.0,0.0,0.0,0.0,0.0,0.0,0.0,0.0,0.0,0.0,0.0,0.0,0.0,0.0,0.0,0.0,0.0,0.0,0.0,0.0,0.0,0.0,0.0,0.0,0.0,-1.5994,-1.5643,-1.8159,-2.0457,-2.2471,0.0,0.0,0.0,0.0,0.0,0.0,0.0,0.0,0.0,0.0,0.0,0.0,0.0,0.0,0.0,0.0,0.0,0.0,0.0,0.0,0.0,0.0,0.0,0.0,0.0,0.0,0.0,0.0,0.0,0.0,0.0,0.0,0.0,0.0,0.0,0.0,0.0,0.0,0.0,0.0,0.0,0.0,0.0,0.0,0.0,0.0,0.0,0.0,0.0,0.0,0.0,0.0,0.0,0.0,0.0,0.0,0.0,0.0,0.0,0.0,0.0,0.0,0.0,0.0,0.0,0.0,0.0,0.0,0.0,0.0,0.0,0.0,0.0,0.0,0.0,0.0,0.0,0.0,0.0,0.0,0.0,0.0,0.0,0.0,0.0,0.0,0.0,0.0,0.0,0.0,0.0,0.0,0.0,0.0,0.0,0.0,0.0,0.0,0.0,0.0,0.0,0.0,0.0,0.0,0.0,0.0,0.0,0.0,0.0,0.0,0.0,0.0,-1.9548,-2.2097,-2.4118,0.0,0.0,0.0,0.0,0.0,0.0,0.0,0.0,0.0,0.0,0.0,0.0,0.0,0.0,0.0,0.0,0.0,0.0,0.0,0.0,0.0,0.0,0.0,0.0,0.0,0.0,0.0,0.0,0.0,0.0,0.0,0.0,0.0,0.0,0.0,0.0,0.0,0.0,0.0,0.0,0.0,0.0,0.0,0.0,0.0,0.0,0.0,0.0,0.0,0.0,0.0,0.0,0.0,0.0,0.0,0.0,0.0,0.0,0.0,0.0,0.0,0.0,0.0,0.0,0.0,0.0,0.0,0.0,0.0,0.0,0.0,0.0,0.0,0.0,0.0,0.0,0.0,0.0,0.0,0.0,0.0,0.0,0.0,0.0,0.0,0.0,0.0,0.0,0.0,0.0,0.0,0.0,0.0,0.0,0.0,0.0,0.0,0.0,0.0,0.0,0.0,0.0,0.0,0.0,0.0,0.0,0.0,0.0,0.0,0.0,-1.9051,-1.9942,-2.1843,0.0,-2.8425,0.0,0.0,0.0,0.0,0.0,0.0,0.0,0.0,0.0,0.0,0.0,0.0,0.0,0.0,0.0,0.0,0.0,0.0,0.0,0.0,0.0,0.0,0.0,0.0,0.0,0.0,0.0,0.0,0.0,0.0,0.0,0.0,0.0,0.0,0.0,0.0,0.0,0.0,0.0,0.0,0.0,0.0,0.0,0.0,0.0,0.0,0.0,0.0,0.0,0.0,0.0,0.0,0.0,0.0,0.0,0.0,0.0,0.0,0.0,0.0,0.0,0.0,0.0,0.0,0.0,0.0,0.0,0.0,0.0,0.0,0.0,0.0,0.0,0.0,0.0,0.0,0.0,0.0,0.0,0.0,0.0,0.0,0.0,0.0,0.0,0.0,0.0,0.0,0.0,0.0,0.0,0.0,0.0,0.0,0.0,0.0,0.0,0.0,0.0,0.0,0.0,0.0,0.0,0.0,0.0,0.0,0.0,0.0,0.0,0.0,-2.1316,-2.2286,-2.4251,-2.6453,0.0,0.0,0.0,0.0,0.0,0.0,0.0,0.0,0.0,0.0,0.0,0.0,0.0,0.0,0.0,0.0,0.0,0.0,0.0,0.0,0.0,0.0,0.0,0.0,0.0,0.0,0.0,0.0,0.0,0.0,0.0,0.0,0.0,0.0,0.0,0.0,0.0,0.0,0.0,0.0,0.0,0.0,0.0,0.0,0.0,0.0,0.0,0.0,0.0,0.0,0.0,0.0,0.0,0.0,0.0,0.0,0.0,0.0,0.0,0.0,0.0,0.0,0.0,0.0,0.0,0.0,0.0,0.0,0.0,0.0,0.0,0.0,0.0,0.0,0.0,0.0,0.0,0.0,0.0,0.0,0.0,0.0,0.0,0.0,0.0,0.0,0.0,0.0,0.0,0.0,0.0,0.0,0.0,0.0,0.0,0.0,0.0,0.0,0.0,0.0,0.0,0.0,0.0,0.0,0.0,0.0,0.0,0.0,0.0,0.0,-2.3904,-2.3656,-2.4861,-2.6091,-2.7547,-2.9333,0.0,0.0,0.0,0.0,0.0,0.0,0.0,0.0,0.0,0.0,0.0,0.0,0.0,0.0,0.0,0.0,0.0,0.0,0.0,0.0,0.0,0.0,0.0,0.0,0.0,0.0,0.0,0.0,0.0,0.0,0.0,0.0,0.0,0.0,0.0,0.0,0.0,0.0,0.0,0.0,0.0,0.0,0.0,0.0,0.0,0.0,0.0,0.0,0.0,0.0,0.0,0.0,0.0,0.0,0.0,0.0,0.0,0.0,0.0,0.0,0.0,0.0,0.0,0.0,0.0,0.0,0.0,0.0,0.0,0.0,0.0,0.0,0.0,0.0,0.0,0.0,0.0,0.0,0.0,0.0,0.0,0.0,0.0,0.0,0.0,0.0,0.0,0.0,0.0,0.0,0.0,0.0,0.0,0.0,0.0,0.0,0.0,0.0,0.0,0.0,0.0,0.0,0.0,0.0,0.0,0.0,0.0,0.0,-2.7583,-2.5888,-2.5997,-2.7904,-2.7062,-2.7869,0.0,0.0,0.0,0.0,0.0,0.0,0.0,0.0,0.0,0.0,0.0,0.0,0.0,0.0,0.0,0.0,0.0,0.0,0.0,0.0,0.0,0.0,0.0,0.0,0.0,0.0,0.0,0.0,0.0,0.0,0.0,0.0,0.0,0.0,0.0,0.0,0.0,0.0,0.0,0.0,0.0,0.0,0.0,0.0,0.0,0.0,0.0,0.0,0.0,0.0,0.0,0.0,0.0,0.0,0.0,0.0,0.0,0.0,0.0,0.0,0.0,0.0,0.0,0.0,0.0,0.0,0.0,0.0,0.0,0.0,0.0,0.0,0.0,0.0,0.0,0.0,0.0,0.0,0.0,0.0,0.0,0.0,0.0,0.0,0.0,0.0,0.0,0.0,0.0,0.0,0.0,0.0,0.0,0.0,0.0,0.0,0.0,0.0,0.0,0.0,0.0,0.0,0.0,0.0,0.0,0.0,0.0,0.0,0.0,-2.8259,-2.7412,-2.7325,-2.801,-2.8385,-2.9395,0.0,0.0,0.0,0.0,0.0,0.0,0.0,0.0,0.0,0.0,0.0,0.0,0.0,0.0,0.0,0.0,0.0,0.0,0.0,0.0,0.0,0.0,0.0,0.0,0.0,0.0,0.0,0.0,0.0,0.0,0.0,0.0,0.0,0.0,0.0,0.0,0.0,0.0,0.0,0.0,0.0,0.0,0.0,0.0,0.0,0.0,0.0,0.0,0.0,0.0,0.0,0.0,0.0,0.0,0.0,0.0,0.0,0.0,0.0,0.0,0.0,0.0,0.0,0.0,0.0,0.0,0.0,0.0,0.0,0.0,0.0,0.0,0.0,0.0,0.0,0.0,0.0,0.0,0.0,0.0,0.0,0.0,0.0,0.0,0.0,0.0,0.0,0.0,0.0,0.0,0.0,0.0,0.0,0.0,0.0,0.0,0.0,0.0,0.0,0.0,0.0,0.0,0.0,0.0,0.0,0.0,0.0,0.0,0.0,-2.9383,0.0,-2.91,-2.871,-2.9498,-3.0325,0.0,0.0,0.0,0.0,0.0,0.0,0.0,0.0,0.0,0.0,0.0,0.0,0.0,0.0,0.0,0.0,0.0,0.0,0.0,0.0,0.0,0.0,0.0,0.0,0.0,0.0,0.0,0.0,0.0,0.0,0.0,0.0,0.0,0.0,0.0,0.0,0.0,0.0,0.0,0.0,0.0,0.0,0.0,0.0,0.0,0.0,0.0,0.0,0.0,0.0,0.0,0.0,0.0,0.0,0.0,0.0,0.0,0.0,0.0,0.0,0.0,0.0,0.0,0.0,0.0,0.0,0.0,0.0,0.0,0.0,0.0,0.0,0.0,0.0,0.0,0.0,0.0,0.0,0.0,0.0,0.0,0.0,0.0,0.0,0.0,0.0,0.0,0.0,0.0,0.0,0.0,0.0,0.0,0.0,0.0,0.0,0.0,0.0,0.0,0.0,0.0,0.0,0.0,0.0,0.0,0.0,0.0,0.0,-3.1794,-3.1118,-3.1536,-3.1223,-3.0261,-3.0458,-3.0567,0.0,0.0,0.0,0.0,0.0,0.0,0.0,0.0,0.0,0.0,0.0,0.0,0.0,0.0,0.0,0.0,0.0,0.0,0.0,0.0,0.0,0.0,0.0,0.0,0.0,0.0,0.0,0.0,0.0,0.0,0.0,0.0,0.0,0.0,0.0,0.0,0.0,0.0,0.0,0.0,0.0,0.0,0.0,0.0,0.0,0.0,0.0,0.0,0.0,0.0,0.0,0.0,0.0,0.0,0.0,0.0,0.0,0.0,0.0,0.0,0.0,0.0,0.0,0.0,0.0,0.0,0.0,0.0,0.0,0.0,0.0,0.0,0.0,0.0,0.0,0.0,0.0,0.0,0.0,0.0,0.0,0.0,0.0,0.0,0.0,0.0,0.0,0.0,0.0,0.0,0.0,0.0,0.0,0.0,0.0,0.0,0.0,0.0,0.0,0.0,0.0,0.0,0.0,0.0,0.0,0.0,0.0,0.0,0.0,-3.1448,-3.1654,-3.1689,-3.1381,-3.0988,-3.1391,0.0,0.0,0.0,0.0,0.0,0.0,0.0,0.0,0.0,0.0,0.0,0.0,0.0,0.0,0.0,0.0,0.0,0.0,0.0,0.0,0.0,0.0,0.0,0.0,0.0,0.0,0.0,0.0,0.0,0.0,0.0,0.0,0.0,0.0,0.0,0.0,0.0,0.0,0.0,0.0,0.0,0.0,0.0,0.0,0.0,0.0,0.0,0.0,0.0,0.0,0.0,0.0,0.0,0.0,0.0,0.0,0.0,0.0,0.0,0.0,0.0,0.0,0.0,0.0,0.0,0.0,0.0,0.0,0.0,0.0,0.0,0.0,0.0,0.0,0.0,0.0,0.0,0.0,0.0,0.0,0.0,0.0,0.0,0.0,0.0,0.0,0.0,0.0,0.0,0.0,0.0,0.0,0.0,0.0,0.0,0.0,0.0,0.0,0.0,0.0,0.0,0.0,0.0,0.0,0.0,0.0,0.0,0.0,0.0,-3.2396,-3.2593,-3.252,-3.1921,-3.1455,-3.169,-3.2564,0.0,0.0,0.0,0.0,0.0,0.0,0.0,0.0,0.0,0.0,0.0,0.0,0.0,0.0,0.0,0.0,0.0,0.0,0.0,0.0,0.0,0.0,0.0,0.0,0.0,0.0,0.0,0.0,0.0,0.0,0.0,0.0,0.0,0.0,0.0,0.0,0.0,0.0,0.0,0.0,0.0,0.0,0.0,0.0,0.0,0.0,0.0,0.0,0.0,0.0,0.0,0.0,0.0,0.0,0.0,0.0,0.0,0.0,0.0,0.0,0.0,0.0,0.0,0.0,0.0,0.0,0.0,0.0,0.0,0.0,0.0,0.0,0.0,0.0,0.0,0.0,0.0,0.0,0.0,0.0,0.0,0.0,0.0,0.0,0.0,0.0,0.0,0.0,0.0,0.0,0.0,0.0,0.0,0.0,0.0,0.0,0.0,0.0,0.0,0.0,0.0,0.0,0.0,0.0,0.0,0.0,0.0,0.0,-3.3465,-3.4096,-3.3646,-3.2027,-3.1861,-3.1547,0.0,0.0,0.0,0.0,0.0,0.0,0.0,0.0,0.0,0.0,0.0,0.0,0.0,0.0,0.0,0.0,0.0,0.0,0.0,0.0,0.0,0.0,0.0,0.0,0.0,0.0,0.0,0.0,0.0,0.0,0.0,0.0,0.0,0.0,0.0,0.0,0.0,0.0,0.0,0.0,0.0,0.0,0.0,0.0,0.0,0.0,0.0,0.0,0.0,0.0,0.0,0.0,0.0,0.0,0.0,0.0,0.0,0.0,0.0,0.0,0.0,0.0,0.0,0.0,0.0,0.0,0.0,0.0,0.0,0.0,0.0,0.0,0.0,0.0,0.0,0.0,0.0,0.0,0.0,0.0,0.0,0.0,0.0,0.0,0.0,0.0,0.0,0.0,0.0,0.0,0.0,0.0,0.0,0.0,0.0,0.0,0.0,0.0,0.0,0.0,0.0,0.0,0.0,0.0,0.0,0.0,0.0,0.0,0.0,-3.2857,-3.3308,-3.3433,-3.306,-3.2241,-3.197,0.0,0.0,0.0,0.0,0.0,0.0,0.0,0.0,0.0,0.0,0.0,0.0,0.0,0.0,0.0,0.0,0.0,0.0,0.0,0.0,0.0,0.0,0.0,0.0,0.0,0.0,0.0,0.0,0.0,0.0,0.0,0.0,0.0,0.0,0.0,0.0,0.0,0.0,0.0,0.0,0.0,0.0,0.0,0.0,0.0,0.0,0.0,0.0,0.0,0.0,0.0,0.0,0.0,0.0,0.0,0.0,0.0,0.0,0.0,0.0,0.0,0.0,0.0,0.0,0.0,0.0,0.0,0.0,0.0,0.0,0.0,0.0,0.0,0.0,0.0,0.0,0.0,0.0,0.0,0.0,0.0,0.0,0.0,0.0,0.0,0.0,0.0,0.0,0.0,0.0,0.0,0.0,0.0,0.0,0.0,0.0,0.0,0.0,0.0,0.0,0.0,0.0,0.0,0.0,0.0,0.0,0.0,0.0,-3.3939,-3.2902,-3.2738,-3.2913,-3.341,-3.2744,-3.2518,0.0,0.0,0.0,0.0,0.0,0.0,0.0,0.0,0.0,0.0,0.0,0.0,0.0,0.0,0.0,0.0,0.0,0.0,0.0,0.0,0.0,0.0,0.0,0.0,0.0,0.0,0.0,0.0,0.0,0.0,0.0,0.0,0.0,0.0,0.0,0.0,0.0,0.0,0.0,0.0,0.0,0.0,0.0,0.0,0.0,0.0,0.0,0.0,0.0,0.0,0.0,0.0,0.0,0.0,0.0,0.0,0.0,0.0,0.0,0.0,0.0,0.0,0.0,0.0,0.0,0.0,0.0,0.0,0.0,0.0,0.0,0.0,0.0,0.0,0.0,0.0,0.0,0.0,0.0,0.0,0.0,0.0,0.0,0.0,0.0,0.0,0.0,0.0,0.0,0.0,0.0,0.0,0.0,0.0,0.0,0.0,0.0,0.0,0.0,0.0,0.0,0.0,0.0,0.0,0.0,0.0,0.0,0.0,-3.3024,-3.32,-3.2363,-3.2308,-3.3181,-3.3173,-3.2956,0.0,0.0,0.0,0.0,0.0,0.0,0.0,0.0,0.0,0.0,0.0,0.0,0.0,0.0,0.0,0.0,0.0,0.0,0.0,0.0,0.0,0.0,0.0,0.0,0.0,0.0,0.0,0.0,0.0,0.0,0.0,0.0,0.0,0.0,0.0,0.0,0.0,0.0,0.0,0.0,0.0,0.0,0.0,0.0,0.0,0.0,0.0,0.0,0.0,0.0,0.0,0.0,0.0,0.0,0.0,0.0,0.0,0.0,0.0,0.0,0.0,0.0,0.0,0.0,0.0,0.0,0.0,0.0,0.0,0.0,0.0,0.0,0.0,0.0,0.0,0.0,0.0,0.0,0.0,0.0,0.0,0.0,0.0,0.0,0.0,0.0,0.0,0.0,0.0,0.0,0.0,0.0,0.0,0.0,0.0,0.0,0.0,0.0,0.0,0.0,0.0,0.0,0.0,0.0,0.0,0.0,0.0,0.0,-3.3247,-3.2112,-3.2252,-3.242,-3.265,-3.2885,-3.2696,0.0,0.0,0.0,0.0,0.0,0.0,0.0,0.0,0.0,0.0,0.0,0.0,0.0,0.0,0.0,0.0,0.0,0.0,0.0,0.0,0.0,0.0,0.0,0.0,0.0,0.0,0.0,0.0,0.0,0.0,0.0,0.0,0.0,0.0,0.0,0.0,0.0,0.0,0.0,0.0,0.0,0.0,0.0,0.0,0.0,0.0,0.0,0.0,-4.5356,0.0,0.0,0.0,0.0,0.0,0.0,0.0,0.0,0.0,0.0,0.0,0.0,0.0,0.0,0.0,0.0,0.0,0.0,0.0,0.0,0.0,0.0,0.0,0.0,0.0,0.0,0.0,0.0,0.0,0.0,0.0,0.0,0.0,0.0,0.0,0.0,0.0,0.0,0.0,0.0,0.0,0.0,0.0,0.0,0.0,0.0,0.0,0.0,0.0,0.0,0.0,0.0,0.0,0.0,0.0,0.0,0.0,0.0,0.0,-3.3129,-3.2481,-3.2913,-3.3268,-3.3529,-3.44,-3.4065,0.0,0.0,0.0,0.0,0.0,0.0,0.0,0.0,0.0,0.0,0.0,0.0,0.0,0.0,0.0,0.0,0.0,0.0,0.0,0.0,0.0,0.0,0.0,0.0,0.0,0.0,0.0,0.0,0.0,0.0,0.0,0.0,0.0,0.0,0.0,0.0,0.0,0.0,0.0,0.0,0.0,0.0,0.0,0.0,0.0,0.0,0.0,0.0,0.0,0.0,0.0,0.0,0.0,0.0,0.0,0.0,0.0,0.0,0.0,0.0,0.0,0.0,0.0,0.0,0.0,0.0,0.0,0.0,0.0,0.0,0.0,0.0,0.0,0.0,0.0,0.0,0.0,0.0,0.0,0.0,0.0,0.0,0.0,0.0,0.0,0.0,0.0,0.0,0.0,0.0,0.0,0.0,0.0,0.0,0.0,0.0,0.0,0.0,0.0,0.0,0.0,0.0,0.0,0.0,0.0,0.0,0.0,-3.5254,-3.374,-3.4105,-3.4543,-3.5007,-3.5395,-3.6524,-3.6043,-3.3787,0.0,0.0,0.0,0.0,0.0,0.0,0.0,0.0,0.0,0.0,0.0,0.0,0.0,0.0,0.0,0.0,0.0,0.0,0.0,0.0,0.0,0.0,0.0,0.0,0.0,0.0,0.0,0.0,0.0,0.0,0.0,0.0,0.0,0.0,0.0,0.0,0.0,0.0,-4.0633,-4.3409,0.0,0.0,0.0,0.0,0.0,0.0,0.0,0.0,-5.0247,0.0,0.0,0.0,0.0,0.0,0.0,0.0,0.0,0.0,0.0,0.0,0.0,0.0,0.0,0.0,0.0,0.0,0.0,0.0,0.0,0.0,0.0,0.0,0.0,0.0,0.0,0.0,0.0,0.0,0.0,0.0,0.0,0.0,0.0,0.0,0.0,0.0,0.0,0.0,0.0,0.0,0.0,0.0,0.0,0.0,0.0,0.0,0.0,0.0,0.0,0.0,0.0,0.0,0.0,0.0,0.0,-3.959,-3.7892,-3.7157,-3.7585,-3.8303,-3.863,-3.8559,-3.7828,-3.6899,-3.5852,0.0,0.0,0.0,0.0,0.0,0.0,0.0,0.0,0.0,0.0,0.0,0.0,0.0,0.0,0.0,0.0,0.0,0.0,0.0,0.0,0.0,0.0,0.0,0.0,0.0,0.0,0.0,0.0,0.0,0.0,0.0,0.0,0.0,0.0,0.0,0.0,0.0,0.0,0.0,-4.5612,-4.7027,0.0,0.0,0.0,0.0,0.0,0.0,0.0,0.0,-5.149,0.0,0.0,0.0,0.0,0.0,0.0,0.0,0.0,0.0,0.0,0.0,0.0,0.0,0.0,0.0,0.0,0.0,0.0,0.0,0.0,0.0,0.0,0.0,0.0,0.0,0.0,0.0,0.0,0.0,0.0,0.0,0.0,0.0,0.0,0.0,0.0,0.0,0.0,0.0,0.0,0.0,0.0,0.0,0.0,0.0,0.0,0.0,0.0,0.0,0.0,0.0,0.0,0.0,0.0,0.0,-4.1234,-4.0505,-4.0163,-4.0431,-4.1479,-4.1741,-4.118,-4.0052,-3.8928,0.0,0.0,0.0,0.0,0.0,0.0,0.0,0.0,0.0,0.0,0.0,0.0,0.0,0.0,0.0,0.0,0.0,0.0,0.0,0.0,0.0,0.0,0.0,0.0,0.0,0.0,0.0,0.0,0.0,0.0,0.0,0.0,0.0,0.0,0.0,0.0,0.0,0.0,0.0,0.0,-4.6264,-4.7446,-4.7948,0.0,0.0,0.0,0.0,0.0,0.0,-5.2386,-5.2767,0.0,0.0,0.0,0.0,0.0,0.0,0.0,0.0,0.0,0.0,0.0,0.0,0.0,0.0,0.0,0.0,0.0,0.0,0.0,0.0,0.0,0.0,0.0,0.0,0.0,0.0,0.0,0.0,0.0,0.0,0.0,0.0,0.0,0.0,0.0,0.0,0.0,0.0,0.0,0.0,0.0,0.0,0.0,0.0,0.0,0.0,0.0,0.0,0.0,0.0,0.0,0.0,0.0,0.0,0.0,-4.3348,-4.336,-4.3606,-4.4135,-4.5196,-4.526,-4.4289,-4.2608,-4.1071,0.0,0.0,0.0,0.0,0.0,0.0,0.0,0.0,0.0,0.0,0.0,0.0,0.0,0.0,0.0,0.0,0.0,0.0,0.0,0.0,0.0,0.0,0.0,0.0,0.0,0.0,0.0,0.0,0.0,0.0,0.0,0.0,0.0,0.0,0.0,0.0,0.0,0.0,0.0,0.0,0.0,-4.8254,-4.8377,-4.9914,0.0,0.0,0.0,0.0,-5.4265,-5.4202,0.0,0.0,0.0,0.0,0.0,0.0,0.0,0.0,0.0,0.0,0.0,0.0,0.0,0.0,0.0,0.0,0.0,0.0,0.0,0.0,0.0,0.0,0.0,0.0,0.0,0.0,0.0,0.0,0.0,0.0,0.0,0.0,0.0,0.0,0.0,0.0,0.0,0.0,0.0,0.0,0.0,0.0,0.0,0.0,0.0,0.0,0.0,0.0,0.0,0.0,0.0,0.0,0.0,0.0,0.0,0.0,-4.5848,-4.6768,-4.8182,-5.0091,-5.0502,-5.0115,-4.8901,-4.5158,-4.2556,0.0,0.0,0.0,0.0,0.0,0.0,0.0,0.0,0.0,0.0,0.0,0.0,0.0,0.0,0.0,0.0,0.0,0.0,0.0,0.0,0.0,0.0,0.0,0.0,0.0,0.0,0.0,0.0,0.0,0.0,0.0,0.0,0.0,0.0,0.0,0.0,0.0,0.0,0.0,0.0,0.0,-5.0673,-4.9228,-5.0462,-5.146,0.0,0.0,-5.3008,-5.5875,-5.6334,0.0,0.0,0.0,0.0,0.0,0.0,0.0,0.0,0.0,0.0,0.0,0.0,0.0,0.0,0.0,0.0,0.0,0.0,0.0,0.0,0.0,0.0,0.0,0.0,0.0,0.0,0.0,0.0,0.0,0.0,0.0,0.0,0.0,0.0,0.0,0.0,0.0,0.0,0.0,0.0,0.0,0.0,0.0,0.0,0.0,0.0,0.0,0.0,0.0,0.0,0.0,0.0,0.0,0.0,0.0,-4.6573,-4.7701,-4.991,-5.1598,-5.2617,-5.2892,-5.2244,-5.0805,-4.6263,-4.3539,0.0,0.0,0.0,0.0,0.0,0.0,0.0,0.0,0.0,0.0,0.0,0.0,0.0,0.0,0.0,0.0,0.0,0.0,0.0,0.0,0.0,0.0,0.0,0.0,0.0,0.0,0.0,0.0,0.0,0.0,0.0,0.0,0.0,0.0,0.0,0.0,0.0,0.0,0.0,0.0,0.0,0.0,-5.1115,-5.254,0.0,0.0,0.0,-5.4901,-5.6929,0.0,0.0,0.0,0.0,0.0,0.0,0.0,0.0,0.0,0.0,0.0,0.0,0.0,0.0,0.0,0.0,0.0,0.0,0.0,0.0,0.0,0.0,0.0,0.0,0.0,0.0,0.0,0.0,0.0,0.0,0.0,0.0,0.0,0.0,0.0,0.0,0.0,0.0,0.0,0.0,0.0,0.0,0.0,0.0,0.0,0.0,0.0,0.0,0.0,0.0,0.0,0.0,0.0,0.0,0.0,0.0,0.0,-4.8307,-5.192,-5.3823,-5.3931,-5.4146,-5.343,-5.1648,-4.749,0.0,0.0,0.0,0.0,0.0,0.0,0.0,0.0,0.0,0.0,0.0,0.0,0.0,0.0,0.0,0.0,0.0,0.0,0.0,0.0,0.0,0.0,0.0,0.0,0.0,0.0,0.0,-3.5985,0.0,0.0,0.0,0.0,0.0,0.0,0.0,0.0,0.0,0.0,0.0,0.0,0.0,0.0,-5.0839,-5.2688,-5.4213,-5.5249,0.0,0.0,-5.6884,-5.8152,-5.8811,-5.8721,0.0,0.0,0.0,0.0,0.0,0.0,0.0,0.0,0.0,0.0,0.0,0.0,0.0,0.0,0.0,0.0,0.0,0.0,0.0,0.0,0.0,0.0,0.0,0.0,0.0,0.0,0.0,0.0,0.0,0.0,0.0,0.0,0.0,0.0,0.0,0.0,0.0,0.0,0.0,0.0,0.0,0.0,0.0,0.0,0.0,0.0,0.0,0.0,0.0,0.0,0.0,0.0,0.0,0.0,-4.7902,-4.7242,-5.2037,-5.4484,-5.4271,-5.4523,-5.3779,-5.1923,-4.9551,-4.6911,0.0,0.0,0.0,0.0,0.0,0.0,0.0,0.0,0.0,0.0,0.0,0.0,0.0,0.0,0.0,0.0,0.0,0.0,0.0,0.0,0.0,0.0,0.0,0.0,0.0,0.0,0.0,0.0,0.0,0.0,0.0,0.0,0.0,0.0,0.0,0.0,0.0,0.0,0.0,0.0,0.0,-5.1933,-5.3172,-5.4593,-5.5973,0.0,-5.7878,-5.8631,-5.9839,-6.0985,-6.0511,-5.6862,0.0,0.0,0.0,0.0,0.0,0.0,0.0,0.0,0.0,0.0,0.0,0.0,0.0,0.0,0.0,0.0,0.0,0.0,0.0,0.0,0.0,0.0,0.0,0.0,0.0,0.0,0.0,0.0,0.0,0.0,0.0,0.0,0.0,0.0,0.0,0.0,0.0,0.0,0.0,0.0,0.0,0.0,0.0,0.0,0.0,0.0,0.0,0.0,0.0,0.0,0.0,0.0,0.0,-4.9058,-4.842,-5.2539,-5.4739,-5.4763,-5.4256,-5.3435,-5.2329,-4.9872,-4.7455,0.0,0.0,0.0,0.0,0.0,0.0,0.0,0.0,0.0,0.0,0.0,0.0,0.0,0.0,0.0,0.0,0.0,0.0,0.0,0.0,0.0,0.0,0.0,0.0,0.0,0.0,0.0,0.0,-3.5846,-3.595,-3.6973,0.0,0.0,0.0,0.0,0.0,0.0,0.0,0.0,0.0,0.0,-5.3714,-5.5713,-5.732,0.0,0.0,-6.0367,-6.0337,-6.0008,-6.0256,-5.928,-5.5753,-5.5009,0.0,0.0,0.0,0.0,0.0,0.0,0.0,0.0,0.0,0.0,0.0,0.0,0.0,0.0,0.0,0.0,0.0,0.0,0.0,0.0,0.0,0.0,0.0,0.0,0.0,0.0,0.0,0.0,0.0,0.0,0.0,0.0,0.0,0.0,0.0,0.0,0.0,0.0,0.0,0.0,0.0,0.0,0.0,0.0,0.0,0.0,0.0,0.0,0.0,0.0,0.0,0.0,-4.9549,-4.9389,-5.2897,-5.4447,-5.3979,-5.3752,-5.3161,-5.2135,-5.0358,-4.8324,0.0,0.0,0.0,0.0,0.0,0.0,0.0,0.0,0.0,0.0,0.0,0.0,0.0,0.0,0.0,0.0,0.0,0.0,0.0,0.0,0.0,0.0,0.0,0.0,0.0,0.0,0.0,0.0,-3.6752,-3.7164,-3.8049,0.0,0.0,0.0,0.0,0.0,0.0,0.0,0.0,0.0,0.0,-5.5324,-5.7552,-5.8882,-5.9843,-6.056,-6.0656,-6.0361,-5.9485,-5.9558,-5.8799,-5.6163,0.0,0.0,0.0,0.0,0.0,0.0,0.0,0.0,0.0,0.0,0.0,0.0,0.0,0.0,0.0,0.0,0.0,0.0,0.0,0.0,0.0,0.0,0.0,0.0,0.0,0.0,0.0,-4.7309,0.0,0.0,-4.6199,0.0,0.0,0.0,0.0,0.0,0.0,0.0,0.0,0.0,0.0,0.0,0.0,0.0,0.0,0.0,0.0,0.0,0.0,0.0,0.0,0.0,0.0,-4.8915,-4.9622,-5.2962,-5.3689,-5.1697,-5.3061,-5.3072,-5.1443,-5.1306,-4.9726,-4.6273,0.0,0.0,0.0,0.0,0.0,0.0,0.0,0.0,0.0,0.0,0.0,0.0,0.0,0.0,0.0,0.0,0.0,0.0,0.0,0.0,0.0,0.0,0.0,0.0,0.0,0.0,-3.8123,-3.8263,-3.8506,0.0,0.0,0.0,0.0,0.0,0.0,0.0,0.0,0.0,-5.3038,-5.5009,-5.6631,-5.8246,-5.8561,-5.8561,-5.8256,-5.8307,-5.8368,-5.8427,-5.9278,-5.9619,0.0,0.0,0.0,0.0,0.0,0.0,0.0,0.0,0.0,0.0,0.0,0.0,0.0,0.0,0.0,0.0,0.0,0.0,0.0,0.0,0.0,0.0,0.0,0.0,0.0,0.0,0.0,-4.8823,-4.7482,0.0,0.0,0.0,0.0,0.0,0.0,0.0,0.0,0.0,0.0,0.0,-5.1112,-5.0579,0.0,0.0,0.0,0.0,0.0,0.0,0.0,0.0,0.0,0.0,0.0,0.0,-4.9438,-4.9405,-5.2854,-5.4175,-5.3022,-5.3094,-5.2552,-5.1404,-5.1406,-4.9913,-4.6762,0.0,0.0,0.0,0.0,0.0,0.0,0.0,0.0,0.0,0.0,0.0,0.0,0.0,0.0,0.0,0.0,0.0,0.0,0.0,0.0,0.0,0.0,0.0,0.0,0.0,-3.8299,0.0,0.0,0.0,0.0,0.0,0.0,0.0,0.0,0.0,0.0,0.0,-5.077,-5.2403,-5.3991,-5.545,-5.6508,-5.8386,-5.9917,0.0,0.0,0.0,0.0,0.0,0.0,0.0,0.0,0.0,0.0,0.0,0.0,0.0,0.0,-6.273,-5.7553,-5.6635,-5.6818,-5.7155,0.0,0.0,0.0,0.0,0.0,0.0,0.0,0.0,0.0,0.0,0.0,0.0,0.0,0.0,-4.9676,0.0,-4.8357,0.0,0.0,0.0,0.0,0.0,0.0,0.0,0.0,-5.1759,-5.2258,-5.296,-5.2459,-5.2185,0.0,-5.1328,-5.0378,0.0,0.0,0.0,0.0,0.0,0.0,0.0,0.0,-4.9335,-4.8806,-5.2436,-5.4089,-5.3458,-5.2935,-5.226,-5.143,-5.0973,-4.9764,-4.7645,-4.5127,-4.311,0.0,0.0,0.0,0.0,0.0,0.0,0.0,0.0,0.0,0.0,0.0,0.0,0.0,0.0,0.0,0.0,0.0,0.0,0.0,0.0,0.0,0.0,0.0,-3.952,0.0,0.0,0.0,0.0,0.0,0.0,0.0,0.0,0.0,-4.9358,-5.0852,-5.2605,-5.4335,-5.5671,-5.6506,-5.6435,0.0,0.0,0.0,0.0,0.0,0.0,0.0,-5.8284,-5.8115,-5.7947,-5.8202,-5.919,-6.1417,-6.304,-6.2897,0.0,0.0,-6.0274,-5.9494,-5.9773,-6.022,-5.9557,-5.9243,-6.0394,-6.0242,-5.9844,0.0,0.0,0.0,0.0,0.0,0.0,0.0,0.0,-5.1414,-5.0868,0.0,-4.9976,0.0,0.0,0.0,0.0,-5.1349,-5.2204,0.0,0.0,-5.4252,-5.4552,-5.4152,-5.3993,-5.4027,-5.4097,-5.3077,-5.2649,-5.2654,-5.1172,0.0,0.0,0.0,0.0,0.0,0.0,-4.8569,-4.8135,-5.1744,-5.3358,-5.2735,-5.2662,-5.2194,-5.1419,-5.0254,-4.9427,-4.8777,-4.6177,-4.4569,-4.4273,-4.1807,0.0,0.0,0.0,0.0,0.0,0.0,0.0,0.0,0.0,0.0,0.0,0.0,0.0,0.0,0.0,0.0,0.0,0.0,0.0,0.0,-4.1903,0.0,0.0,0.0,0.0,0.0,0.0,0.0,0.0,0.0,0.0,-5.23,-5.2994,-5.4922,-5.8398,0.0,0.0,0.0,0.0,-6.0511,-5.7348,-5.7593,-5.838,-5.8656,-6.0206,-6.2021,-6.3825,0.0,0.0,-6.3004,-6.2826,-6.2859,-6.2142,-6.4923,-6.673,-6.5558,-6.4275,-6.3577,-6.3716,-6.2259,-6.1262,-6.2259,-6.2465,-6.1902,-5.3657,0.0,0.0,0.0,0.0,-5.3008,-5.2805,-5.2232,-5.3439,-5.2741,-5.0698,-5.0708,0.0,0.0,0.0,0.0,0.0,0.0,-5.3102,-5.4255,-5.4633,-5.4874,-5.5052,-5.5198,-5.5189,-5.5014,-5.4743,-5.4597,-5.4691,-5.4273,-5.2406,-4.9181,0.0,0.0,0.0,0.0,-4.9854,-5.0499,-5.3108,-5.3934,-5.2741,-5.2691,-5.2243,-5.1328,-5.0828,-4.9744,-4.8102,-4.682,-4.5296,-4.3415,-4.2488,0.0,0.0,0.0,0.0,0.0,0.0,0.0,0.0,0.0,0.0,0.0,0.0,0.0,0.0,0.0,0.0,0.0,0.0,0.0,-4.368,-4.3428,-4.3298,0.0,0.0,0.0,0.0,0.0,0.0,0.0,0.0,0.0,-5.5908,-5.4649,-5.3964,0.0,0.0,-5.5336,-5.5172,-5.829,-6.0811,-6.1352,-6.2853,0.0,-6.4273,-6.3804,-6.3803,-6.4813,-6.6175,-6.6933,-6.6384,-6.6914,-6.7344,-6.7113,-6.7984,-6.8579,-6.8287,-6.7828,-6.7465,-6.7475,-6.6986,-6.673,-6.7042,-6.7025,-6.6863,-5.5458,-5.4617,-5.3108,-5.2946,-5.3588,-5.3469,-5.3496,-5.3621,-5.4593,-5.39,-5.2097,-5.215,-5.1374,-5.0091,-5.0264,0.0,0.0,0.0,-5.3548,-5.4708,-5.521,-5.5452,-5.5531,-5.5717,-5.5717,-5.5508,-5.5449,-5.5461,-5.5531,-5.5161,-5.3645,-5.1069,0.0,0.0,-4.8034,-5.0095,-5.107,-5.0993,-5.3262,-5.3879,-5.2718,-5.2369,-5.1874,-5.127,-5.101,-5.0005,-4.8241,-4.7276,-4.5807,-4.376,-4.3047,-4.2693,0.0,0.0,0.0,0.0,0.0,0.0,0.0,0.0,0.0,0.0,0.0,-5.0124,-5.0393,0.0,0.0,0.0,-4.7801,-4.723,-4.5756,-4.5699,0.0,0.0,0.0,0.0,0.0,0.0,0.0,-5.1371,-5.4526,-5.7225,-5.841,-5.7459,-5.6937,-5.7842,-5.8166,-5.8268,-5.8145,0.0,-6.3497,-6.4123,-6.5479,-6.6592,-6.6998,-6.6602,-6.6486,-6.7281,-6.8182,-6.8681,-6.8453,-6.9124,-6.9697,-6.9766,-7.0025,-7.0289,-7.0289,-7.0181,-6.9879,-6.9364,-6.9214,-6.9215,-6.9217,-6.9217,-6.9216,-5.6913,-5.5891,-5.352,-5.3556,-5.5104,-5.3661,-5.384,-5.5159,-5.5191,-5.4601,-5.3706,-5.3763,-5.326,-5.2334,-5.157,0.0,-5.2624,-5.3381,-5.4061,-5.4744,-5.5783,-5.6036,-5.561,-5.5721,-5.5731,-5.5692,-5.5543,-5.5547,-5.5561,-5.4628,-5.3713,-5.2932,-5.2955,-5.1441,-4.8665,-5.1284,-5.1953,-5.0381,-5.256,-5.337,-5.2731,-5.1836,-5.1321,-5.1194,-5.0874,-5.007,-4.8826,-4.7462,-4.6072,-4.4719,-4.3432,-4.2787,-4.2901,0.0,0.0,0.0,0.0,0.0,0.0,0.0,0.0,0.0,0.0,0.0,0.0,0.0,0.0,0.0,-4.9539,0.0,-4.8626,-4.8591,0.0,0.0,0.0,-4.9816,-5.2363,-5.4859,-5.6254,-5.5966,0.0,0.0,-6.0191,-6.0886,-6.2415,-6.5144,-6.5539,-6.5288,-6.4426,-6.6151,-6.7338,-6.5933,-6.645,-6.7207,-6.8056,-6.8743,-6.9501,-7.023,-7.0648,-7.0263,-6.964,-6.9985,-7.0473,-7.0518,-7.1124,-7.1591,-7.1622,-7.1573,-7.129,-6.991,-6.9659,-6.9628,-6.9672,-6.9711,-6.9708,-5.5147,-5.4375,-5.3064,-5.354,-5.5165,-5.5509,-5.5491,-5.5194,-5.574,-5.5103,-5.3602,-5.299,-5.2281,-5.152,-5.1282,-5.1671,-5.2545,-5.2782,-5.3516,-5.4606,-5.5069,-5.5404,-5.5599,-5.5632,-5.5643,-5.5599,-5.5558,-5.5535,-5.552,-5.5354,-5.4815,-5.3992,-5.3845,-5.2616,-5.0335,-5.0072,-5.0731,-5.2218,-5.2676,-5.2849,-5.2693,-5.1752,-5.1199,-5.104,-5.0097,-4.9019,-4.7864,-4.6529,-4.5164,-4.3719,-4.3159,-4.2863,-4.2901,-4.3195,0.0,0.0,0.0,0.0,0.0,0.0,0.0,0.0,0.0,-5.1689,-5.1019,0.0,-5.1896,0.0,-5.1059,-5.1656,-5.1352,-5.1969,0.0,0.0,-5.2995,-5.3849,-5.5339,-5.7876,-5.9106,-5.8034,-5.9854,-6.1427,-6.2074,-6.3545,-6.5521,-6.7888,-6.5631,-6.3827,-6.4313,-6.6298,-6.7891,-6.8241,-6.9419,-7.0503,-7.0582,-7.0886,-7.1068,-7.1347,-7.1357,-7.1264,-7.1038,-7.1201,-7.1411,-7.14,-7.1569,-7.1738,-7.1764,-7.1782,-7.1644,-7.1302,-7.1175,-7.1149,-7.1154,-7.1121,-7.116,-5.4257,-5.3844,-5.3358,-5.3671,-5.4598,-5.5183,-5.5095,-5.464,-5.5477,-5.4858,-5.3135,-5.2299,-5.1654,-5.1264,-5.123,-5.146,-5.1912,-5.2352,-5.2914,-5.3621,-5.4477,-5.5015,-5.5251,-5.5527,-5.5493,-5.5188,-5.5028,-5.4768,-5.4457,-5.4545,-5.4158,-5.332,-5.3228,-5.2317,-5.0636,-5.0376,-5.0604,-5.1192,-5.1376,-5.189,-5.2616,-5.1704,-5.0973,-5.0526,-4.974,-4.8438,-4.6593,-4.5778,-4.471,-4.3332,-4.3116,-4.3099,-4.3313,-4.3937,-4.4416,0.0,0.0,0.0,0.0,0.0,0.0,0.0,0.0,0.0,0.0,0.0,-5.274,-5.186,-5.2828,-5.356,-5.3654,-5.4478,-5.535,-5.6191,-5.6587,-5.7559,-5.9534,-6.1509,-6.2432,-6.1717,-6.3015,-6.4263,-6.5043,-6.6422,-6.7773,-6.91,-6.7592,-6.6722,-6.7611,-6.8823,-6.9724,-7.0272,-7.1107,-7.1719,-7.1738,-7.1704,-7.1683,-7.1675,-7.1668,-7.1653,-7.1653,-7.1668,-7.169,-7.1711,-7.1732,-7.1751,-7.177,-7.1788,-7.1794,-7.1794,-7.1782,-7.177,-7.1782,-7.1782,-7.1788,-5.3666,-5.3549,-5.3559,-5.3545,-5.3559,-5.3666,-5.3789,-5.3945,-5.467,-5.4071,-5.247,-5.1656,-5.1305,-5.1288,-5.1236,-5.1195,-5.1252,-5.1996,-5.2311,-5.2342,-5.3939,-5.4661,-5.4647,-5.5225,-5.5152,-5.4532,-5.4227,-5.3771,-5.3119,-5.3161,-5.282,-5.2086,-5.2026,-5.1413,-5.0271,-5.1108,-5.0859,-4.9441,-4.9969,-5.1027,-5.2536,-5.1362,-5.0338,-4.951,-4.9198,-4.7845,-4.5352,-4.5123,-4.4453,-4.3209,-4.3229,-4.3532,-4.3999,-4.4991,-4.5553,0.0,-4.6523,0.0,0.0,0.0,0.0,0.0,0.0,0.0,0.0,-5.2803,-5.3251,-5.3916,-5.4731,-5.5392,-5.5864,-5.6755,-5.8119,-6.0046,-6.0159,-6.1105,-6.369,-6.4872,-6.5507,-6.5578,-6.6272,-6.7068,-6.761,-6.866,-6.9146,-6.9084,-6.9562,-7.0093,-7.1213,-7.1326,-7.1424,-7.1778,-7.1811,-7.18,-7.18,-7.1776,-7.1751,-7.179,-7.1732,-7.1679,-7.1672,-7.1672,-7.1679,-7.1725,-7.1725,-7.1732,-7.1693,-7.1758,-7.1815,-7.1815,-7.18,-7.1827,-7.1882,-7.1887,-7.1897,-5.2416,-5.172,-5.17,-5.1697,-5.1693,-5.2434,-5.3228,-5.3867,-5.3382,-5.263,-5.166,-5.146,-5.139,-5.1361,-5.1357,-5.1282,-5.1135,-5.1363,-5.1681,-5.2115,-5.3074,-5.3568,-5.3702,-5.4197,-5.4073,-5.3485,-5.3278,-5.3112,-5.3015,-5.307,-5.2696,-5.1887,-5.1732,-5.1122,-5.0018,0.0,0.0,0.0,-5.1237,-5.1575,-5.1858,-4.9609,-4.8027,-4.7335,-4.6956,0.0,-4.4818,-4.4472,-4.3953,-4.3259,-4.3607,0.0,0.0,0.0,0.0,0.0,0.0,0.0,0.0,0.0,0.0,0.0,-5.2702,-5.2538,-5.2028,-5.287,-5.4161,-5.5791,-5.6489,-5.7346,-5.8438,-6.0047,-6.1257,-6.1966,-6.3229,-6.4385,-6.5077,-6.584,-6.6385,-6.6457,-6.6555,-6.6696,-6.6974,-6.7676,-6.8187,-6.826,-6.8972,-6.9572,-6.9787,-7.0435,-7.1082,-7.1661,-7.18,-7.1821,-7.1815,-7.1751,-7.1738,-7.1686,-7.1686,-7.1718,-7.1679,-7.1679,-7.1732,-7.179,-7.1797,-7.177,-7.1794,-7.1806,-7.1806,-7.1806,-7.1833,-7.1848,-7.1833,-7.1882,-7.1897,-5.1623,-5.1229,-5.1162,-5.1142,0.0,-5.1643,-5.2145,-5.2565,-5.2653,-5.2211,-5.1394,-5.1394,-5.1403,-5.1366,-5.1406,-5.1268,-5.0981,-5.1078,-5.1239,-5.1522,-5.2617,-5.3223,-5.3444,-5.3938,-5.3801,-5.3115,-5.2565,-5.2115,-5.1765,-5.183,-5.1634,-5.1257,-5.1235,-5.091,-5.0415,-5.0664,-5.0996,-5.1353,-5.1025,-5.13,-5.2069,-5.0403,-4.9066,-4.8354,-4.8056,0.0,0.0,0.0,0.0,0.0,0.0,0.0,0.0,-4.7136,0.0,-4.8249,-4.8638,-4.9089,-4.9663,-5.0117,-5.1024,-5.2423,-5.3297,-5.3706,-5.3568,-5.4537,-5.5721,-5.7149,-5.7992,-5.9084,-6.0681,-6.1754,-6.2768,-6.3783,-6.4745,-6.5469,-6.5943,-6.6397,-6.6668,-6.6697,-6.6673,-6.6652,-6.6691,-6.7431,-6.7748,-6.7486,-6.8086,-6.8646,-6.8773,-6.9782,-7.0902,-7.1682,-7.1866,-7.185,-7.1794,-7.1782,-7.1731,-7.1731,-7.1731,-7.1731,-7.1731,-7.1731,-7.1737,-7.1788,-7.1794,-7.18,-7.1811,-7.1817,-7.1822,-7.1838,-7.1887,-7.1897,-7.1858,-7.1867,-7.1915,-5.124,-5.1146,-5.1192,-5.1175,-5.1062,-5.1161,-5.1206,-5.1272,0.0,0.0,0.0,-5.1402,-5.1367,-5.1312,-5.1366,-5.12,-5.0894,-5.0971,-5.0939,-5.0898,-5.2193,-5.2961,-5.329,-5.3605,-5.3459,-5.285,-5.193,-5.1141,-5.0538,-5.0542,-5.0624,-5.0692,-5.0747,-5.0816,-5.0945,-5.1741,-5.1877,-5.1283,-5.0494,-5.0836,-5.2327,-5.1258,-5.033,-4.9699,-4.9503,-4.8655,-4.704,-4.7239,-4.7239,-4.6857,-4.7201,-4.7825,-4.8646,-4.9064,-4.9442,-4.9742,-5.0084,-5.0355,-5.051,-5.1308,-5.204,-5.2498,-5.4053,-5.5168,-5.5653,-5.6355,-5.7232,-5.8296,-5.9174,-6.044,-6.2277,-6.2782,-6.3596,-6.5145,-6.5505,-6.5897,-6.6477,-6.6678,-6.6696,-6.6724,-6.6717,-6.6697,-6.6712,-6.7291,-6.753,-6.699,-6.736,-6.7842,-6.8202,-6.9527,-7.0814,-7.1434,-7.1707,-7.1892,-7.1838,-7.1827,-7.1827,-7.1822,-7.1817,-7.1817,-7.1817,-7.1817,-7.1817,-7.1817,-7.1817,-7.1817,-7.1817,-7.1817,-7.1827,-7.1892,-7.1901,-7.1911,-7.1893,-7.1905,-7.1909,-5.1393,-5.0906,-5.1515,-5.1464,-5.0929,-5.1062,-5.1183,-5.1297,-5.1523,-5.1518,-5.1405,-5.1364,-5.1313,-5.1299,-5.1304,-5.1132,-5.0821,-5.0938,-5.0875,-5.0672,-5.1619,-5.2135,-5.2294,-5.2257,-5.2153,-5.1938,-5.1053,-5.0561,-5.05,-5.0511,-5.0594,-5.0682,-5.071,-5.0773,-5.0898,-5.115,-5.1231,-5.1125,-5.0583,-5.0832,-5.1746,-4.9569,-4.8418,-4.8462,-4.8383,-4.7793,-4.6784,-4.7427,-4.7573,-4.7344,-4.7889,-4.8943,-5.0486,-5.0106,-5.0378,-5.1735,-5.1303,-5.0972,-5.1018,-5.1756,-5.2809,-5.4271,-5.5913,-5.6878,-5.678,-5.6922,-5.7736,-5.9273,-5.9796,-6.066,-6.2429,-6.3397,-6.4312,-6.53,-6.6053,-6.6553,-6.6591,-6.6669,-6.6724,-6.6702,-6.6712,-6.6712,-6.6746,-6.6863,-6.6912,-6.6775,-6.6906,-6.7192,-6.8039,-6.9522,-7.0524,-7.0875,-7.1421,-7.1846,-7.1876,-7.1906,-7.1892,-7.1892,-7.1833,-7.1822,-7.1817,-7.1817,-7.1817,-7.1817,-7.1817,-7.1817,-7.1817,-7.1817,-7.1833,-7.1892,-7.1911,-7.1893,-7.1916,-7.1943,-7.1995,-5.1077,-5.1172,-5.1174,-5.1039,-5.0752,-5.1035,-5.1214,-5.1301,-5.1367,-5.1367,-5.1361,-5.131,-5.1274,-5.1203,-5.1272,-5.1093,-5.0709,-5.0812,-5.0804,-5.0654,-5.1425,-5.1847,-5.1937,-5.1963,-5.1906,-5.1656,-5.0873,-5.05,-5.05,-5.05,-5.0573,-5.0693,-5.0682,-5.0756,-5.0905,-5.0968,-5.1005,-5.1041,-5.0881,-5.1002,-5.1399,-5.0299,-4.975,-4.9844,-5.0181,-5.0207,-4.9828,-5.048,-5.0833,-5.0719,-5.1027,-5.1587,-5.2349,-5.2143,-5.2345,-5.3069,-5.2366,-5.2118,-5.2529,-5.33,-5.429,-5.5493,-5.6749,-5.7613,-5.7946,-5.8394,-5.9039,-5.9848,-6.0871,-6.2074,-6.3378,-6.4349,-6.5195,-6.6012,-6.6486,-6.6672,-6.6674,-6.6674,-6.673,-6.673,-6.673,-6.673,-6.673,-6.6702,-6.6722,-6.6707,-6.6728,-6.695,-6.7367,-6.8457,-6.9657,-7.0469,-7.1012,-7.1398,-7.1776,-7.1885,-7.1911,-7.1901,-7.1887,-7.1838,-7.1822,-7.1817,-7.1817,-7.1817,-7.1817,-7.1817,-7.1817,-7.1817,-7.1838,-7.1872,-7.1885,-7.1905,-7.1943,-7.1973,-7.1985,-5.0874,-5.1305,-5.096,-5.0721,-5.0699,-5.1014,-5.1211,-5.1266,-5.131,-5.1306,-5.1266,-5.1274,-5.1225,-5.1152,-5.1239,-5.1051,-5.0691,-5.0757,-5.0712,-5.0654,-5.1198,-5.1615,-5.1826,-5.1875,-5.1765,-5.1563,-5.0933,-5.0532,-5.05,-5.05,-5.0563,-5.0664,-5.0673,-5.0738,-5.0846,-5.0905,-5.0906,-5.0983,-5.1043,-5.119,-5.1475,-5.1316,-5.1302,-5.1525,-5.1911,-5.2226,-5.242,-5.2961,-5.3348,-5.3546,-5.3631,-5.3749,-5.3905,-5.3867,-5.3905,-5.4016,-5.3333,-5.325,-5.4043,-5.4679,-5.5503,-5.6536,-5.7403,-5.8265,-5.9071,-5.9904,-6.0475,-6.0822,-6.1987,-6.3237,-6.4308,-6.5039,-6.5798,-6.6571,-6.6677,-6.6668,-6.6663,-6.6674,-6.6686,-6.6663,-6.6663,-6.6663,-6.6669,-6.668,-6.6707,-6.6707,-6.6908,-6.7094,-6.718,-6.7844,-6.9009,-7.0128,-7.0714,-7.1065,-7.1753,-7.1897,-7.1885,-7.1906,-7.1892,-7.1838,-7.1822,-7.1817,-7.1817,-7.1817,-7.1817,-7.1817,-7.1817,-7.1817,-7.1838,-7.1876,-7.1889,-7.1916,-7.1967,-7.1989,-7.1992,-5.1284,-5.0936,-5.1154,-5.117,-5.0874,-5.103,-5.1109,-5.1136,-5.1191,-5.1178,-5.1102,-5.1178,-5.1207,-5.1191,-5.1207,-5.1046,-5.0789,-5.0803,-5.0697,-5.0545,-5.0696,-5.1203,-5.1831,-5.1323,-5.1325,-5.1655,-5.0867,-5.0457,-5.05,-5.05,-5.0563,-5.0664,-5.0673,-5.0701,-5.0729,-5.0846,-5.0888,-5.0897,-5.0983,-5.1424,-5.2179,-5.155,-5.1576,-5.235,-5.1759,-5.1728,-5.2418,-5.2516,-5.2947,-5.3594,-5.3849,-5.4202,-5.4806,-5.4358,-5.4324,-5.4979,-5.4258,-5.4115,-5.4869,-5.5069,-5.584,-5.742,-5.8379,-5.9205,-6.0063,-6.0984,-6.1833,-6.2422,-6.2737,-6.3646,-6.5113,-6.5414,-6.5826,-6.6564,-6.6652,-6.6581,-6.6601,-6.6614,-6.6588,-6.6588,-6.6627,-6.6627,-6.6627,-6.6639,-6.6674,-6.6863,-6.7422,-6.7874,-6.8024,-6.8606,-6.9462,-7.0309,-7.0636,-7.1042,-7.1741,-7.1955,-7.1893,-7.1885,-7.1853,-7.1827,-7.1822,-7.1817,-7.1817,-7.1817,-7.1817,-7.1817,-7.1817,-7.1822,-7.1838,-7.1881,-7.1901,-7.1924,-7.1981,-7.1992,-7.1989,-5.0949,-5.1078,-5.0647,-5.0581,-5.0708,-5.082,-5.0933,-5.1092,-5.1161,-5.1152,-5.1109,-5.1161,-5.1174,-5.1162,-5.1178,-5.1046,-5.0813,-5.0798,-5.0705,-5.0556,-5.0657,-5.092,-5.1201,-5.11,-5.1042,-5.1105,-5.0668,-5.0457,-5.0457,-5.0511,-5.0594,-5.0702,-5.0693,-5.0673,-5.0701,-5.0738,-5.0812,-5.0846,-5.0905,-5.1154,-5.1446,-5.1262,-5.1291,-5.1647,-5.2266,-5.2777,-5.3185,-5.4066,-5.486,-5.5205,-5.5312,-5.5485,-5.5836,-5.5574,-5.5564,-5.5931,-5.5662,-5.5341,-5.5194,-5.6116,-5.7016,-5.7738,-5.9033,-6.0011,-6.0401,-6.1631,-6.2806,-6.346,-6.3664,-6.4179,-6.5295,-6.5819,-6.6254,-6.6563,-6.6627,-6.6594,-6.6601,-6.6575,-6.6575,-6.6594,-6.6588,-6.6594,-6.6601,-6.6645,-6.6896,-6.7383,-6.7926,-6.8284,-6.8745,-6.9131,-6.9678,-7.0376,-7.0622,-7.1019,-7.1721,-7.1905,-7.1889,-7.1911,-7.1897,-7.1877,-7.1822,-7.1817,-7.1817,-7.1817,-7.1817,-7.1817,-7.1817,-7.1833,-7.1892,-7.1893,-7.1943,-7.1967,-7.199,-7.1991,-7.198,-5.0712,-5.0817,-5.0116,-5.0123,-5.0596,-5.0666,-5.0813,-5.103,-5.1092,-5.1075,-5.1043,-5.1086,-5.1097,-5.1109,-5.1187,-5.1052,-5.0836,-5.0598,-5.055,-5.0568,-5.0494,-5.0558,-5.0849,-5.0933,-5.0881,-5.0713,-5.0535,-5.0446,-5.0446,-5.0532,-5.0653,-5.0702,-5.0702,-5.0683,-5.0682,-5.0692,-5.072,-5.0764,-5.0838,-5.0863,-5.0919,-5.0998,-5.1009,-5.1111,-5.2412,-5.3296,-5.3561,-5.5024,-5.5952,-5.6192,-5.6291,-5.6347,-5.6397,-5.6411,-5.6461,-5.6472,-5.6477,-5.625,-5.562,-5.6944,-5.7923,-5.8241,-5.957,-6.0624,-6.1172,-6.2263,-6.3391,-6.4406,-6.4513,-6.4835,-6.5666,-6.6244,-6.6561,-6.6569,-6.6567,-6.6553,-6.6549,-6.6594,-6.6581,-6.656,-6.6553,-6.6677,-6.6892,-6.7034,-6.7374,-6.8232,-6.8648,-6.8921,-6.9541,-6.9892,-7.0321,-7.0823,-7.094,-7.1218,-7.1772,-7.1885,-7.1915,-7.1901,-7.1892,-7.1838,-7.1822,-7.1817,-7.1817,-7.1817,-7.1817,-7.1822,-7.1833,-7.1892,-7.1915,-7.1913,-7.1953,-7.1985,-7.1992,-7.1988,-7.2088,-5.0952,-4.9917,-4.9815,-5.0061,-5.0587,-5.0596,-5.0717,-5.0929,-5.0937,-5.0921,-5.0921,-5.0944,-5.1009,-5.1097,-5.1232,-5.1128,-5.0796,-5.0098,-5.0072,-5.0506,-5.0008,-5.0204,-5.1042,-5.0987,-5.0924,-5.0913,-5.0514,-5.039,-5.0489,-5.0553,-5.0653,-5.0702,-5.0702,-5.0673,-5.0683,-5.0673,-5.0701,-5.071,-5.0756,-5.0821,-5.0821,-5.0872,-5.0913,-5.1045,-5.1834,-5.2691,-5.3365,-5.4389,-5.5289,-5.599,-5.6239,-5.6391,-5.6388,-5.6468,-5.6478,-5.6482,-5.6499,-5.651,-5.6555,-5.7337,-5.8193,-5.9006,-5.9942,-6.1074,-6.2404,-6.2859,-6.3667,-6.5175,-6.5269,-6.5655,-6.6342,-6.6451,-6.6496,-6.6482,-6.6462,-6.6446,-6.6516,-6.6524,-6.6516,-6.6516,-6.6594,-6.6966,-6.7656,-6.7801,-6.8283,-6.9099,-6.9917,-7.0438,-7.0576,-7.1195,-7.1536,-7.1599,-7.1677,-7.1765,-7.1876,-7.1872,-7.1897,-7.1892,-7.1838,-7.1822,-7.1822,-7.1817,-7.1817,-7.1822,-7.1822,-7.1833,-7.1887,-7.1911,-7.194,-7.1972,-7.1967,-7.1988,-7.1991,-7.2025,-7.2243,-4.9701,-4.9299,-4.93,-4.9683,-5.032,-5.0331,-5.0577,-5.089,-5.0898,-5.0898,-5.0921,-5.0963,-5.1076,-5.113,-5.1195,-5.1093,-5.0824,-5.0525,-5.0242,-4.9967,-5.0267,-5.0459,-5.0346,-5.0725,-5.0927,-5.0929,-5.0514,-5.0367,-5.0435,-5.05,-5.0553,-5.0653,-5.0692,-5.0702,-5.0712,-5.0683,-5.0693,-5.0702,-5.0721,-5.0721,-5.073,-5.0778,-5.0971,-5.1501,-5.2394,-5.3029,-5.3311,-5.4779,-5.5728,-5.6012,-5.6245,-5.6335,-5.6353,-5.6398,-5.6457,-5.6497,-5.6475,-5.6716,-5.7258,-5.8085,-5.8939,-5.9811,-6.0666,-6.1648,-6.2704,-6.3382,-6.4172,-6.5186,-6.5878,-6.6283,-6.6432,-6.65,-6.6454,-6.6446,-6.6446,-6.6446,-6.6501,-6.6508,-6.6508,-6.6586,-6.6936,-6.7697,-6.8416,-6.8728,-6.911,-6.9941,-7.0435,-7.0829,-7.1292,-7.1677,-7.1827,-7.1822,-7.1817,-7.1822,-7.1838,-7.1838,-7.1833,-7.1833,-7.1822,-7.1822,-7.1817,-7.1817,-7.1817,-7.1827,-7.1833,-7.1848,-7.1906,-7.1948,-7.1969,-7.1963,-7.1984,-7.203,-7.1987,-7.2331,-7.2744,-4.857,-4.8714,-4.8801,-4.9324,-4.9987,-5.0111,-5.0374,-5.0726,-5.0841,-5.0858,-5.089,-5.0995,-5.1043,-5.1056,-5.107,-5.098,-5.0673,-5.0321,-4.9853,-4.9513,-4.9965,-5.0124,-5.0117,-5.0622,-5.094,-5.085,-5.0493,-5.0344,-5.0401,-5.0446,-5.0511,-5.0622,-5.0663,-5.0692,-5.0702,-5.0702,-5.0702,-5.0702,-5.0702,-5.0712,-5.0702,-5.0962,-5.1288,-5.1931,-5.3002,-5.3648,-5.3695,-5.5161,-5.5968,-5.6003,-5.6141,-5.6272,-5.6317,-5.6368,-5.6429,-5.6457,-5.6464,-5.6815,-5.7666,-5.8488,-5.9338,-6.0243,-6.1369,-6.2357,-6.3224,-6.4037,-6.4838,-6.5639,-6.6166,-6.6501,-6.6446,-6.6422,-6.6406,-6.6406,-6.6485,-6.6508,-6.6508,-6.6508,-6.6625,-6.7014,-6.7713,-6.8567,-6.9402,-6.9571,-7.0038,-7.0876,-7.1004,-7.1232,-7.1661,-7.1806,-7.1806,-7.18,-7.1788,-7.18,-7.1811,-7.1817,-7.1817,-7.1817,-7.1822,-7.1817,-7.1822,-7.1822,-7.1827,-7.1833,-7.1848,-7.1906,-7.1936,-7.1972,-7.2002,-7.1984,-7.2068,-7.2109,-7.2416,-7.291,-7.3442,-4.7695,-4.8136,-4.8403,-4.8949,-4.9637,-4.9936,-5.0183,-5.0476,-5.071,-5.0829,-5.0846,-5.088,-5.0913,-5.0905,-5.0921,-5.0793,-5.0458,-4.9425,-4.9044,-4.935,-4.9134,-4.9341,-4.9914,-5.0654,-5.0888,-5.0687,-5.0413,-5.0356,-5.0401,-5.0412,-5.0468,-5.0553,-5.0573,-5.0604,-5.0702,-5.0692,-5.0702,-5.0692,-5.0692,-5.0692,-5.0779,-5.1344,-5.1795,-5.2134,-5.3496,-5.4359,-5.4397,-5.5373,-5.5904,-5.5912,-5.6032,-5.6153,-5.629,-5.6358,-5.6388,-5.6427,-5.6407,-5.6874,-5.7702,-5.8537,-5.9421,-6.0344,-6.1789,-6.2995,-6.3825,-6.4714,-6.5505,-6.6196,-6.64,-6.6454,-6.6414,-6.6406,-6.6406,-6.6406,-6.6446,-6.6508,-6.6508,-6.6547,-6.6858,-6.7752,-6.8645,-6.9461,-7.018,-7.048,-7.0817,-7.141,-7.1661,-7.1661,-7.1778,-7.18,-7.1815,-7.1809,-7.1764,-7.177,-7.1782,-7.1794,-7.18,-7.1806,-7.1817,-7.1817,-7.1827,-7.1827,-7.1843,-7.1853,-7.192,-7.1936,-7.1933,-7.2,-7.198,-7.199,-7.207,-7.2341,-7.284,-7.3412,-7.4304,-4.7335,-4.8094,-4.8175,-4.8744,-4.9579,-4.9897,-5.0133,-5.0396,-5.0692,-5.0821,-5.0821,-5.0829,-5.0838,-5.0838,-5.0825,-5.0768,-5.0583,-4.9725,-4.912,-4.8942,-4.9785,-4.9817,-4.9485,-5.047,-5.0881,-5.0577,-5.0396,-5.0294,-5.0356,-5.0379,-5.0435,-5.0457,-5.0511,-5.0532,-5.0563,-5.0553,-5.0553,-5.0553,-5.0553,-5.0573,-5.0709,-5.1359,-5.2039,-5.2784,-5.381,-5.4655,-5.5204,-5.5671,-5.5914,-5.5885,-5.6029,-5.6156,-5.6253,-5.6308,-5.6331,-5.637,-5.6903,-5.7579,-5.8396,-5.9145,-5.9978,-6.0902,-6.2013,-6.2975,-6.3888,-6.4775,-6.5615,-6.6345,-6.6446,-6.6414,-6.6406,-6.6406,-6.6414,-6.6485,-6.6501,-6.6508,-6.6664,-6.7091,-6.8062,-6.9228,-6.9772,-7.0316,-7.1036,-7.129,-7.1394,-7.1689,-7.1817,-7.1817,-7.1817,-7.1806,-7.1806,-7.18,-7.1782,-7.1764,-7.1788,-7.1844,-7.1811,-7.1822,-7.1827,-7.1827,-7.1838,-7.1848,-7.1858,-7.1885,-7.1944,-7.1972,-7.2,-7.1978,-7.1989,-7.2265,-7.2496,-7.2881,-7.3299,-7.4072,-7.5001,-4.7182,-4.7935,-4.8094,-4.8623,-4.9293,-4.9637,-4.9819,-4.9999,-5.0309,-5.0455,-5.0417,-5.0438,-5.0527,-5.0596,-5.0664,-5.067,-5.0664,-5.0309,-4.9651,-4.8975,-4.9624,-4.977,-4.9334,-5.047,-5.0927,-5.0624,-5.0472,-5.0379,-5.0283,-5.0356,-5.0352,-5.0412,-5.0446,-5.0478,-5.05,-5.05,-5.05,-5.05,-5.056,-5.0706,-5.1139,-5.1787,-5.2642,-5.359,-5.4375,-5.5028,-5.561,-5.5766,-5.5817,-5.5856,-5.5977,-5.6094,-5.6223,-5.6265,-5.6401,-5.6751,-5.7236,-5.7945,-5.9064,-5.9567,-6.0442,-6.1574,-6.2486,-6.3382,-6.4279,-6.5172,-6.594,-6.6314,-6.6422,-6.6406,-6.6406,-6.6422,-6.6439,-6.6501,-6.6508,-6.6664,-6.7014,-6.8024,-6.9034,-7.0044,-7.0549,-7.1055,-7.1503,-7.1679,-7.1706,-7.18,-7.1817,-7.1817,-7.1817,-7.1806,-7.1806,-7.18,-7.1782,-7.1821,-7.1844,-7.185,-7.1856,-7.1833,-7.1848,-7.1887,-7.1887,-7.1867,-7.1881,-7.1955,-7.1976,-7.1963,-7.1981,-7.2028,-7.2031,-7.2458,-7.2956,-7.3574,-7.4111,-7.4845,-7.5701,-4.716,-4.7611,-4.8075,-4.8476,-4.8875,-4.9257,-4.9377,-4.9324,-4.9641,-4.9819,-4.9832,-4.9911,-5.0037,-5.0264,-5.0238,-5.0364,-5.0656,-5.0584,-5.0313,-4.9604,-4.9308,-4.9148,-4.9921,-5.08,-5.0998,-5.0734,-5.0645,-5.0489,-5.0294,-5.0321,-5.0344,-5.039,-5.0401,-5.0424,-5.0468,-5.0489,-5.0478,-5.0478,-5.0521,-5.0898,-5.1677,-5.2401,-5.3344,-5.4325,-5.494,-5.5389,-5.5632,-5.5692,-5.5724,-5.5797,-5.5932,-5.6029,-5.6117,-5.6157,-5.6521,-5.7219,-5.7326,-5.8278,-5.9422,-5.9957,-6.0644,-6.217,-6.3061,-6.4131,-6.4984,-6.5713,-6.6248,-6.6406,-6.6406,-6.6406,-6.6406,-6.6439,-6.654,-6.6586,-6.6742,-6.7052,-6.7946,-6.9344,-7.0121,-7.0471,-7.1101,-7.163,-7.1697,-7.1672,-7.1712,-7.1794,-7.1817,-7.1817,-7.1817,-7.1806,-7.1821,-7.1821,-7.1833,-7.1844,-7.1861,-7.1872,-7.1877,-7.1887,-7.1867,-7.1881,-7.192,-7.1897,-7.1913,-7.1979,-7.2004,-7.1982,-7.199,-7.1992,-7.2341,-7.2878,-7.3492,-7.4228,-7.4926,-7.5626,-7.6175,-4.7004,-4.7363,-4.7875,-4.8306,-4.8678,-4.904,-4.9171,-4.9166,-4.9439,-4.9561,-4.9631,-4.9673,-4.9728,-4.9886,-4.9534,-4.9769,-5.028,-5.0067,-5.023,-5.0305,-4.913,-4.9169,-5.0034,-5.0889,-5.1146,-5.0833,-5.0717,-5.0542,-5.0294,-5.0283,-5.0321,-5.0344,-5.0333,-5.0344,-5.0367,-5.0367,-5.0329,-5.0367,-5.0379,-5.0845,-5.1644,-5.1989,-5.2839,-5.4271,-5.4599,-5.5021,-5.5511,-5.5554,-5.5649,-5.5787,-5.5895,-5.5938,-5.602,-5.6076,-5.651,-5.7267,-5.7928,-5.8607,-5.9552,-6.0292,-6.1124,-6.2141,-6.3166,-6.4009,-6.5058,-6.5855,-6.629,-6.6381,-6.6406,-6.6406,-6.6406,-6.6485,-6.678,-6.7324,-6.7557,-6.8062,-6.9267,-7.0005,-7.051,-7.1131,-7.1481,-7.1591,-7.1668,-7.1704,-7.1732,-7.1776,-7.1806,-7.1817,-7.1817,-7.1811,-7.18,-7.1861,-7.1872,-7.1877,-7.1882,-7.1892,-7.1897,-7.1906,-7.1889,-7.1916,-7.1924,-7.1937,-7.1948,-7.2002,-7.1981,-7.199,-7.1992,-7.1989,-7.2605,-7.3217,-7.3876,-7.4535,-7.5438,-7.6182,-7.6618,-4.7115,-4.7299,-4.7939,-4.8363,-4.8569,-4.8801,-4.8887,-4.8887,-4.9052,-4.9161,-4.9134,-4.888,-4.9063,-4.9428,-4.859,-4.8997,-5.0144,-4.9657,-4.9926,-5.0576,-4.9646,-4.9274,-4.9666,-5.0381,-5.0832,-5.0918,-5.0821,-5.0606,-5.0374,-5.0294,-5.0236,-5.0163,-5.0163,-5.0151,-5.0126,-5.0189,-5.0175,-5.0314,-5.0591,-5.1262,-5.2135,-5.2591,-5.3261,-5.4314,-5.4626,-5.5113,-5.5493,-5.5497,-5.5604,-5.5735,-5.5778,-5.5837,-5.6018,-5.6337,-5.6859,-5.769,-5.8451,-5.9276,-6.0046,-6.087,-6.1751,-6.2629,-6.351,-6.449,-6.5383,-6.6032,-6.6349,-6.6389,-6.6398,-6.6414,-6.6508,-6.6765,-6.7596,-6.8645,-6.8839,-6.9267,-7.0238,-7.0588,-7.1054,-7.1442,-7.1606,-7.1614,-7.1692,-7.169,-7.1732,-7.1803,-7.18,-7.1811,-7.1817,-7.1817,-7.1827,-7.1843,-7.1862,-7.1872,-7.1885,-7.1936,-7.1944,-7.1948,-7.1927,-7.1909,-7.1953,-7.1965,-7.1971,-7.1981,-7.199,-7.1992,-7.1989,-7.2178,-7.2752,-7.3405,-7.4106,-7.5006,-7.595,-7.6503,-7.6938,-4.7342,-4.7342,-4.8175,-4.855,-4.8623,-4.8661,-4.8716,-4.8623,-4.8735,-4.8735,-4.8512,-4.79,-4.8211,-4.8942,-4.7536,-4.7956,-4.9886,-4.8932,-4.9367,-4.9677,-4.9415,-4.8954,-4.8655,-4.9687,-5.0423,-5.0894,-5.0933,-5.0687,-5.044,-5.0294,-5.0163,-5.005,-4.9999,-4.9959,-4.9959,-5.0011,-5.0088,-5.0418,-5.1002,-5.1928,-5.2815,-5.3448,-5.3951,-5.461,-5.5086,-5.5322,-5.5425,-5.5425,-5.5485,-5.5588,-5.5632,-5.5812,-5.6048,-5.6791,-5.7541,-5.8308,-5.9034,-5.9773,-6.0685,-6.1492,-6.2413,-6.3332,-6.4259,-6.5181,-6.5904,-6.6245,-6.6311,-6.6398,-6.6406,-6.65,-6.6843,-6.7441,-6.8529,-6.9694,-7.0199,-7.0432,-7.0588,-7.1131,-7.1598,-7.1598,-7.1598,-7.1622,-7.1653,-7.169,-7.1725,-7.1745,-7.1788,-7.1811,-7.1817,-7.1817,-7.1838,-7.1901,-7.1881,-7.1901,-7.192,-7.1979,-7.1984,-7.199,-7.1965,-7.1975,-7.1977,-7.1981,-7.1985,-7.199,-7.1992,-7.1989,-7.2024,-7.2365,-7.298,-7.3761,-7.4623,-7.564,-7.6581,-7.6783,-7.7141,-4.7378,-4.7569,-4.8092,-4.8651,-4.9105,-4.9139,-4.9025,-4.9025,-4.9125,-4.882,-4.8328,-4.7702,-4.7658,-4.7904,-4.669,-4.6686,-4.8026,-4.7634,-4.7365,-4.7651,-4.7724,-4.7578,-4.7847,-4.9177,-5.0289,-5.0776,-5.0808,-5.0642,-5.0429,-5.0188,-5.0025,-4.9973,-4.9906,-4.9893,-4.9879,-4.9979,-5.0285,-5.0806,-5.1228,-5.2182,-5.3277,-5.3491,-5.4008,-5.5036,-5.537,-5.5301,-5.517,-5.5197,-5.521,-5.5223,-5.5453,-5.5927,-5.6483,-5.6856,-5.7651,-5.8777,-5.9278,-5.9984,-6.121,-6.1889,-6.2682,-6.3988,-6.4609,-6.5181,-6.6059,-6.6274,-6.6349,-6.6381,-6.6406,-6.6741,-6.7511,-6.8296,-6.9267,-7.0238,-7.0898,-7.1248,-7.1326,-7.1442,-7.1598,-7.1598,-7.1598,-7.1606,-7.1622,-7.1683,-7.1718,-7.1732,-7.177,-7.1811,-7.1817,-7.1817,-7.1843,-7.1911,-7.1885,-7.1905,-7.1933,-7.199,-7.1963,-7.2012,-7.1984,-7.199,-7.199,-7.199,-7.1991,-7.1992,-7.199,-7.2024,-7.2215,-7.268,-7.3297,-7.4238,-7.514,-7.6002,-7.6708,-7.6985,-7.7145,-4.7673,-4.7632,-4.8032,-4.8443,-4.8753,-4.8709,-4.8612,-4.8669,-4.8749,-4.861,-4.8194,-4.7647,-4.7406,-4.7381,-4.6121,-4.6036,-4.7115,-4.7645,-4.766,-4.7806,-4.7999,-4.806,-4.7955,-4.9011,-5.0066,-5.0397,-5.061,-5.0548,-5.0325,-5.0063,-4.9906,-4.9741,-4.9726,-4.9736,-4.9834,-5.009,-5.0534,-5.1107,-5.1926,-5.2897,-5.3587,-5.4014,-5.4268,-5.5107,-5.5095,-5.4804,-5.5037,-5.5019,-5.5028,-5.5104,-5.5576,-5.6142,-5.6804,-5.7404,-5.8285,-5.9026,-5.9741,-6.034,-6.1398,-6.2245,-6.3105,-6.4371,-6.4985,-6.5539,-6.5996,-6.6205,-6.6331,-6.6403,-6.6531,-6.6951,-6.8257,-6.915,-7.0005,-7.0743,-7.1287,-7.1598,-7.1598,-7.1598,-7.1598,-7.1598,-7.1598,-7.1598,-7.1622,-7.1675,-7.1711,-7.1732,-7.1782,-7.1817,-7.1817,-7.1822,-7.1848,-7.1872,-7.1885,-7.1905,-7.1979,-7.2,-7.1977,-7.1985,-7.199,-7.1992,-7.1991,-7.1991,-7.1991,-7.1988,-7.2024,-7.2413,-7.2644,-7.3146,-7.381,-7.4868,-7.5732,-7.636,-7.6793,-7.7068,-7.7187,-4.7989,-4.7731,-4.8032,-4.8241,-4.8311,-4.8247,-4.8332,-4.8425,-4.8453,-4.864,-4.8244,-4.7738,-4.7519,-4.7073,-4.5995,-4.6012,-4.698,-4.7995,-4.8156,-4.8003,-4.8409,-4.837,-4.8333,-4.8884,-4.9524,-4.9666,-5.0339,-5.046,-5.023,-5.0012,-4.9783,-4.9506,-4.9529,-4.971,-4.9874,-5.0341,-5.102,-5.1586,-5.2651,-5.3497,-5.3955,-5.4618,-5.5161,-5.526,-5.4867,-5.4611,-5.489,-5.4927,-5.4822,-5.4882,-5.5829,-5.6393,-5.6962,-5.7938,-5.901,-5.9272,-6.013,-6.1023,-6.1889,-6.2766,-6.3704,-6.4509,-6.541,-6.5916,-6.6036,-6.6165,-6.6312,-6.6472,-6.6717,-6.7511,-6.9072,-6.9772,-7.0588,-7.1287,-7.1559,-7.1598,-7.1598,-7.1598,-7.1598,-7.1598,-7.1598,-7.1606,-7.163,-7.1675,-7.1704,-7.1732,-7.1788,-7.1817,-7.1817,-7.1827,-7.1848,-7.1872,-7.1885,-7.1927,-7.1995,-7.1977,-7.1986,-7.1991,-7.1992,-7.1989,-7.1981,-7.198,-7.1981,-7.1982,-7.2097,-7.2487,-7.2957,-7.3506,-7.4365,-7.55,-7.6207,-7.6679,-7.6953,-7.7148,-7.7187,-4.8179,-4.8108,-4.8052,-4.8373,-4.891,-4.882,-4.9104,-4.9706,-4.974,-4.9534,-4.8981,-4.8393,-4.7849,-4.7224,-4.6465,-4.635,-4.6938,-4.7602,-4.7764,-4.7652,-4.7977,-4.7879,-4.7977,-4.8618,-4.8979,-4.9314,-5.0054,-5.0418,-5.0159,-4.9882,-4.9858,-4.9649,-4.9702,-4.9918,-5.0407,-5.0745,-5.155,-5.2409,-5.3166,-5.372,-5.4283,-5.4838,-5.5275,-5.5437,-5.5021,-5.4832,-5.4716,-5.4692,-5.4549,-5.4463,-5.5659,-5.6506,-5.7163,-5.8213,-5.9177,-5.9854,-6.0713,-6.1558,-6.2413,-6.3489,-6.4468,-6.5241,-6.5756,-6.5967,-6.6024,-6.6162,-6.6322,-6.6687,-6.7268,-6.8249,-6.9888,-7.0299,-7.0704,-7.1326,-7.1598,-7.1598,-7.1598,-7.1598,-7.1598,-7.1598,-7.1606,-7.1606,-7.1638,-7.1675,-7.1711,-7.1745,-7.1788,-7.1811,-7.1817,-7.1827,-7.1843,-7.1867,-7.1889,-7.1937,-7.201,-7.1987,-7.1992,-7.1991,-7.1986,-7.1978,-7.2006,-7.2,-7.1997,-7.1965,-7.2131,-7.2448,-7.3037,-7.3822,-7.4802,-7.5858,-7.6445,-7.6952,-7.7068,-7.7147,-7.7146,-4.9561,-4.9411,-4.9211,-4.9325,-4.9625,-4.9575,-4.9727,-5.0075,-5.0163,-5.0031,-4.9607,-4.9038,-4.8429,-4.7738,-4.7004,-4.688,-4.7271,-4.7515,-4.7716,-4.7851,-4.831,-4.8299,-4.8121,-4.8778,-4.9162,-4.9632,-5.024,-5.0468,-5.0189,-5.0293,-5.0222,-5.0272,-5.0488,-5.0954,-5.1351,-5.1769,-5.2278,-5.3119,-5.3549,-5.3958,-5.4401,-5.4903,-5.5198,-5.5211,-5.5132,-5.4866,-5.4544,-5.4401,-5.43,-5.4565,-5.5809,-5.6643,-5.7439,-5.844,-5.9548,-6.0089,-6.0921,-6.1865,-6.275,-6.37,-6.459,-6.5454,-6.5782,-6.5907,-6.6013,-6.6162,-6.6458,-6.7086,-6.7838,-6.8851,-7.0084,-7.0598,-7.112,-7.1434,-7.1598,-7.1598,-7.1598,-7.1598,-7.1598,-7.1598,-7.1598,-7.1606,-7.1622,-7.1668,-7.1711,-7.1751,-7.1788,-7.1806,-7.1817,-7.1827,-7.1843,-7.1889,-7.1916,-7.1956,-7.1981,-7.1991,-7.199,-7.1985,-7.1973,-7.2,-7.199,-7.1943,-7.194,-7.1945,-7.2195,-7.2523,-7.347,-7.4372,-7.5312,-7.6171,-7.6677,-7.7064,-7.7103,-7.7141,-7.7138,-5.0736,-5.0305,-5.0241,-5.0206,-5.0185,-5.0134,-5.0184,-5.0329,-5.0431,-5.0352,-5.0155,-4.9825,-4.9257,-4.8519,-4.7976,-4.7739,-4.7967,-4.8049,-4.8203,-4.8574,-4.9265,-4.9376,-4.9254,-4.9622,-5.0189,-5.0435,-5.0711,-5.0694,-5.0434,-5.0778,-5.0927,-5.0949,-5.1549,-5.1978,-5.2148,-5.251,-5.298,-5.3449,-5.3973,-5.4403,-5.4656,-5.4996,-5.5181,-5.5037,-5.4871,-5.4639,-5.4347,-5.4216,-5.4332,-5.4834,-5.5913,-5.703,-5.7493,-5.8857,-5.9828,-6.0231,-6.1077,-6.2002,-6.2986,-6.3932,-6.4853,-6.5517,-6.569,-6.5833,-6.6094,-6.6422,-6.6902,-6.7736,-6.8617,-6.9479,-7.0419,-7.1039,-7.1387,-7.1511,-7.1547,-7.1573,-7.1573,-7.1581,-7.1598,-7.1598,-7.1598,-7.1614,-7.163,-7.1675,-7.1718,-7.1758,-7.1794,-7.1811,-7.1822,-7.1833,-7.1858,-7.1909,-7.1945,-7.1973,-7.1989,-7.1992,-7.1988,-7.1977,-7.1963,-7.1945,-7.1933,-7.192,-7.1924,-7.1972,-7.2383,-7.2869,-7.386,-7.4765,-7.5468,-7.6167,-7.6786,-7.7133,-7.7094,-7.7089,-7.7083,-5.0365,-4.9414,-4.998,-5.0163,-5.017,-5.022,-5.0546,-5.1126,-5.1162,-5.0794,-5.0424,-5.0737,-5.0277,-4.9309,-4.9198,-4.8802,-4.8531,-4.8586,-4.8783,-4.9071,-4.97,-5.0013,-5.0033,-5.0798,-5.1037,-5.1298,-5.1499,-5.1169,-5.1124,-5.1539,-5.1761,-5.1789,-5.1996,-5.2071,-5.2966,-5.3192,-5.3287,-5.3997,-5.4762,-5.5385,-5.5744,-5.5883,-5.5679,-5.5209,-5.4754,-5.4368,-5.4251,-5.4111,-5.4317,-5.5081,-5.6108,-5.7079,-5.7846,-5.8927,-5.9975,-6.0815,-6.178,-6.2775,-6.3632,-6.452,-6.5168,-6.5542,-6.5703,-6.5858,-6.6272,-6.6836,-6.7546,-6.8413,-6.9275,-7.0103,-7.0771,-7.1197,-7.1324,-7.1376,-7.1436,-7.1504,-7.1523,-7.1538,-7.1564,-7.1598,-7.1598,-7.1622,-7.1638,-7.169,-7.1732,-7.1764,-7.1794,-7.1811,-7.1827,-7.1843,-7.1876,-7.1963,-7.1958,-7.1981,-7.1991,-7.1991,-7.1984,-7.2006,-7.1951,-7.1933,-7.1927,-7.192,-7.192,-7.209,-7.2503,-7.3186,-7.4138,-7.4922,-7.5543,-7.6238,-7.6929,-7.7083,-7.7085,-7.7073,-7.7059,-5.1615,-5.1166,-5.1397,-5.1475,-5.1466,-5.143,-5.1611,-5.19,-5.1973,-5.1778,-5.1497,-5.1316,-5.0729,-4.995,-4.9914,-4.983,-4.9578,-4.9684,-4.9801,-4.9896,-5.0378,-5.0638,-5.075,-5.1084,-5.1378,-5.1804,-5.2325,-5.279,-5.2618,-5.2873,-5.3265,-5.3625,-5.3662,-5.3904,-5.4129,-5.4223,-5.4429,-5.4913,-5.5602,-5.6211,-5.6413,-5.6554,-5.6292,-5.545,-5.4845,-5.4409,-5.4131,-5.416,-5.4457,-5.5262,-5.6444,-5.7436,-5.8203,-5.9308,-6.0638,-6.1558,-6.2531,-6.3289,-6.3889,-6.4785,-6.5299,-6.5552,-6.5715,-6.5974,-6.6622,-6.72,-6.8033,-6.9189,-6.961,-7.029,-7.0958,-7.1151,-7.1236,-7.128,-7.1324,-7.1435,-7.1475,-7.1513,-7.1559,-7.1564,-7.1598,-7.1614,-7.1645,-7.169,-7.1718,-7.1745,-7.1782,-7.1817,-7.1838,-7.1858,-7.1897,-7.1979,-7.2006,-7.1986,-7.1992,-7.1988,-7.198,-7.2002,-7.1948,-7.193,-7.193,-7.1927,-7.2008,-7.2266,-7.2719,-7.3472,-7.4453,-7.5153,-7.5848,-7.6458,-7.7065,-7.7062,-7.7059,-7.7098,-7.7062,-5.259,-5.2581,-5.2526,-5.248,-5.248,-5.248,-5.248,-5.248,-5.248,-5.248,-5.2335,-5.1864,-5.1243,-5.0729,-5.0802,-5.0903,-5.0648,-5.1057,-5.1067,-5.1132,-5.1327,-5.1482,-5.1541,-5.1581,-5.1989,-5.2063,-5.3345,-5.4086,-5.457,-5.4799,-5.5137,-5.5491,-5.523,-5.5417,-5.5473,-5.5435,-5.5508,-5.5937,-5.6649,-5.7019,-5.7128,-5.7297,-5.6688,-5.5806,-5.5023,-5.4468,-5.4216,-5.4149,-5.4506,-5.5946,-5.6909,-5.7847,-5.8484,-5.974,-6.096,-6.1919,-6.2838,-6.3658,-6.4208,-6.4873,-6.526,-6.5494,-6.5726,-6.609,-6.7036,-6.7479,-6.8147,-6.9578,-7.0041,-7.0465,-7.0863,-7.1056,-7.1081,-7.1154,-7.1224,-7.1313,-7.1435,-7.1475,-7.1541,-7.1573,-7.1598,-7.1598,-7.163,-7.1683,-7.1711,-7.1725,-7.1764,-7.1817,-7.1848,-7.1876,-7.192,-7.1995,-7.201,-7.1987,-7.1992,-7.1985,-7.1975,-7.2002,-7.1948,-7.194,-7.1945,-7.2021,-7.2141,-7.2477,-7.3003,-7.3945,-7.4994,-7.5573,-7.6109,-7.6675,-7.7082,-7.7063,-7.7059,-7.7067,-7.7104,-5.2559,-5.2503,-5.2516,-5.2552,-5.2552,-5.248,-5.2516,-5.2697,-5.2625,-5.2661,-5.2733,-5.2444,-5.2082,-5.1692,-5.2087,-5.2095,-5.1441,-5.2265,-5.22,-5.2221,-5.2428,-5.2569,-5.2541,-5.2843,-5.3534,-5.4051,-5.4572,-5.5385,-5.6383,-5.6261,-5.6307,-5.6142,-5.6209,-5.6229,-5.6397,-5.6583,-5.7029,-5.7407,-5.7978,-5.7996,-5.794,-5.7827,-5.723,-5.6006,-5.5027,-5.4583,-5.5074,-5.4737,-5.5238,-5.6911,-5.7617,-5.837,-5.9159,-6.0248,-6.13,-6.2203,-6.3124,-6.3966,-6.46,-6.4959,-6.5267,-6.5494,-6.5816,-6.632,-6.7269,-6.8052,-6.8848,-6.9694,-7.0296,-7.0656,-7.0873,-7.0912,-7.0952,-7.1005,-7.1106,-7.1213,-7.1313,-7.1435,-7.1513,-7.1564,-7.1598,-7.1598,-7.1622,-7.1675,-7.1665,-7.1686,-7.1788,-7.1838,-7.1872,-7.1901,-7.1943,-7.1967,-7.1975,-7.1988,-7.1992,-7.1987,-7.1984,-7.1978,-7.1969,-7.1965,-7.1965,-7.2121,-7.2442,-7.3,-7.3633,-7.4604,-7.5447,-7.5894,-7.6383,-7.6837,-7.7094,-7.7034,-7.7051,-7.7078,-7.7076,-5.2687,-5.2943,-5.2943,-5.3039,-5.3241,-5.3241,-5.353,-5.3929,-5.3965,-5.3965,-5.3929,-5.3965,-5.382,-5.3639,-5.3711,-5.364,-5.3122,-5.3782,-5.3626,-5.3614,-5.3849,-5.3865,-5.3719,-5.3659,-5.4112,-5.4638,-5.507,-5.5518,-5.6144,-5.6977,-5.6962,-5.6789,-5.6932,-5.7274,-5.7518,-5.8136,-5.8826,-5.9359,-5.949,-5.9403,-5.9054,-5.8418,-5.7641,-5.6439,-5.572,-5.5202,-5.5235,-5.5601,-5.6337,-5.7274,-5.8157,-5.8986,-5.9908,-6.0867,-6.1732,-6.2636,-6.3577,-6.4311,-6.4775,-6.5116,-6.5305,-6.5676,-6.6175,-6.6871,-6.7664,-6.8548,-6.9418,-7.0119,-7.0542,-7.0801,-7.0829,-7.0843,-7.0857,-7.0898,-7.0979,-7.1106,-7.1236,-7.1384,-7.1504,-7.1564,-7.1589,-7.1598,-7.163,-7.1668,-7.1658,-7.1686,-7.18,-7.1858,-7.1885,-7.1916,-7.1951,-7.1969,-7.1977,-7.1987,-7.1992,-7.1991,-7.199,-7.1988,-7.1984,-7.1985,-7.2065,-7.2694,-7.3086,-7.3671,-7.4251,-7.5128,-7.5797,-7.6232,-7.66,-7.6946,-7.7014,-7.6999,-7.7034,-7.7039,-7.7083,-5.2509,-5.2855,-5.283,-5.3211,-5.3735,-5.3796,-5.4084,-5.4578,-5.4663,-5.4797,-5.4907,-5.5088,-5.4929,-5.4783,-5.4853,-5.4548,-5.4268,-5.4743,-5.4784,-5.4853,-5.4919,-5.495,-5.4606,-5.4515,-5.4737,-5.5045,-5.553,-5.6088,-5.6579,-5.7279,-5.761,-5.778,-5.7988,-5.8563,-5.8884,-5.9823,-6.0608,-6.0938,-6.0617,-6.0217,-5.9759,-5.8916,-5.8073,-5.7005,-5.6308,-5.6139,-5.6108,-5.6461,-5.7198,-5.8194,-5.9094,-5.9868,-6.0752,-6.1655,-6.2465,-6.3238,-6.3993,-6.4633,-6.4853,-6.5095,-6.5305,-6.5556,-6.6385,-6.7261,-6.8157,-6.8973,-6.9663,-7.0507,-7.0684,-7.0737,-7.0758,-7.0787,-7.0801,-7.0857,-7.0898,-7.1018,-7.1201,-7.1334,-7.1455,-7.1573,-7.1581,-7.1598,-7.163,-7.1668,-7.1764,-7.1764,-7.1827,-7.1872,-7.1889,-7.192,-7.1948,-7.1965,-7.1975,-7.1988,-7.1992,-7.1992,-7.1992,-7.1992,-7.1992,-7.1992,-7.2225,-7.2885,-7.3542,-7.4002,-7.4725,-7.5588,-7.6175,-7.6565,-7.6783,-7.6939,-7.6966,-7.696,-7.7014,-7.7024,-7.7083,-5.188,-5.2012,-5.2064,-5.2829,-5.3896,-5.3966,-5.4063,-5.433,-5.4466,-5.473,-5.5024,-5.5519,-5.5194,-5.4499,-5.492,-5.4709,-5.4599,-5.5486,-5.5678,-5.5232,-5.5671,-5.5559,-5.5196,-5.5062,-5.5207,-5.6113,-5.6151,-5.6285,-5.7243,-5.7521,-5.8129,-5.8957,-5.932,-6.0006,-5.9915,-6.0713,-6.1165,-6.1113,-6.0503,-6.028,-5.9903,-5.9181,-5.8459,-5.7684,-5.7131,-5.7081,-5.7624,-5.7434,-5.8307,-5.9729,-6.011,-6.0845,-6.1692,-6.2425,-6.3029,-6.3369,-6.4124,-6.4558,-6.4725,-6.5095,-6.5312,-6.5666,-6.6559,-6.737,-6.8172,-6.8991,-6.9712,-7.0508,-7.0609,-7.0678,-7.0699,-7.0743,-7.0772,-7.0815,-7.0871,-7.0965,-7.1154,-7.1302,-7.1426,-7.1529,-7.1573,-7.1606,-7.1669,-7.1714,-7.1823,-7.1839,-7.1858,-7.1885,-7.1889,-7.1905,-7.1933,-7.1953,-7.1967,-7.1977,-7.1986,-7.1988,-7.1989,-7.1989,-7.2025,-7.2059,-7.2403,-7.3095,-7.3705,-7.4308,-7.5179,-7.6113,-7.6543,-7.6891,-7.691,-7.689,-7.6917,-7.6936,-7.6994,-7.7055,-7.7073,-5.1675,-5.2091,-5.2304,-5.2808,-5.3487,-5.3672,-5.4211,-5.4988,-5.5162,-5.53,-5.5489,-5.5537,-5.5334,-5.5058,-5.5001,-5.4916,-5.466,-5.5575,-5.5826,-5.519,-5.6009,-5.5826,-5.5472,-5.5256,-5.5425,-5.5508,-5.5512,-5.5829,-5.6482,-5.7065,-5.7514,-5.8202,-6.0158,-6.1055,-6.1449,-6.2054,-6.2558,-6.2501,-6.1893,-6.1248,-6.075,-5.9996,-5.9231,-5.8566,-5.8223,-5.8561,-5.9324,-5.8902,-5.9756,-6.1012,-6.1259,-6.1728,-6.2482,-6.312,-6.3365,-6.3763,-6.4405,-6.4501,-6.4615,-6.4891,-6.5293,-6.5977,-6.6793,-6.7649,-6.8477,-6.932,-6.9925,-7.0238,-7.0419,-7.0506,-7.0601,-7.0693,-7.0714,-7.0801,-7.0871,-7.0979,-7.1118,-7.1247,-7.1366,-7.1474,-7.1538,-7.1972,-7.2135,-7.1838,-7.1816,-7.1977,-7.1989,-7.1897,-7.1867,-7.1915,-7.1936,-7.193,-7.1909,-7.1919,-7.1928,-7.1971,-7.1971,-7.193,-7.2076,-7.2219,-7.2711,-7.3357,-7.4182,-7.4923,-7.5797,-7.6586,-7.6728,-7.6825,-7.6793,-7.6785,-7.6847,-7.691,-7.6933,-7.7004,-7.7062,-5.0845,-5.1466,-5.1555,-5.1967,-5.2568,-5.3067,-5.3932,-5.4909,-5.5339,-5.5659,-5.5818,-5.5789,-5.5475,-5.5305,-5.5143,-5.4686,-5.4205,-5.4974,-5.5629,-5.5009,-5.5978,-5.599,-5.5705,-5.5371,-5.5462,-5.5316,-5.5313,-5.553,-5.6169,-5.634,-5.7323,-5.8866,-6.0521,-6.1551,-6.2161,-6.2658,-6.3221,-6.3094,-6.26,-6.1781,-6.1328,-6.0716,-6.0028,-5.9661,-5.9609,-5.9978,-6.0463,-6.0827,-6.12,-6.1917,-6.235,-6.2668,-6.3253,-6.3591,-6.3816,-6.4194,-6.4443,-6.452,-6.4615,-6.5068,-6.5614,-6.6407,-6.7192,-6.7891,-6.8637,-6.9377,-6.9811,-7.0073,-7.0164,-7.0302,-7.0473,-7.0547,-7.0693,-7.0767,-7.0829,-7.0939,-7.1081,-7.1201,-7.1313,-7.1426,-7.1598,-7.208,-7.2429,-7.2139,-7.1855,-7.1998,-7.2145,-7.1967,-7.1827,-7.1882,-7.1887,-7.1885,-7.1881,-7.1894,-7.1901,-7.1897,-7.1897,-7.1894,-7.2143,-7.2466,-7.3134,-7.381,-7.4658,-7.5468,-7.6062,-7.6529,-7.6635,-7.6699,-7.6708,-7.679,-7.6817,-7.6883,-7.6909,-7.699,-7.7053,-4.9448,-5.0125,-4.9882,-5.0278,-5.1201,-5.2146,-5.3011,-5.3845,-5.4823,-5.5455,-5.5775,-5.6342,-5.5912,-5.497,-5.487,-5.4261,-5.3618,-5.4008,-5.4391,-5.4826,-5.5396,-5.5674,-5.5731,-5.5488,-5.5215,-5.5413,-5.5493,-5.5369,-5.6012,-5.7091,-5.8331,-5.945,-6.0859,-6.1807,-6.2341,-6.2749,-6.3339,-6.3431,-6.2866,-6.2103,-6.1637,-6.1406,-6.1031,-6.0834,-6.1037,-6.1507,-6.184,-6.2064,-6.2632,-6.3125,-6.3426,-6.3744,-6.4063,-6.4307,-6.4326,-6.4403,-6.4481,-6.467,-6.4802,-6.533,-6.6061,-6.6739,-6.7125,-6.777,-6.8527,-6.9302,-6.9645,-6.9853,-6.9965,-7.0147,-7.0286,-7.0419,-7.0601,-7.0693,-7.0758,-7.0898,-7.1043,-7.1178,-7.128,-7.1386,-7.1513,-7.1836,-7.2073,-7.1923,-7.1792,-7.204,-7.2093,-7.1821,-7.1693,-7.1788,-7.18,-7.1811,-7.1823,-7.1862,-7.1862,-7.1872,-7.2096,-7.2155,-7.2596,-7.2951,-7.3607,-7.4296,-7.5027,-7.5716,-7.6176,-7.6497,-7.6604,-7.6691,-7.6701,-7.6756,-7.6824,-7.6876,-7.6903,-7.697,-7.7039,-4.8921,-4.9388,-4.9479,-4.9963,-5.0659,-5.0995,-5.1631,-5.2522,-5.3611,-5.4293,-5.4499,-5.5138,-5.5002,-5.4289,-5.4257,-5.3715,-5.3517,-5.355,-5.3781,-5.4168,-5.461,-5.4672,-5.4641,-5.4548,-5.4422,-5.4507,-5.4728,-5.5179,-5.5962,-5.7364,-5.8221,-5.884,-6.0478,-6.1427,-6.2186,-6.2694,-6.3334,-6.3507,-6.2899,-6.2425,-6.2353,-6.2438,-6.2265,-6.2302,-6.2831,-6.3423,-6.4138,-6.4016,-6.4503,-6.4859,-6.4893,-6.4888,-6.4249,-6.4304,-6.4304,-6.4278,-6.4633,-6.5041,-6.5153,-6.579,-6.6518,-6.7111,-6.7466,-6.7969,-6.8618,-6.9143,-6.944,-6.9602,-6.9758,-6.991,-7.0111,-7.0268,-7.0473,-7.0616,-7.0684,-7.0801,-7.0965,-7.1093,-7.1213,-7.1302,-7.1435,-7.1678,-7.1892,-7.1753,-7.1659,-7.2017,-7.2056,-7.1706,-7.1575,-7.1637,-7.1718,-7.1699,-7.1731,-7.1778,-7.1776,-7.1809,-7.2153,-7.2496,-7.3013,-7.3589,-7.4291,-7.4974,-7.5508,-7.5904,-7.6299,-7.6475,-7.6583,-7.6632,-7.6642,-7.6719,-7.679,-7.6855,-7.6897,-7.697,-7.7032,-4.8334,-4.8957,-4.8893,-4.94,-5.0158,-5.0253,-5.0608,-5.1312,-5.2454,-5.3188,-5.3539,-5.4199,-5.4203,-5.3825,-5.3728,-5.343,-5.2867,-5.3111,-5.3349,-5.3649,-5.378,-5.4009,-5.3912,-5.3716,-5.3853,-5.3923,-5.4323,-5.4881,-5.5794,-5.678,-5.7671,-5.7848,-5.956,-6.0841,-6.1728,-6.2698,-6.3489,-6.3545,-6.3239,-6.2839,-6.302,-6.3491,-6.3556,-6.3848,-6.4558,-6.5509,-6.6243,-6.5886,-6.6063,-6.6252,-6.6114,-6.5824,-6.5278,-6.5236,-6.5153,-6.5218,-6.54,-6.5677,-6.5827,-6.6396,-6.6986,-6.7448,-6.7775,-6.8185,-6.8562,-6.8968,-6.9181,-6.9374,-6.9521,-6.97,-6.9929,-7.0111,-7.0302,-7.0499,-7.0593,-7.0699,-7.0857,-7.0992,-7.1106,-7.1201,-7.138,-7.1619,-7.1669,-7.1533,-7.1474,-7.1668,-7.1698,-7.1514,-7.1426,-7.1482,-7.1542,-7.1583,-7.1622,-7.1658,-7.1746,-7.2008,-7.2444,-7.3018,-7.376,-7.4354,-7.5066,-7.5476,-7.584,-7.6088,-7.6285,-7.6409,-7.6466,-7.656,-7.6591,-7.6672,-7.6773,-7.6855,-7.6909,-7.698,-7.7043,-4.7732,-4.8881,-4.8306,-4.8927,-4.9837,-4.9931,-4.9939,-5.0074,-5.1398,-5.2292,-5.2758,-5.3487,-5.3649,-5.328,-5.3218,-5.3066,-5.271,-5.2688,-5.3004,-5.3349,-5.3281,-5.3382,-5.3416,-5.3348,-5.3375,-5.3902,-5.4452,-5.4845,-5.561,-5.643,-5.6911,-5.6895,-5.9327,-6.0666,-6.0947,-6.2808,-6.3676,-6.3814,-6.3806,-6.3669,-6.3703,-6.4072,-6.4592,-6.5111,-6.584,-6.6612,-6.6911,-6.712,-6.7315,-6.7138,-6.6941,-6.6758,-6.6427,-6.6244,-6.6172,-6.6217,-6.6187,-6.6298,-6.6499,-6.7049,-6.7361,-6.7746,-6.8108,-6.8307,-6.8613,-6.8814,-6.8983,-6.905,-6.9187,-6.9399,-6.9602,-6.9778,-7.0021,-7.0251,-7.0435,-7.0754,-7.1151,-7.1434,-7.1824,-7.1878,-7.1917,-7.2054,-7.1788,-7.1645,-7.1463,-7.1468,-7.1584,-7.1501,-7.1579,-7.1633,-7.1725,-7.1766,-7.1803,-7.2025,-7.2326,-7.2589,-7.289,-7.349,-7.4291,-7.4862,-7.5335,-7.5761,-7.616,-7.6212,-7.6198,-7.6263,-7.6326,-7.6421,-7.6521,-7.6604,-7.6726,-7.6862,-7.696,-7.699,-7.7056,-4.7862,-4.8237,-4.9093,-4.9647,-4.986,-4.99,-4.99,-4.9931,-5.0216,-5.1023,-5.1926,-5.2819,-5.3083,-5.2552,-5.2584,-5.2539,-5.2631,-5.2478,-5.2663,-5.2914,-5.299,-5.2859,-5.2894,-5.294,-5.2983,-5.3152,-5.3815,-5.492,-5.5745,-5.6152,-5.6441,-5.6857,-5.8822,-5.9748,-6.0384,-6.2474,-6.3546,-6.3879,-6.4367,-6.4198,-6.3877,-6.4414,-6.4997,-6.5909,-6.6786,-6.7789,-6.8235,-6.8652,-6.8301,-6.7844,-6.756,-6.706,-6.6351,-6.6216,-6.6077,-6.6057,-6.6542,-6.6727,-6.7011,-6.7518,-6.7876,-6.8086,-6.8284,-6.8334,-6.8481,-6.8674,-6.8754,-6.8777,-6.8892,-6.9078,-6.931,-6.9498,-6.9775,-7.0022,-7.0387,-7.0954,-7.1497,-7.1973,-7.2485,-7.2515,-7.2544,-7.2346,-7.2018,-7.1801,-7.1557,-7.1647,-7.1968,-7.211,-7.2302,-7.2392,-7.2456,-7.2491,-7.2302,-7.2491,-7.2811,-7.3237,-7.3524,-7.3941,-7.4692,-7.5169,-7.5614,-7.5789,-7.5952,-7.6034,-7.6087,-7.6118,-7.6238,-7.6397,-7.6499,-7.6583,-7.6726,-7.6869,-7.6927,-7.6999,-7.7065,-4.7842,-4.8263,-4.9402,-4.99,-4.99,-4.99,-4.9852,-4.9773,-4.9773,-4.9962,-5.0429,-5.1414,-5.1914,-5.1809,-5.2041,-5.2339,-5.2574,-5.2509,-5.2562,-5.2712,-5.2889,-5.2618,-5.2604,-5.2785,-5.3269,-5.3461,-5.4266,-5.5215,-5.5741,-5.6046,-5.6356,-5.6774,-5.8031,-5.929,-6.0172,-6.1673,-6.3206,-6.3653,-6.4601,-6.4772,-6.4326,-6.5021,-6.5691,-6.6667,-6.782,-6.8856,-6.9437,-6.9767,-6.9372,-6.8674,-6.8189,-6.7675,-6.7159,-6.6976,-6.674,-6.6775,-6.7019,-6.7252,-6.7476,-6.78,-6.8208,-6.8284,-6.8408,-6.8408,-6.8358,-6.853,-6.8554,-6.8565,-6.8613,-6.8823,-6.9087,-6.9319,-6.9837,-7.0242,-7.0972,-7.1672,-7.206,-7.2406,-7.2625,-7.2658,-7.2674,-7.2614,-7.2418,-7.2547,-7.2347,-7.2419,-7.2664,-7.2706,-7.288,-7.3153,-7.325,-7.3241,-7.3108,-7.2996,-7.3164,-7.3665,-7.4179,-7.4665,-7.5019,-7.5317,-7.5611,-7.5648,-7.5715,-7.5871,-7.6002,-7.5991,-7.6106,-7.6352,-7.6466,-7.6563,-7.6726,-7.6915,-7.6972,-7.7008,-7.7034,-4.7956,-4.8674,-4.9543,-4.99,-4.9892,-4.9892,-4.9773,-4.9582,-4.9421,-4.9138,-4.9037,-4.9884,-5.0448,-5.1109,-5.1817,-5.2146,-5.2443,-5.2669,-5.2676,-5.289,-5.302,-5.2844,-5.2838,-5.2999,-5.3495,-5.3995,-5.4663,-5.497,-5.5328,-5.5612,-5.5966,-5.654,-5.7775,-5.9175,-5.9735,-6.1328,-6.3267,-6.3618,-6.4426,-6.5479,-6.5759,-6.6005,-6.6497,-6.7445,-6.8631,-6.9809,-7.0175,-7.0189,-6.9948,-6.9332,-6.8469,-6.7911,-6.7635,-6.7369,-6.7373,-6.7293,-6.7266,-6.7467,-6.7684,-6.7789,-6.7993,-6.8121,-6.8334,-6.8358,-6.8284,-6.8284,-6.8309,-6.8297,-6.8371,-6.8543,-6.8849,-6.9208,-6.9743,-7.0592,-7.1459,-7.2311,-7.2604,-7.2888,-7.2945,-7.2944,-7.2982,-7.2982,-7.2955,-7.3059,-7.3155,-7.3236,-7.3338,-7.3369,-7.3484,-7.3827,-7.4063,-7.4063,-7.3964,-7.3845,-7.3836,-7.4081,-7.4704,-7.4904,-7.5226,-7.5452,-7.5561,-7.5514,-7.5574,-7.5834,-7.5912,-7.5979,-7.6121,-7.6353,-7.6478,-7.657,-7.6717,-7.6862,-7.6927,-7.6969,-7.7039,-4.8763,-4.9631,-4.9837,-4.99,-4.9892,-4.9701,-4.9622,-4.9421,-4.8625,-4.8604,-4.9037,-4.8759,-4.9161,-5.0266,-5.1521,-5.229,-5.3005,-5.307,-5.3479,-5.3873,-5.335,-5.3108,-5.3068,-5.3181,-5.372,-5.4114,-5.4401,-5.4549,-5.4957,-5.5122,-5.5661,-5.6719,-5.7476,-5.8864,-6.0324,-6.1845,-6.2989,-6.3515,-6.4428,-6.5546,-6.5719,-6.614,-6.6981,-6.7762,-6.8399,-6.9258,-6.9661,-6.9455,-6.9287,-6.8943,-6.8288,-6.7697,-6.7488,-6.7414,-6.7266,-6.7263,-6.7227,-6.7174,-6.7286,-6.7424,-6.7533,-6.7704,-6.7836,-6.7967,-6.7915,-6.8004,-6.8004,-6.7952,-6.8055,-6.8208,-6.8506,-6.8867,-6.9366,-7.0643,-7.1659,-7.2482,-7.3036,-7.3452,-7.3754,-7.3775,-7.3775,-7.3636,-7.3382,-7.3478,-7.3563,-7.3688,-7.3904,-7.3975,-7.4078,-7.4469,-7.4745,-7.4709,-7.4597,-7.4934,-7.4979,-7.4745,-7.5073,-7.5209,-7.5348,-7.5508,-7.553,-7.5303,-7.5455,-7.6082,-7.613,-7.6092,-7.6225,-7.65,-7.6455,-7.6566,-7.6681,-7.6832,-7.6909,-7.6969,-7.7039]},{"header":{"parameterUnit":"m.s-1","parameterCategory":1,"la1":31.0,"la2":29.5877,"lo1":-88.7671,"lo2":-86.6584,"dy":0.0162,"dx":0.0185,"nx":115,"ny":88,"refTime":"2024-03-21T12:00:00:Z","depth":0,"parameterNumber":3,"parameterNumberName":"V-component_of_WINDS"},"data":[0.0,0.0,0.0,0.0,0.0,0.0,0.0,0.0,0.0,0.0,0.0,0.0,0.0,0.0,0.0,0.0,0.0,0.0,0.0,0.0,0.0,0.0,0.0,0.0,0.0,0.0,0.0,0.0,0.0,0.0,0.0,0.0,0.0,0.0,0.0,0.0,0.0,0.0,0.0,0.0,0.0,0.0,0.0,0.0,0.0,0.0,0.0,0.0,0.0,0.0,0.0,0.0,0.0,0.0,0.0,0.0,0.0,0.0,0.0,0.0,0.0,0.0,0.0,0.0,0.0,0.0,0.0,0.0,0.0,0.0,0.0,0.0,0.0,0.0,0.0,0.0,0.0,0.0,0.0,0.0,0.0,0.0,0.0,0.0,0.0,0.0,0.0,0.0,0.0,0.0,0.0,0.0,0.0,0.0,0.0,0.0,0.0,0.0,0.0,0.0,0.0,0.0,0.0,0.0,0.0,0.0,0.0,0.0,0.0,0.0,0.0,0.0,0.0,0.0,0.0,0.0,0.0,0.0,0.0,0.0,0.0,0.0,0.0,0.0,0.0,0.0,0.0,0.0,0.0,0.0,0.0,0.0,0.0,0.0,0.0,0.0,0.0,0.0,0.0,0.0,0.0,0.0,0.0,0.0,0.0,0.0,0.0,0.0,0.0,0.0,0.0,0.0,0.0,0.0,0.0,0.0,0.0,0.0,0.0,0.0,0.0,0.0,0.0,0.0,0.0,0.0,0.0,0.0,0.0,0.0,0.0,0.0,0.0,0.0,0.0,0.0,0.0,0.0,0.0,0.0,0.0,0.0,0.0,0.0,0.0,0.0,0.0,0.0,0.0,0.0,0.0,0.0,0.0,0.0,0.0,0.0,0.0,0.0,0.0,0.0,0.0,0.0,0.0,0.0,0.0,0.0,0.0,0.0,0.0,0.0,0.0,0.0,0.0,0.0,0.0,0.0,0.0,0.0,0.0,0.0,0.0,0.0,0.0,0.0,0.0,0.0,0.0,0.0,0.0,0.0,0.0,0.0,0.0,0.0,0.0,0.0,0.0,0.0,0.0,0.0,0.0,0.0,0.0,0.0,0.0,0.0,0.0,0.0,0.0,0.0,0.0,0.0,0.0,0.0,0.0,0.0,0.0,0.0,0.0,0.0,0.0,0.0,0.0,0.0,0.0,0.0,0.0,0.0,0.0,0.0,0.0,0.0,0.0,0.0,0.0,0.0,0.0,0.0,0.0,0.0,0.0,0.0,0.0,0.0,0.0,0.0,0.0,0.0,0.0,0.0,0.0,0.0,0.0,0.0,0.0,0.0,0.0,0.0,0.0,0.0,0.0,0.0,0.0,0.0,0.0,0.0,0.0,0.0,0.0,0.0,0.0,0.0,0.0,0.0,0.0,0.0,0.0,0.0,0.0,0.0,0.0,0.0,0.0,0.0,0.0,0.0,0.0,0.0,0.0,0.0,0.0,0.0,0.0,0.0,0.0,0.0,0.0,0.0,0.0,0.0,0.0,0.0,0.0,0.0,0.0,0.0,0.0,0.0,0.0,0.0,0.0,0.0,0.0,0.0,0.0,0.0,0.0,0.0,0.0,0.0,0.0,0.0,0.0,0.0,0.0,0.0,0.0,0.0,0.0,0.0,0.0,0.0,0.0,0.0,0.0,0.0,0.0,0.0,0.0,0.0,0.0,0.0,0.0,0.0,0.0,0.0,0.0,0.0,0.0,0.0,0.0,0.0,0.0,0.0,0.0,0.0,0.0,0.0,0.0,0.0,0.0,0.0,0.0,0.0,0.0,0.0,0.0,0.0,0.0,0.0,0.0,0.0,0.0,0.0,0.0,0.0,0.0,0.0,0.0,0.0,0.0,0.0,0.0,0.0,0.0,0.0,0.0,0.0,0.0,0.0,0.0,0.0,0.0,0.0,0.0,0.0,0.0,0.0,0.0,0.0,0.0,0.0,0.0,0.0,0.0,0.0,0.0,0.0,0.0,0.0,0.0,0.0,0.0,0.0,0.0,0.0,0.0,0.0,0.0,0.0,0.0,0.0,0.0,0.0,0.0,0.0,0.0,0.0,0.0,0.0,0.0,0.0,0.0,0.0,0.0,0.0,0.0,0.0,0.0,0.0,0.0,0.0,0.0,0.0,0.0,0.0,0.0,0.0,0.0,0.0,0.0,0.0,0.0,0.0,0.0,0.0,0.0,0.0,0.0,0.0,0.0,0.0,0.0,0.0,0.0,0.0,0.0,0.0,0.0,0.0,0.0,0.0,0.0,0.0,0.0,0.0,0.0,0.0,0.0,0.0,0.0,0.0,0.0,0.0,0.0,0.0,0.0,0.0,0.0,0.0,0.0,0.0,0.0,0.0,0.0,0.0,0.0,0.0,0.0,0.0,0.0,0.0,0.0,0.0,0.0,0.0,0.0,0.0,0.0,0.0,0.0,0.0,0.0,0.0,0.0,0.0,0.0,0.0,0.0,0.0,0.0,0.0,0.0,0.0,0.0,0.0,0.0,0.0,0.0,0.0,0.0,0.0,0.0,0.0,0.0,0.0,0.0,0.0,0.0,0.0,0.0,0.0,0.0,0.0,0.0,0.0,0.0,0.0,0.0,0.0,0.0,0.0,0.0,0.0,0.0,0.0,0.0,0.0,0.0,0.0,0.0,0.0,0.0,0.0,0.0,0.0,0.0,0.0,0.0,0.0,0.0,0.0,0.0,0.0,0.0,0.0,0.0,0.0,0.0,0.0,0.0,0.0,0.0,0.0,0.0,0.0,0.0,0.0,0.0,0.0,0.0,0.0,0.0,0.0,0.0,0.0,0.0,0.0,0.0,0.0,0.0,0.0,0.0,0.0,0.0,0.0,0.0,0.0,0.0,0.0,0.0,0.0,0.0,0.0,0.0,0.0,0.0,0.0,0.0,0.0,0.0,0.0,0.0,0.0,0.0,0.0,0.0,0.0,0.0,0.0,0.0,0.0,0.0,0.0,0.0,0.0,0.0,0.0,0.0,0.0,0.0,0.0,0.0,0.0,0.0,0.0,0.0,0.0,0.0,0.0,0.0,0.0,0.0,0.0,0.0,0.0,0.0,0.0,0.0,0.0,0.0,0.0,0.0,0.0,0.0,0.0,0.0,0.0,0.0,0.0,0.0,0.0,0.0,0.0,0.0,0.0,0.0,0.0,0.0,0.0,0.0,0.0,0.0,0.0,0.0,0.0,0.0,0.0,0.0,0.0,0.0,0.0,0.0,0.0,0.0,0.0,0.0,0.0,0.0,0.0,0.0,0.0,0.0,0.0,0.0,0.0,0.0,0.0,0.0,0.0,0.0,0.0,0.0,0.0,0.0,0.0,0.0,0.0,0.0,0.0,0.0,0.0,0.0,0.0,0.0,0.0,0.0,0.0,0.0,0.0,0.0,0.0,0.0,0.0,0.0,0.0,0.0,0.0,0.0,0.0,0.0,0.0,0.0,0.0,0.0,0.0,0.0,0.0,0.0,0.0,0.0,0.0,0.0,0.0,0.0,0.0,0.0,0.0,0.0,0.0,0.0,0.0,0.0,0.0,0.0,0.0,0.0,0.0,0.0,0.0,0.0,0.0,0.0,0.0,0.0,0.0,0.0,0.0,0.0,0.0,0.0,0.0,0.0,0.0,0.0,0.0,0.0,0.0,0.0,0.0,0.0,0.0,0.0,0.0,0.0,0.0,0.0,0.0,0.0,0.0,0.0,0.0,0.0,0.0,0.0,0.0,0.0,0.0,0.0,0.0,0.0,0.0,0.0,0.0,0.0,0.0,0.0,0.0,0.0,0.0,0.0,0.0,0.0,0.0,0.0,0.0,0.0,0.0,0.0,0.0,0.0,0.0,0.0,0.0,0.0,0.0,0.0,0.0,0.0,0.0,0.0,0.0,0.0,0.0,0.0,0.0,0.0,0.0,0.0,0.0,0.0,0.0,0.0,0.0,0.0,0.0,0.0,0.0,0.0,0.0,0.0,0.0,0.0,0.0,0.0,0.0,0.0,0.0,0.0,0.0,0.0,0.0,0.0,0.0,0.0,0.0,0.0,0.0,0.0,0.0,0.0,0.0,0.0,0.0,0.0,0.0,0.0,0.0,0.0,0.0,0.0,0.0,0.0,0.0,0.0,0.0,0.0,0.0,0.0,0.0,0.0,0.0,0.0,0.0,0.0,0.0,0.0,0.0,0.0,0.0,0.0,0.0,0.0,0.0,0.0,0.0,0.0,0.0,0.0,0.0,0.0,0.0,0.0,0.0,0.0,0.0,4.0244,0.0,0.0,0.0,0.0,0.0,0.0,0.0,0.0,0.0,0.0,0.0,0.0,0.0,0.0,0.0,0.0,0.0,0.0,0.0,0.0,0.0,0.0,0.0,0.0,0.0,0.0,0.0,0.0,0.0,0.0,0.0,0.0,0.0,0.0,0.0,0.0,0.0,0.0,0.0,0.0,0.0,0.0,0.0,0.0,0.0,0.0,0.0,0.0,0.0,0.0,0.0,0.0,0.0,0.0,0.0,0.0,0.0,0.0,0.0,0.0,0.0,0.0,0.0,0.0,0.0,0.0,0.0,0.0,0.0,0.0,0.0,0.0,0.0,0.0,0.0,0.0,0.0,0.0,0.0,0.0,0.0,0.0,0.0,0.0,0.0,0.0,0.0,0.0,0.0,0.0,0.0,0.0,0.0,0.0,0.0,0.0,0.0,0.0,0.0,0.0,0.0,0.0,0.0,0.0,0.0,0.0,0.0,0.0,0.0,0.0,4.4394,4.4022,4.3172,4.1828,4.0022,0.0,0.0,0.0,0.0,0.0,0.0,0.0,0.0,0.0,0.0,0.0,0.0,0.0,0.0,0.0,0.0,0.0,0.0,0.0,0.0,0.0,0.0,0.0,0.0,0.0,0.0,0.0,0.0,0.0,0.0,0.0,0.0,0.0,0.0,0.0,0.0,0.0,0.0,0.0,0.0,0.0,0.0,0.0,0.0,0.0,0.0,0.0,0.0,0.0,0.0,0.0,0.0,0.0,0.0,0.0,0.0,0.0,0.0,0.0,0.0,0.0,0.0,0.0,0.0,0.0,0.0,0.0,0.0,0.0,0.0,0.0,0.0,0.0,0.0,0.0,0.0,0.0,0.0,0.0,0.0,0.0,0.0,0.0,0.0,0.0,0.0,0.0,0.0,0.0,0.0,0.0,0.0,0.0,0.0,0.0,0.0,0.0,0.0,0.0,0.0,0.0,0.0,0.0,0.0,0.0,0.0,0.0,0.0,0.0,0.0,0.0,0.0,4.2647,4.134,3.9647,0.0,0.0,0.0,0.0,0.0,0.0,0.0,0.0,0.0,0.0,0.0,0.0,0.0,0.0,0.0,0.0,0.0,0.0,0.0,0.0,0.0,0.0,0.0,0.0,0.0,0.0,0.0,0.0,0.0,0.0,0.0,0.0,0.0,0.0,0.0,0.0,0.0,0.0,0.0,0.0,0.0,0.0,0.0,0.0,0.0,0.0,0.0,0.0,0.0,0.0,0.0,0.0,0.0,0.0,0.0,0.0,0.0,0.0,0.0,0.0,0.0,0.0,0.0,0.0,0.0,0.0,0.0,0.0,0.0,0.0,0.0,0.0,0.0,0.0,0.0,0.0,0.0,0.0,0.0,0.0,0.0,0.0,0.0,0.0,0.0,0.0,0.0,0.0,0.0,0.0,0.0,0.0,0.0,0.0,0.0,0.0,0.0,0.0,0.0,0.0,0.0,0.0,0.0,0.0,0.0,0.0,0.0,0.0,0.0,0.0,4.2915,4.4142,4.3101,0.0,3.9123,0.0,0.0,0.0,0.0,0.0,0.0,0.0,0.0,0.0,0.0,0.0,0.0,0.0,0.0,0.0,0.0,0.0,0.0,0.0,0.0,0.0,0.0,0.0,0.0,0.0,0.0,0.0,0.0,0.0,0.0,0.0,0.0,0.0,0.0,0.0,0.0,0.0,0.0,0.0,0.0,0.0,0.0,0.0,0.0,0.0,0.0,0.0,0.0,0.0,0.0,0.0,0.0,0.0,0.0,0.0,0.0,0.0,0.0,0.0,0.0,0.0,0.0,0.0,0.0,0.0,0.0,0.0,0.0,0.0,0.0,0.0,0.0,0.0,0.0,0.0,0.0,0.0,0.0,0.0,0.0,0.0,0.0,0.0,0.0,0.0,0.0,0.0,0.0,0.0,0.0,0.0,0.0,0.0,0.0,0.0,0.0,0.0,0.0,0.0,0.0,0.0,0.0,0.0,0.0,0.0,0.0,0.0,0.0,0.0,0.0,4.2405,4.327,4.211,4.0156,0.0,0.0,0.0,0.0,0.0,0.0,0.0,0.0,0.0,0.0,0.0,0.0,0.0,0.0,0.0,0.0,0.0,0.0,0.0,0.0,0.0,0.0,0.0,0.0,0.0,0.0,0.0,0.0,0.0,0.0,0.0,0.0,0.0,0.0,0.0,0.0,0.0,0.0,0.0,0.0,0.0,0.0,0.0,0.0,0.0,0.0,0.0,0.0,0.0,0.0,0.0,0.0,0.0,0.0,0.0,0.0,0.0,0.0,0.0,0.0,0.0,0.0,0.0,0.0,0.0,0.0,0.0,0.0,0.0,0.0,0.0,0.0,0.0,0.0,0.0,0.0,0.0,0.0,0.0,0.0,0.0,0.0,0.0,0.0,0.0,0.0,0.0,0.0,0.0,0.0,0.0,0.0,0.0,0.0,0.0,0.0,0.0,0.0,0.0,0.0,0.0,0.0,0.0,0.0,0.0,0.0,0.0,0.0,0.0,0.0,4.1092,4.2133,4.2523,4.0856,3.8888,3.6712,0.0,0.0,0.0,0.0,0.0,0.0,0.0,0.0,0.0,0.0,0.0,0.0,0.0,0.0,0.0,0.0,0.0,0.0,0.0,0.0,0.0,0.0,0.0,0.0,0.0,0.0,0.0,0.0,0.0,0.0,0.0,0.0,0.0,0.0,0.0,0.0,0.0,0.0,0.0,0.0,0.0,0.0,0.0,0.0,0.0,0.0,0.0,0.0,0.0,0.0,0.0,0.0,0.0,0.0,0.0,0.0,0.0,0.0,0.0,0.0,0.0,0.0,0.0,0.0,0.0,0.0,0.0,0.0,0.0,0.0,0.0,0.0,0.0,0.0,0.0,0.0,0.0,0.0,0.0,0.0,0.0,0.0,0.0,0.0,0.0,0.0,0.0,0.0,0.0,0.0,0.0,0.0,0.0,0.0,0.0,0.0,0.0,0.0,0.0,0.0,0.0,0.0,0.0,0.0,0.0,0.0,0.0,0.0,4.1281,4.1631,4.2114,4.2661,3.9653,3.7836,0.0,0.0,0.0,0.0,0.0,0.0,0.0,0.0,0.0,0.0,0.0,0.0,0.0,0.0,0.0,0.0,0.0,0.0,0.0,0.0,0.0,0.0,0.0,0.0,0.0,0.0,0.0,0.0,0.0,0.0,0.0,0.0,0.0,0.0,0.0,0.0,0.0,0.0,0.0,0.0,0.0,0.0,0.0,0.0,0.0,0.0,0.0,0.0,0.0,0.0,0.0,0.0,0.0,0.0,0.0,0.0,0.0,0.0,0.0,0.0,0.0,0.0,0.0,0.0,0.0,0.0,0.0,0.0,0.0,0.0,0.0,0.0,0.0,0.0,0.0,0.0,0.0,0.0,0.0,0.0,0.0,0.0,0.0,0.0,0.0,0.0,0.0,0.0,0.0,0.0,0.0,0.0,0.0,0.0,0.0,0.0,0.0,0.0,0.0,0.0,0.0,0.0,0.0,0.0,0.0,0.0,0.0,0.0,0.0,3.8277,3.9792,4.0702,4.0945,3.9249,3.7709,0.0,0.0,0.0,0.0,0.0,0.0,0.0,0.0,0.0,0.0,0.0,0.0,0.0,0.0,0.0,0.0,0.0,0.0,0.0,0.0,0.0,0.0,0.0,0.0,0.0,0.0,0.0,0.0,0.0,0.0,0.0,0.0,0.0,0.0,0.0,0.0,0.0,0.0,0.0,0.0,0.0,0.0,0.0,0.0,0.0,0.0,0.0,0.0,0.0,0.0,0.0,0.0,0.0,0.0,0.0,0.0,0.0,0.0,0.0,0.0,0.0,0.0,0.0,0.0,0.0,0.0,0.0,0.0,0.0,0.0,0.0,0.0,0.0,0.0,0.0,0.0,0.0,0.0,0.0,0.0,0.0,0.0,0.0,0.0,0.0,0.0,0.0,0.0,0.0,0.0,0.0,0.0,0.0,0.0,0.0,0.0,0.0,0.0,0.0,0.0,0.0,0.0,0.0,0.0,0.0,0.0,0.0,0.0,0.0,3.7272,0.0,3.9597,3.9881,3.8616,3.7116,0.0,0.0,0.0,0.0,0.0,0.0,0.0,0.0,0.0,0.0,0.0,0.0,0.0,0.0,0.0,0.0,0.0,0.0,0.0,0.0,0.0,0.0,0.0,0.0,0.0,0.0,0.0,0.0,0.0,0.0,0.0,0.0,0.0,0.0,0.0,0.0,0.0,0.0,0.0,0.0,0.0,0.0,0.0,0.0,0.0,0.0,0.0,0.0,0.0,0.0,0.0,0.0,0.0,0.0,0.0,0.0,0.0,0.0,0.0,0.0,0.0,0.0,0.0,0.0,0.0,0.0,0.0,0.0,0.0,0.0,0.0,0.0,0.0,0.0,0.0,0.0,0.0,0.0,0.0,0.0,0.0,0.0,0.0,0.0,0.0,0.0,0.0,0.0,0.0,0.0,0.0,0.0,0.0,0.0,0.0,0.0,0.0,0.0,0.0,0.0,0.0,0.0,0.0,0.0,0.0,0.0,0.0,0.0,3.5079,3.8686,3.8599,3.8903,3.9705,3.7613,3.5948,0.0,0.0,0.0,0.0,0.0,0.0,0.0,0.0,0.0,0.0,0.0,0.0,0.0,0.0,0.0,0.0,0.0,0.0,0.0,0.0,0.0,0.0,0.0,0.0,0.0,0.0,0.0,0.0,0.0,0.0,0.0,0.0,0.0,0.0,0.0,0.0,0.0,0.0,0.0,0.0,0.0,0.0,0.0,0.0,0.0,0.0,0.0,0.0,0.0,0.0,0.0,0.0,0.0,0.0,0.0,0.0,0.0,0.0,0.0,0.0,0.0,0.0,0.0,0.0,0.0,0.0,0.0,0.0,0.0,0.0,0.0,0.0,0.0,0.0,0.0,0.0,0.0,0.0,0.0,0.0,0.0,0.0,0.0,0.0,0.0,0.0,0.0,0.0,0.0,0.0,0.0,0.0,0.0,0.0,0.0,0.0,0.0,0.0,0.0,0.0,0.0,0.0,0.0,0.0,0.0,0.0,0.0,0.0,0.0,3.539,3.6818,3.8017,3.8926,3.7177,3.6271,0.0,0.0,0.0,0.0,0.0,0.0,0.0,0.0,0.0,0.0,0.0,0.0,0.0,0.0,0.0,0.0,0.0,0.0,0.0,0.0,0.0,0.0,0.0,0.0,0.0,0.0,0.0,0.0,0.0,0.0,0.0,0.0,0.0,0.0,0.0,0.0,0.0,0.0,0.0,0.0,0.0,0.0,0.0,0.0,0.0,0.0,0.0,0.0,0.0,0.0,0.0,0.0,0.0,0.0,0.0,0.0,0.0,0.0,0.0,0.0,0.0,0.0,0.0,0.0,0.0,0.0,0.0,0.0,0.0,0.0,0.0,0.0,0.0,0.0,0.0,0.0,0.0,0.0,0.0,0.0,0.0,0.0,0.0,0.0,0.0,0.0,0.0,0.0,0.0,0.0,0.0,0.0,0.0,0.0,0.0,0.0,0.0,0.0,0.0,0.0,0.0,0.0,0.0,0.0,0.0,0.0,0.0,0.0,0.0,3.4363,3.6357,3.7825,3.8637,3.7653,3.6941,3.6645,0.0,0.0,0.0,0.0,0.0,0.0,0.0,0.0,0.0,0.0,0.0,0.0,0.0,0.0,0.0,0.0,0.0,0.0,0.0,0.0,0.0,0.0,0.0,0.0,0.0,0.0,0.0,0.0,0.0,0.0,0.0,0.0,0.0,0.0,0.0,0.0,0.0,0.0,0.0,0.0,0.0,0.0,0.0,0.0,0.0,0.0,0.0,0.0,0.0,0.0,0.0,0.0,0.0,0.0,0.0,0.0,0.0,0.0,0.0,0.0,0.0,0.0,0.0,0.0,0.0,0.0,0.0,0.0,0.0,0.0,0.0,0.0,0.0,0.0,0.0,0.0,0.0,0.0,0.0,0.0,0.0,0.0,0.0,0.0,0.0,0.0,0.0,0.0,0.0,0.0,0.0,0.0,0.0,0.0,0.0,0.0,0.0,0.0,0.0,0.0,0.0,0.0,0.0,0.0,0.0,0.0,0.0,0.0,3.5342,3.7209,3.8451,3.8852,3.8736,3.7931,0.0,0.0,0.0,0.0,0.0,0.0,0.0,0.0,0.0,0.0,0.0,0.0,0.0,0.0,0.0,0.0,0.0,0.0,0.0,0.0,0.0,0.0,0.0,0.0,0.0,0.0,0.0,0.0,0.0,0.0,0.0,0.0,0.0,0.0,0.0,0.0,0.0,0.0,0.0,0.0,0.0,0.0,0.0,0.0,0.0,0.0,0.0,0.0,0.0,0.0,0.0,0.0,0.0,0.0,0.0,0.0,0.0,0.0,0.0,0.0,0.0,0.0,0.0,0.0,0.0,0.0,0.0,0.0,0.0,0.0,0.0,0.0,0.0,0.0,0.0,0.0,0.0,0.0,0.0,0.0,0.0,0.0,0.0,0.0,0.0,0.0,0.0,0.0,0.0,0.0,0.0,0.0,0.0,0.0,0.0,0.0,0.0,0.0,0.0,0.0,0.0,0.0,0.0,0.0,0.0,0.0,0.0,0.0,0.0,3.722,3.9871,4.1286,4.1285,3.9637,3.8697,0.0,0.0,0.0,0.0,0.0,0.0,0.0,0.0,0.0,0.0,0.0,0.0,0.0,0.0,0.0,0.0,0.0,0.0,0.0,0.0,0.0,0.0,0.0,0.0,0.0,0.0,0.0,0.0,0.0,0.0,0.0,0.0,0.0,0.0,0.0,0.0,0.0,0.0,0.0,0.0,0.0,0.0,0.0,0.0,0.0,0.0,0.0,0.0,0.0,0.0,0.0,0.0,0.0,0.0,0.0,0.0,0.0,0.0,0.0,0.0,0.0,0.0,0.0,0.0,0.0,0.0,0.0,0.0,0.0,0.0,0.0,0.0,0.0,0.0,0.0,0.0,0.0,0.0,0.0,0.0,0.0,0.0,0.0,0.0,0.0,0.0,0.0,0.0,0.0,0.0,0.0,0.0,0.0,0.0,0.0,0.0,0.0,0.0,0.0,0.0,0.0,0.0,0.0,0.0,0.0,0.0,0.0,0.0,3.6237,3.8269,4.1342,4.3184,4.3738,4.1536,4.0066,0.0,0.0,0.0,0.0,0.0,0.0,0.0,0.0,0.0,0.0,0.0,0.0,0.0,0.0,0.0,0.0,0.0,0.0,0.0,0.0,0.0,0.0,0.0,0.0,0.0,0.0,0.0,0.0,0.0,0.0,0.0,0.0,0.0,0.0,0.0,0.0,0.0,0.0,0.0,0.0,0.0,0.0,0.0,0.0,0.0,0.0,0.0,0.0,0.0,0.0,0.0,0.0,0.0,0.0,0.0,0.0,0.0,0.0,0.0,0.0,0.0,0.0,0.0,0.0,0.0,0.0,0.0,0.0,0.0,0.0,0.0,0.0,0.0,0.0,0.0,0.0,0.0,0.0,0.0,0.0,0.0,0.0,0.0,0.0,0.0,0.0,0.0,0.0,0.0,0.0,0.0,0.0,0.0,0.0,0.0,0.0,0.0,0.0,0.0,0.0,0.0,0.0,0.0,0.0,0.0,0.0,0.0,0.0,3.6758,3.8786,4.2081,4.4366,4.5566,4.3526,4.1617,0.0,0.0,0.0,0.0,0.0,0.0,0.0,0.0,0.0,0.0,0.0,0.0,0.0,0.0,0.0,0.0,0.0,0.0,0.0,0.0,0.0,0.0,0.0,0.0,0.0,0.0,0.0,0.0,0.0,0.0,0.0,0.0,0.0,0.0,0.0,0.0,0.0,0.0,0.0,0.0,0.0,0.0,0.0,0.0,0.0,0.0,0.0,0.0,0.0,0.0,0.0,0.0,0.0,0.0,0.0,0.0,0.0,0.0,0.0,0.0,0.0,0.0,0.0,0.0,0.0,0.0,0.0,0.0,0.0,0.0,0.0,0.0,0.0,0.0,0.0,0.0,0.0,0.0,0.0,0.0,0.0,0.0,0.0,0.0,0.0,0.0,0.0,0.0,0.0,0.0,0.0,0.0,0.0,0.0,0.0,0.0,0.0,0.0,0.0,0.0,0.0,0.0,0.0,0.0,0.0,0.0,0.0,0.0,3.6925,3.8782,4.2509,4.4622,4.4938,4.2664,4.1474,0.0,0.0,0.0,0.0,0.0,0.0,0.0,0.0,0.0,0.0,0.0,0.0,0.0,0.0,0.0,0.0,0.0,0.0,0.0,0.0,0.0,0.0,0.0,0.0,0.0,0.0,0.0,0.0,0.0,0.0,0.0,0.0,0.0,0.0,0.0,0.0,0.0,0.0,0.0,0.0,0.0,0.0,0.0,0.0,0.0,0.0,0.0,0.0,3.496,0.0,0.0,0.0,0.0,0.0,0.0,0.0,0.0,0.0,0.0,0.0,0.0,0.0,0.0,0.0,0.0,0.0,0.0,0.0,0.0,0.0,0.0,0.0,0.0,0.0,0.0,0.0,0.0,0.0,0.0,0.0,0.0,0.0,0.0,0.0,0.0,0.0,0.0,0.0,0.0,0.0,0.0,0.0,0.0,0.0,0.0,0.0,0.0,0.0,0.0,0.0,0.0,0.0,0.0,0.0,0.0,0.0,0.0,0.0,3.6874,3.8882,4.1751,4.3454,4.3696,4.1453,4.0868,0.0,0.0,0.0,0.0,0.0,0.0,0.0,0.0,0.0,0.0,0.0,0.0,0.0,0.0,0.0,0.0,0.0,0.0,0.0,0.0,0.0,0.0,0.0,0.0,0.0,0.0,0.0,0.0,0.0,0.0,0.0,0.0,0.0,0.0,0.0,0.0,0.0,0.0,0.0,0.0,0.0,0.0,0.0,0.0,0.0,0.0,0.0,0.0,0.0,0.0,0.0,0.0,0.0,0.0,0.0,0.0,0.0,0.0,0.0,0.0,0.0,0.0,0.0,0.0,0.0,0.0,0.0,0.0,0.0,0.0,0.0,0.0,0.0,0.0,0.0,0.0,0.0,0.0,0.0,0.0,0.0,0.0,0.0,0.0,0.0,0.0,0.0,0.0,0.0,0.0,0.0,0.0,0.0,0.0,0.0,0.0,0.0,0.0,0.0,0.0,0.0,0.0,0.0,0.0,0.0,0.0,0.0,3.3896,3.6102,3.8044,4.0001,4.1352,4.1995,4.0387,4.0294,4.2004,0.0,0.0,0.0,0.0,0.0,0.0,0.0,0.0,0.0,0.0,0.0,0.0,0.0,0.0,0.0,0.0,0.0,0.0,0.0,0.0,0.0,0.0,0.0,0.0,0.0,0.0,0.0,0.0,0.0,0.0,0.0,0.0,0.0,0.0,0.0,0.0,0.0,0.0,3.6426,3.6505,0.0,0.0,0.0,0.0,0.0,0.0,0.0,0.0,3.4614,0.0,0.0,0.0,0.0,0.0,0.0,0.0,0.0,0.0,0.0,0.0,0.0,0.0,0.0,0.0,0.0,0.0,0.0,0.0,0.0,0.0,0.0,0.0,0.0,0.0,0.0,0.0,0.0,0.0,0.0,0.0,0.0,0.0,0.0,0.0,0.0,0.0,0.0,0.0,0.0,0.0,0.0,0.0,0.0,0.0,0.0,0.0,0.0,0.0,0.0,0.0,0.0,0.0,0.0,0.0,0.0,2.8109,3.1166,3.3164,3.3916,3.6587,3.8211,3.8559,4.0301,4.0891,3.9993,0.0,0.0,0.0,0.0,0.0,0.0,0.0,0.0,0.0,0.0,0.0,0.0,0.0,0.0,0.0,0.0,0.0,0.0,0.0,0.0,0.0,0.0,0.0,0.0,0.0,0.0,0.0,0.0,0.0,0.0,0.0,0.0,0.0,0.0,0.0,0.0,0.0,0.0,0.0,3.7767,3.7575,0.0,0.0,0.0,0.0,0.0,0.0,0.0,0.0,3.2882,0.0,0.0,0.0,0.0,0.0,0.0,0.0,0.0,0.0,0.0,0.0,0.0,0.0,0.0,0.0,0.0,0.0,0.0,0.0,0.0,0.0,0.0,0.0,0.0,0.0,0.0,0.0,0.0,0.0,0.0,0.0,0.0,0.0,0.0,0.0,0.0,0.0,0.0,0.0,0.0,0.0,0.0,0.0,0.0,0.0,0.0,0.0,0.0,0.0,0.0,0.0,0.0,0.0,0.0,0.0,2.6079,2.8099,2.9584,3.0467,3.2626,3.3801,3.3871,3.5669,3.638,0.0,0.0,0.0,0.0,0.0,0.0,0.0,0.0,0.0,0.0,0.0,0.0,0.0,0.0,0.0,0.0,0.0,0.0,0.0,0.0,0.0,0.0,0.0,0.0,0.0,0.0,0.0,0.0,0.0,0.0,0.0,0.0,0.0,0.0,0.0,0.0,0.0,0.0,0.0,0.0,3.7464,3.7488,3.7545,0.0,0.0,0.0,0.0,0.0,0.0,3.3293,3.1862,0.0,0.0,0.0,0.0,0.0,0.0,0.0,0.0,0.0,0.0,0.0,0.0,0.0,0.0,0.0,0.0,0.0,0.0,0.0,0.0,0.0,0.0,0.0,0.0,0.0,0.0,0.0,0.0,0.0,0.0,0.0,0.0,0.0,0.0,0.0,0.0,0.0,0.0,0.0,0.0,0.0,0.0,0.0,0.0,0.0,0.0,0.0,0.0,0.0,0.0,0.0,0.0,0.0,0.0,0.0,2.3475,2.4345,2.5176,2.6127,2.7696,2.8557,2.8625,3.0673,3.1944,0.0,0.0,0.0,0.0,0.0,0.0,0.0,0.0,0.0,0.0,0.0,0.0,0.0,0.0,0.0,0.0,0.0,0.0,0.0,0.0,0.0,0.0,0.0,0.0,0.0,0.0,0.0,0.0,0.0,0.0,0.0,0.0,0.0,0.0,0.0,0.0,0.0,0.0,0.0,0.0,0.0,3.7278,3.6538,3.5768,0.0,0.0,0.0,0.0,3.4487,3.281,0.0,0.0,0.0,0.0,0.0,0.0,0.0,0.0,0.0,0.0,0.0,0.0,0.0,0.0,0.0,0.0,0.0,0.0,0.0,0.0,0.0,0.0,0.0,0.0,0.0,0.0,0.0,0.0,0.0,0.0,0.0,0.0,0.0,0.0,0.0,0.0,0.0,0.0,0.0,0.0,0.0,0.0,0.0,0.0,0.0,0.0,0.0,0.0,0.0,0.0,0.0,0.0,0.0,0.0,0.0,0.0,1.864,1.9074,1.9223,1.9166,2.0983,2.2182,2.2868,2.8424,3.1275,0.0,0.0,0.0,0.0,0.0,0.0,0.0,0.0,0.0,0.0,0.0,0.0,0.0,0.0,0.0,0.0,0.0,0.0,0.0,0.0,0.0,0.0,0.0,0.0,0.0,0.0,0.0,0.0,0.0,0.0,0.0,0.0,0.0,0.0,0.0,0.0,0.0,0.0,0.0,0.0,0.0,3.7839,3.7096,3.6411,3.5949,0.0,0.0,3.4919,3.5084,3.3432,0.0,0.0,0.0,0.0,0.0,0.0,0.0,0.0,0.0,0.0,0.0,0.0,0.0,0.0,0.0,0.0,0.0,0.0,0.0,0.0,0.0,0.0,0.0,0.0,0.0,0.0,0.0,0.0,0.0,0.0,0.0,0.0,0.0,0.0,0.0,0.0,0.0,0.0,0.0,0.0,0.0,0.0,0.0,0.0,0.0,0.0,0.0,0.0,0.0,0.0,0.0,0.0,0.0,0.0,0.0,1.4796,1.5499,1.2792,1.1972,1.3241,1.4049,1.5352,1.7184,2.3382,2.6812,0.0,0.0,0.0,0.0,0.0,0.0,0.0,0.0,0.0,0.0,0.0,0.0,0.0,0.0,0.0,0.0,0.0,0.0,0.0,0.0,0.0,0.0,0.0,0.0,0.0,0.0,0.0,0.0,0.0,0.0,0.0,0.0,0.0,0.0,0.0,0.0,0.0,0.0,0.0,0.0,0.0,0.0,3.5625,3.569,0.0,0.0,0.0,3.3315,3.4037,0.0,0.0,0.0,0.0,0.0,0.0,0.0,0.0,0.0,0.0,0.0,0.0,0.0,0.0,0.0,0.0,0.0,0.0,0.0,0.0,0.0,0.0,0.0,0.0,0.0,0.0,0.0,0.0,0.0,0.0,0.0,0.0,0.0,0.0,0.0,0.0,0.0,0.0,0.0,0.0,0.0,0.0,0.0,0.0,0.0,0.0,0.0,0.0,0.0,0.0,0.0,0.0,0.0,0.0,0.0,0.0,0.0,1.2437,0.7239,0.5479,0.752,0.8213,0.9662,1.2102,1.7874,0.0,0.0,0.0,0.0,0.0,0.0,0.0,0.0,0.0,0.0,0.0,0.0,0.0,0.0,0.0,0.0,0.0,0.0,0.0,0.0,0.0,0.0,0.0,0.0,0.0,0.0,0.0,3.0464,0.0,0.0,0.0,0.0,0.0,0.0,0.0,0.0,0.0,0.0,0.0,0.0,0.0,0.0,3.5268,3.4053,3.4787,3.5197,0.0,0.0,3.1694,3.1903,2.8764,2.6761,0.0,0.0,0.0,0.0,0.0,0.0,0.0,0.0,0.0,0.0,0.0,0.0,0.0,0.0,0.0,0.0,0.0,0.0,0.0,0.0,0.0,0.0,0.0,0.0,0.0,0.0,0.0,0.0,0.0,0.0,0.0,0.0,0.0,0.0,0.0,0.0,0.0,0.0,0.0,0.0,0.0,0.0,0.0,0.0,0.0,0.0,0.0,0.0,0.0,0.0,0.0,0.0,0.0,0.0,0.7694,0.8543,0.3411,0.0951,0.1658,0.4231,0.6246,0.776,1.2297,1.6727,0.0,0.0,0.0,0.0,0.0,0.0,0.0,0.0,0.0,0.0,0.0,0.0,0.0,0.0,0.0,0.0,0.0,0.0,0.0,0.0,0.0,0.0,0.0,0.0,0.0,0.0,0.0,0.0,0.0,0.0,0.0,0.0,0.0,0.0,0.0,0.0,0.0,0.0,0.0,0.0,0.0,3.3565,3.3145,3.4113,3.3882,0.0,3.1344,3.0929,2.8702,2.628,2.5297,2.7503,0.0,0.0,0.0,0.0,0.0,0.0,0.0,0.0,0.0,0.0,0.0,0.0,0.0,0.0,0.0,0.0,0.0,0.0,0.0,0.0,0.0,0.0,0.0,0.0,0.0,0.0,0.0,0.0,0.0,0.0,0.0,0.0,0.0,0.0,0.0,0.0,0.0,0.0,0.0,0.0,0.0,0.0,0.0,0.0,0.0,0.0,0.0,0.0,0.0,0.0,0.0,0.0,0.0,0.6241,0.7669,0.0172,-0.2689,-0.0538,0.0414,0.2099,0.4693,0.9356,1.3776,0.0,0.0,0.0,0.0,0.0,0.0,0.0,0.0,0.0,0.0,0.0,0.0,0.0,0.0,0.0,0.0,0.0,0.0,0.0,0.0,0.0,0.0,0.0,0.0,0.0,0.0,0.0,0.0,3.1993,3.1876,3.2783,0.0,0.0,0.0,0.0,0.0,0.0,0.0,0.0,0.0,0.0,3.1877,3.0092,3.0317,0.0,0.0,2.767,2.7736,2.943,2.7064,2.6471,3.0508,3.1202,0.0,0.0,0.0,0.0,0.0,0.0,0.0,0.0,0.0,0.0,0.0,0.0,0.0,0.0,0.0,0.0,0.0,0.0,0.0,0.0,0.0,0.0,0.0,0.0,0.0,0.0,0.0,0.0,0.0,0.0,0.0,0.0,0.0,0.0,0.0,0.0,0.0,0.0,0.0,0.0,0.0,0.0,0.0,0.0,0.0,0.0,0.0,0.0,0.0,0.0,0.0,0.0,0.5044,0.7271,-0.1847,-0.5123,-0.218,-0.1994,-0.058,0.2333,0.5905,0.9941,0.0,0.0,0.0,0.0,0.0,0.0,0.0,0.0,0.0,0.0,0.0,0.0,0.0,0.0,0.0,0.0,0.0,0.0,0.0,0.0,0.0,0.0,0.0,0.0,0.0,0.0,0.0,0.0,3.2089,3.1671,3.2858,0.0,0.0,0.0,0.0,0.0,0.0,0.0,0.0,0.0,0.0,2.9494,2.893,2.8798,2.8785,2.8643,2.7883,2.8147,3.0473,2.8567,2.7889,3.0573,0.0,0.0,0.0,0.0,0.0,0.0,0.0,0.0,0.0,0.0,0.0,0.0,0.0,0.0,0.0,0.0,0.0,0.0,0.0,0.0,0.0,0.0,0.0,0.0,0.0,0.0,0.0,0.2635,0.0,0.0,0.1058,0.0,0.0,0.0,0.0,0.0,0.0,0.0,0.0,0.0,0.0,0.0,0.0,0.0,0.0,0.0,0.0,0.0,0.0,0.0,0.0,0.0,0.0,0.3796,0.7029,-0.2197,-0.5998,-0.3785,-0.2607,-0.1216,0.0449,0.1512,0.4843,1.0896,0.0,0.0,0.0,0.0,0.0,0.0,0.0,0.0,0.0,0.0,0.0,0.0,0.0,0.0,0.0,0.0,0.0,0.0,0.0,0.0,0.0,0.0,0.0,0.0,0.0,0.0,3.4251,3.2969,3.2382,0.0,0.0,0.0,0.0,0.0,0.0,0.0,0.0,0.0,3.179,2.7727,2.6257,3.0402,3.0811,3.0811,3.163,3.2988,3.3276,3.1148,3.0448,2.9158,0.0,0.0,0.0,0.0,0.0,0.0,0.0,0.0,0.0,0.0,0.0,0.0,0.0,0.0,0.0,0.0,0.0,0.0,0.0,0.0,0.0,0.0,0.0,0.0,0.0,0.0,0.0,0.0692,0.1295,0.0,0.0,0.0,0.0,0.0,0.0,0.0,0.0,0.0,0.0,0.0,0.3182,0.3537,0.0,0.0,0.0,0.0,0.0,0.0,0.0,0.0,0.0,0.0,0.0,0.0,0.362,0.6888,-0.1961,-0.5873,-0.3882,-0.2724,-0.1663,-0.0505,0.0224,0.3545,0.978,0.0,0.0,0.0,0.0,0.0,0.0,0.0,0.0,0.0,0.0,0.0,0.0,0.0,0.0,0.0,0.0,0.0,0.0,0.0,0.0,0.0,0.0,0.0,0.0,0.0,3.2928,0.0,0.0,0.0,0.0,0.0,0.0,0.0,0.0,0.0,0.0,0.0,3.2266,3.0407,3.1093,3.1532,3.1001,3.0556,2.8901,0.0,0.0,0.0,0.0,0.0,0.0,0.0,0.0,0.0,0.0,0.0,0.0,0.0,0.0,2.471,2.7144,2.4626,2.2453,2.3601,0.0,0.0,0.0,0.0,0.0,0.0,0.0,0.0,0.0,0.0,0.0,0.0,0.0,0.0,0.1084,0.0,0.0475,0.0,0.0,0.0,0.0,0.0,0.0,0.0,0.0,0.1977,0.0912,-0.0982,-0.0401,-0.0512,0.0,-0.0168,0.3026,0.0,0.0,0.0,0.0,0.0,0.0,0.0,0.0,0.3937,0.773,-0.1602,-0.5566,-0.3211,-0.2774,-0.2167,-0.1234,0.0612,0.3971,0.8938,1.4445,1.7802,0.0,0.0,0.0,0.0,0.0,0.0,0.0,0.0,0.0,0.0,0.0,0.0,0.0,0.0,0.0,0.0,0.0,0.0,0.0,0.0,0.0,0.0,0.0,3.2074,0.0,0.0,0.0,0.0,0.0,0.0,0.0,0.0,0.0,3.0992,3.1622,3.1297,2.9272,2.9757,3.076,3.2092,0.0,0.0,0.0,0.0,0.0,0.0,0.0,3.239,3.3638,3.1626,2.823,2.3465,2.0923,1.9198,1.7887,0.0,0.0,2.2386,2.0268,1.799,1.9059,1.9208,1.9035,1.8897,1.9501,1.9589,0.0,0.0,0.0,0.0,0.0,0.0,0.0,0.0,0.1795,0.2666,0.0,0.251,0.0,0.0,0.0,0.0,0.1345,0.1538,0.0,0.0,-0.3021,-0.5253,-0.5333,-0.4487,-0.4549,-0.509,-0.0984,0.0862,0.046,0.0056,0.0,0.0,0.0,0.0,0.0,0.0,0.4623,0.8867,-0.1186,-0.502,-0.2014,-0.276,-0.2735,-0.1627,0.2414,0.5795,0.8381,1.2697,1.5619,1.6884,1.8943,0.0,0.0,0.0,0.0,0.0,0.0,0.0,0.0,0.0,0.0,0.0,0.0,0.0,0.0,0.0,0.0,0.0,0.0,0.0,0.0,3.1433,0.0,0.0,0.0,0.0,0.0,0.0,0.0,0.0,0.0,0.0,3.0195,2.9526,2.8667,2.872,0.0,0.0,0.0,0.0,2.7258,3.5748,3.7401,3.7551,3.8274,3.303,2.7129,2.2445,0.0,0.0,0.9979,1.3856,1.6696,1.6506,1.174,1.042,1.7031,1.7147,1.7036,1.8571,1.7559,1.735,1.7266,1.681,1.7385,0.4282,0.0,0.0,0.0,0.0,0.0116,0.0864,0.1881,0.2859,0.3977,0.4937,0.3379,0.0,0.0,0.0,0.0,0.0,0.0,0.1564,-0.2962,-0.2445,-0.4741,-0.946,-0.8311,-0.8371,-0.9453,-0.8181,-0.7552,-0.7443,-0.7326,-0.2403,0.7076,0.0,0.0,0.0,0.0,0.3268,0.4085,-0.2435,-0.4719,-0.1842,-0.2128,-0.1539,0.0112,0.3331,0.6108,0.8157,1.1945,1.4936,1.6829,1.7871,0.0,0.0,0.0,0.0,0.0,0.0,0.0,0.0,0.0,0.0,0.0,0.0,0.0,0.0,0.0,0.0,0.0,0.0,0.0,2.8843,2.95,2.9828,0.0,0.0,0.0,0.0,0.0,0.0,0.0,0.0,0.0,2.5112,2.9595,3.2827,0.0,0.0,3.5423,3.7654,3.132,2.5891,2.4477,2.2954,0.0,1.79,1.8824,1.9507,1.8432,1.2489,0.7774,0.7417,0.5119,0.3235,0.315,0.178,0.1422,0.3131,0.4371,0.5087,0.5459,0.5198,0.4959,0.4982,0.5201,0.5262,0.5218,0.346,0.2435,0.156,0.076,0.0875,0.1459,0.2341,0.3219,0.4183,0.5074,0.3475,0.3367,0.4272,0.357,0.0,0.0,0.0,0.0818,-0.5268,-0.2652,-0.4851,-1.0543,-0.9511,-0.9511,-1.0664,-1.0967,-1.0906,-1.0543,-0.8552,-0.3928,0.3235,0.0,0.0,0.7608,0.3174,0.156,0.2505,-0.25,-0.3945,-0.1323,-0.12,-0.034,0.1399,0.4071,0.6528,0.8723,1.1897,1.4498,1.6361,1.7229,1.7684,0.0,0.0,0.0,0.0,0.0,0.0,0.0,0.0,0.0,0.0,0.0,0.6822,0.6578,0.0,0.0,0.0,2.0352,2.3806,2.6684,2.8073,0.0,0.0,0.0,0.0,0.0,0.0,0.0,2.9064,2.4849,2.1395,2.1115,2.4984,2.7616,2.6895,2.7123,2.8184,3.0511,0.0,1.9035,1.7708,1.6554,1.4916,1.2342,1.2119,1.1424,0.8783,0.4917,0.2023,0.1793,-0.1508,-0.3881,-0.4038,-0.4283,-0.4453,-0.4453,-0.3601,-0.244,-0.1211,-0.0831,-0.068,-0.0529,-0.0453,-0.0604,0.4229,0.4276,0.4036,0.2865,0.1202,0.1054,0.1704,0.2891,0.3013,0.3698,0.464,0.3347,0.3258,0.4176,0.4398,0.0,0.1838,0.2447,-0.0354,-0.5693,-0.3595,-0.5334,-1.0119,-0.9012,-0.8952,-0.9883,-1.0482,-1.0671,-1.0172,-0.6043,-0.3521,-0.2832,-0.3123,-0.0673,0.399,0.0727,0.0227,0.2971,-0.1376,-0.268,-0.0575,-0.0057,0.084,0.2403,0.4731,0.7204,0.9823,1.2274,1.4306,1.5781,1.6999,1.7559,1.7279,0.0,0.0,0.0,0.0,0.0,0.0,0.0,0.0,0.0,0.0,0.0,0.0,0.0,0.0,0.0,2.0141,0.0,2.3717,2.6589,0.0,0.0,0.0,2.3032,2.0759,1.8489,1.7737,1.9476,0.0,0.0,1.7402,1.71,1.5924,1.3476,1.0454,1.0779,1.7188,1.241,0.9239,1.409,1.4656,1.4669,1.2844,0.8745,0.311,-0.2453,-0.494,-0.4836,-0.4793,-0.5431,-0.6166,-0.6092,-0.677,-0.7209,-0.7291,-0.6577,-0.5767,-0.267,-0.1976,-0.1671,-0.1444,-0.1445,-0.1597,0.428,0.3564,0.2549,0.2396,0.277,0.206,0.2483,0.3618,0.3653,0.4337,0.5338,0.4753,0.4344,0.4055,0.4092,0.3613,0.2754,0.2708,0.0,-0.4657,-0.373,-0.5762,-1.0179,-0.9997,-0.9937,-1.0179,-1.0611,-1.0732,-1.0604,-0.9077,-0.6791,-0.4012,-0.3293,-0.0344,0.4625,0.4491,0.3603,0.2223,0.1437,0.0519,-0.046,0.0734,0.2291,0.4185,0.6429,0.8588,1.0776,1.274,1.4457,1.6021,1.6947,1.7372,1.7279,1.6419,0.0,0.0,0.0,0.0,0.0,0.0,0.0,0.0,0.0,0.5604,0.4856,0.0,0.9794,0.0,1.8584,2.1463,2.1074,2.1726,0.0,0.0,1.988,1.9599,1.9257,1.443,1.2766,1.6847,1.3544,1.0417,0.9346,0.8719,0.667,0.2371,0.9589,1.5914,1.7157,1.0649,0.6089,0.6947,0.3183,-0.0846,-0.0693,-0.2708,-0.4502,-0.6477,-0.6792,-0.694,-0.684,-0.6778,-0.664,-0.6325,-0.6183,-0.604,-0.5727,-0.5492,-0.5245,-0.4517,-0.4665,-0.5053,-0.4976,-0.4895,-0.4898,0.2072,0.1586,0.0349,0.0351,0.1132,0.1144,0.1563,0.2266,0.2786,0.3355,0.3949,0.4116,0.3839,0.3248,0.3751,0.3824,0.3516,0.3374,0.127,-0.2341,-0.2438,-0.4451,-0.795,-0.923,-0.966,-0.9359,-1.0261,-1.0584,-1.0339,-0.9863,-0.8396,-0.6134,-0.5536,-0.2627,0.2598,0.5017,0.5821,0.5098,0.4382,0.2549,-0.0287,0.1241,0.3509,0.6148,0.8547,1.1072,1.3801,1.5095,1.6384,1.7672,1.8191,1.8628,1.9115,1.7529,1.6276,0.0,0.0,0.0,0.0,0.0,0.0,0.0,0.0,0.0,0.0,0.0,1.0371,1.305,1.691,1.8901,1.8148,1.8758,1.8252,1.6046,1.4898,1.3752,1.2248,0.803,0.6149,0.8536,0.6206,0.379,0.2129,0.1739,0.0296,-0.3319,0.2951,0.7897,0.733,0.3381,0.0532,0.0383,-0.3027,-0.5802,-0.604,-0.6431,-0.6666,-0.6744,-0.6822,-0.6978,-0.6978,-0.6822,-0.6587,-0.6353,-0.6118,-0.5883,-0.5648,-0.5414,-0.5335,-0.5335,-0.5492,-0.5648,-0.5492,-0.5492,-0.5414,-0.0761,-0.0759,-0.1929,-0.2279,-0.1929,-0.0761,-0.0117,0.0177,0.1372,0.1829,0.1775,0.2538,0.252,0.2015,0.3078,0.3692,0.3977,0.3978,0.2741,0.0457,-0.0824,-0.2685,-0.5081,-0.813,-0.9106,-0.8272,-0.9867,-1.0391,-0.9845,-0.9613,-0.8839,-0.7726,-0.7601,-0.4837,0.0439,0.4303,0.7204,0.9108,0.68,0.3848,0.0516,0.2917,0.5735,0.873,1.1076,1.3832,1.69,1.7717,1.8641,1.9635,1.9872,2.0241,2.081,1.8464,1.7032,0.0,1.4168,0.0,0.0,0.0,0.0,0.0,0.0,0.0,0.0,1.1043,1.1562,1.2696,1.5178,1.6277,1.5034,1.6207,1.5369,1.1264,0.9461,0.7165,0.3547,0.1203,-0.0357,-0.1002,-0.1518,-0.2342,-0.3395,-0.3523,-0.3926,-0.4907,-0.4178,-0.2984,-0.4044,-0.4128,-0.4447,-0.5019,-0.51,-0.5257,-0.5257,-0.557,-0.5883,-0.5886,-0.6118,-0.6271,-0.6349,-0.6349,-0.6271,-0.6196,-0.6196,-0.6118,-0.6115,-0.5805,-0.5573,-0.5573,-0.5257,-0.4865,-0.4633,-0.4554,-0.4397,-0.0801,-0.1976,-0.3162,-0.3785,-0.3841,-0.2633,-0.122,0.0176,0.134,0.1665,0.1409,0.1572,0.129,0.0784,0.1009,0.2183,0.3968,0.3535,0.2822,0.1877,-0.11,-0.3335,-0.5112,-0.913,-1.0266,-0.889,-1.0055,-1.0504,-1.0185,-0.9896,-0.7875,-0.4368,-0.3844,-0.106,0.3717,0.0,0.0,0.0,0.6746,0.5193,0.5108,1.0093,1.3037,1.3629,1.4356,0.0,1.6202,1.7127,1.8318,1.9714,2.045,0.0,0.0,0.0,0.0,0.0,0.0,0.0,0.0,0.0,0.0,0.0,0.9946,0.9975,0.9937,1.1479,1.2504,1.256,1.3692,1.3635,1.1956,1.1468,0.9771,0.6103,0.4629,0.2952,0.0426,-0.158,-0.2826,-0.2974,-0.4071,-0.4883,-0.483,-0.4881,-0.4843,-0.4923,-0.4823,-0.4636,-0.4345,-0.4617,-0.4893,-0.5011,-0.5257,-0.5495,-0.5573,-0.5883,-0.604,-0.6193,-0.6193,-0.6275,-0.6271,-0.6271,-0.6118,-0.5886,-0.5808,-0.5648,-0.5335,-0.5179,-0.5179,-0.5179,-0.4787,-0.4552,-0.4787,-0.4633,-0.4397,-0.2423,-0.3189,-0.4589,-0.5206,0.0,-0.3441,-0.2106,-0.1147,0.0574,0.1253,0.1121,0.1121,0.0561,-0.0392,0.0168,0.1454,0.3397,0.3684,0.4145,0.4508,0.0,-0.2498,-0.3444,-0.8784,-1.0641,-0.9425,-1.0039,-1.0307,-1.0062,-0.9723,-0.8351,-0.5953,-0.5442,-0.3839,-0.121,0.0,0.245,0.6135,0.4801,0.3306,0.2046,0.6189,0.9205,1.0554,1.2316,0.0,0.0,0.0,0.0,0.0,0.0,0.0,0.0,1.5088,0.0,1.203,1.0894,1.0099,0.9822,0.9742,0.9572,0.9303,0.9518,0.9893,1.0412,1.153,1.1971,1.1627,1.1601,1.0884,0.9408,0.8267,0.632,0.3273,0.1625,-0.0071,-0.2087,-0.3407,-0.4151,-0.4299,-0.4662,-0.4953,-0.4956,-0.5011,-0.496,-0.4793,-0.4612,-0.4424,-0.4282,-0.4421,-0.4647,-0.4698,-0.4868,-0.5103,-0.5335,-0.5492,-0.5645,-0.5645,-0.5645,-0.5645,-0.5645,-0.5645,-0.5567,-0.5414,-0.5335,-0.5257,-0.51,-0.5022,-0.4944,-0.4709,-0.4554,-0.4397,-0.4395,-0.4238,-0.4084,-0.4596,-0.4756,-0.6172,-0.6624,-0.627,-0.4139,-0.2908,-0.2407,0.0,0.0,0.0,0.0617,-0.0168,-0.1288,-0.0392,0.1061,0.289,0.4067,0.5635,0.721,0.188,-0.0924,-0.1803,-0.7593,-1.015,-0.9795,-1.0035,-0.9999,-0.9824,-0.9596,-0.9154,-0.854,-0.8208,-0.7765,-0.716,-0.6181,-0.3457,0.0783,0.2315,0.1553,-0.1313,0.179,0.468,0.704,0.9622,1.2018,1.4213,1.4499,1.4894,1.5565,1.4883,1.4451,1.4294,1.2632,1.1414,1.0971,0.9906,0.9106,0.8679,0.8874,0.8767,0.8139,0.8561,0.948,1.0944,1.1018,1.0801,1.041,0.9438,0.836,0.7233,0.5769,0.382,0.1208,-0.0572,-0.2301,-0.4066,-0.4589,-0.4883,-0.5032,-0.4592,-0.4299,-0.4665,-0.4779,-0.4722,-0.4611,-0.4341,-0.4149,-0.4022,-0.41,-0.4176,-0.4291,-0.4307,-0.4476,-0.4709,-0.4865,-0.4865,-0.4944,-0.5022,-0.5022,-0.5022,-0.5022,-0.5022,-0.5022,-0.5022,-0.5022,-0.5022,-0.5022,-0.4865,-0.4476,-0.4319,-0.4162,-0.3768,-0.3532,-0.3454,-0.7051,-0.7154,-0.8102,-0.7921,-0.6988,-0.5592,-0.386,-0.1791,0.0056,0.0731,0.0393,-0.056,-0.1232,-0.1735,-0.1567,0.0335,0.3442,0.4457,0.619,0.8423,0.4289,0.1194,-0.1027,-0.5435,-0.8319,-0.9568,-1.0039,-1.0114,-0.9816,-0.9761,-0.932,-0.8595,-0.8429,-0.8042,-0.721,-0.6507,-0.5837,-0.4979,0.0552,0.3276,0.3052,0.7906,1.0623,1.0966,1.0782,1.1089,1.161,1.1935,1.2469,1.3019,1.3393,1.2316,0.9471,0.8948,0.7529,0.4754,0.5166,0.5695,0.5982,0.6699,0.7363,0.7627,0.7734,0.8437,1.0012,0.9653,0.9274,0.9057,0.7872,0.6576,0.5325,0.3878,0.1754,-0.1282,-0.2307,-0.3415,-0.5241,-0.5247,-0.5032,-0.481,-0.4665,-0.4665,-0.474,-0.4749,-0.4606,-0.4304,-0.4092,-0.3889,-0.3417,-0.3491,-0.3773,-0.3792,-0.3821,-0.3922,-0.4081,-0.4241,-0.4476,-0.4476,-0.4787,-0.4944,-0.5022,-0.5022,-0.5022,-0.5022,-0.5022,-0.5022,-0.5022,-0.5022,-0.4787,-0.4476,-0.4162,-0.3768,-0.3297,-0.2669,-0.2278,-0.9064,-0.9196,-0.8966,-0.8598,-0.7925,-0.5477,-0.3413,-0.1679,-0.0224,-0.0056,-0.0784,-0.1344,-0.2351,-0.358,-0.2407,-0.0167,0.2713,0.4557,0.6745,0.8761,0.5122,0.1697,-0.1303,-0.4832,-0.7873,-1.0216,-0.9946,-0.9816,-0.9816,-0.9816,-0.943,-0.8768,-0.8595,-0.8152,-0.7438,-0.6993,-0.6715,-0.6437,-0.3112,-0.1169,-0.0841,0.2306,0.4134,0.4416,0.4998,0.5499,0.5732,0.6198,0.6523,0.679,0.6548,0.5821,0.4465,0.4104,0.3488,0.2433,0.3146,0.393,0.4653,0.5602,0.6246,0.6384,0.6403,0.6755,0.7564,0.7752,0.7642,0.715,0.6062,0.4885,0.353,0.1826,-0.0071,-0.2377,-0.3194,-0.4078,-0.5174,-0.5174,-0.4959,-0.4959,-0.4959,-0.4959,-0.4959,-0.481,-0.4519,-0.4153,-0.3789,-0.3289,-0.272,-0.2839,-0.3117,-0.3308,-0.3411,-0.3508,-0.3762,-0.3925,-0.4162,-0.4319,-0.4554,-0.4709,-0.4944,-0.5022,-0.5022,-0.5022,-0.5022,-0.5022,-0.5022,-0.5022,-0.4709,-0.416,-0.3925,-0.3532,-0.2669,-0.1649,-0.1021,-1.1279,-1.1139,-0.9906,-0.9058,-0.8257,-0.5306,-0.3469,-0.2519,-0.1344,-0.1512,-0.2519,-0.2351,-0.3245,-0.47,-0.3022,-0.0613,0.2269,0.472,0.7127,0.8989,0.6116,0.2592,-0.1018,-0.4026,-0.7217,-1.0081,-0.9843,-0.9651,-0.9816,-0.9816,-0.9485,-0.8933,-0.865,-0.8263,-0.7826,-0.7438,-0.7154,-0.6882,-0.6098,-0.5493,-0.5013,-0.3645,-0.2576,-0.1968,-0.051,0.0285,0.04,0.0924,0.1106,0.0935,0.0468,0.0235,0.0294,0.0118,0.0294,0.0884,0.1688,0.2732,0.3838,0.4724,0.5161,0.5008,0.4959,0.4969,0.5168,0.5504,0.569,0.5321,0.447,0.3245,0.1895,0.0,-0.1723,-0.3052,-0.4005,-0.4735,-0.532,-0.5174,-0.5029,-0.532,-0.532,-0.532,-0.5247,-0.5101,-0.4738,-0.4153,-0.336,-0.2709,-0.2493,-0.2517,-0.2711,-0.3062,-0.3087,-0.3103,-0.3447,-0.3689,-0.3925,-0.4241,-0.4476,-0.4709,-0.4944,-0.5022,-0.5022,-0.5022,-0.5022,-0.5022,-0.5022,-0.5022,-0.4709,-0.4081,-0.3846,-0.3297,-0.1885,-0.0707,0.0157,-1.4162,-1.2877,-1.1458,-0.9426,-0.7376,-0.5871,-0.5146,-0.4868,-0.3748,-0.3916,-0.4808,-0.3916,-0.3525,-0.3748,-0.3525,-0.0947,0.3329,0.506,0.7238,0.9368,0.8029,0.4987,0.0735,-0.2129,-0.5338,-0.8702,-0.9772,-1.0036,-0.9816,-0.9816,-0.9485,-0.8933,-0.865,-0.8484,-0.8318,-0.7826,-0.7549,-0.7493,-0.6882,-0.62,-0.5427,-0.417,-0.3267,-0.2744,-0.1977,-0.175,-0.2117,-0.1547,-0.1502,-0.2047,-0.141,-0.136,-0.2034,-0.1364,-0.1126,-0.15,0.0,0.1653,0.3176,0.373,0.3905,0.3701,0.3379,0.3297,0.3345,0.2929,0.3173,0.3818,0.3082,0.1806,0.071,-0.1427,-0.309,-0.3925,-0.4953,-0.5825,-0.6047,-0.5901,-0.5752,-0.5752,-0.5756,-0.5756,-0.5756,-0.561,-0.5174,-0.4163,-0.3239,-0.2741,-0.2896,-0.2995,-0.3109,-0.3377,-0.3084,-0.2714,-0.2819,-0.3299,-0.3768,-0.3925,-0.4473,-0.4865,-0.4944,-0.5022,-0.5022,-0.5022,-0.5022,-0.5022,-0.5022,-0.4944,-0.4709,-0.4003,-0.3611,-0.314,-0.1256,-0.0079,0.0707,-1.5455,-1.4888,-1.2745,-1.0406,-0.8202,-0.6916,-0.6028,-0.5314,-0.4139,-0.425,-0.5146,-0.4139,-0.3971,-0.4589,-0.3916,-0.0947,0.3553,0.5115,0.7182,0.9313,0.8023,0.5071,0.1005,-0.184,-0.5027,-0.8437,-0.9562,-1.0036,-1.0036,-0.9761,-0.932,-0.894,-0.8768,-0.865,-0.8484,-0.8263,-0.8048,-0.7826,-0.7438,-0.7075,-0.6659,-0.5558,-0.4882,-0.4859,-0.4515,-0.4501,-0.477,-0.4552,-0.4438,-0.4527,-0.4171,-0.3941,-0.3966,-0.3156,-0.2608,-0.2259,-0.0486,0.1087,0.2108,0.2511,0.2489,0.2016,0.1868,0.1833,0.1845,0.1076,0.0891,0.1454,0.0972,-0.007,-0.1496,-0.3233,-0.4488,-0.5093,-0.5756,-0.6119,-0.6047,-0.5898,-0.5898,-0.6119,-0.6192,-0.6119,-0.6047,-0.5538,-0.4825,-0.3974,-0.3337,-0.3205,-0.3377,-0.3472,-0.3499,-0.3611,-0.3392,-0.3256,-0.3288,-0.3532,-0.3846,-0.4162,-0.4397,-0.4711,-0.4944,-0.5022,-0.5022,-0.5022,-0.5022,-0.5022,-0.5022,-0.4787,-0.4476,-0.3768,-0.2669,-0.1885,-0.0471,0.0393,0.1335,-1.6722,-1.6145,-1.3546,-1.1055,-0.8865,-0.7968,-0.6972,-0.5871,-0.492,-0.5087,-0.5759,-0.4975,-0.4864,-0.5146,-0.3804,-0.0501,0.3778,0.5151,0.6879,0.8803,0.7546,0.4757,0.0999,-0.2112,-0.5067,-0.7919,-0.9423,-1.0091,-1.0091,-0.9651,-0.9217,-0.894,-0.894,-0.8823,-0.8595,-0.854,-0.8374,-0.8097,-0.7881,-0.7715,-0.761,-0.6771,-0.6376,-0.6502,-0.6493,-0.6662,-0.7051,-0.6695,-0.6499,-0.6464,-0.5916,-0.5364,-0.481,-0.413,-0.3391,-0.2404,-0.0924,0.0184,0.0728,0.0994,0.0885,0.0318,0.026,0.0265,0.0133,-0.0543,-0.0968,-0.0984,-0.1548,-0.2477,-0.3154,-0.4632,-0.5604,-0.597,-0.641,-0.6555,-0.6188,-0.6119,-0.6264,-0.6482,-0.6555,-0.6494,-0.6294,-0.557,-0.4711,-0.4173,-0.3748,-0.3763,-0.3873,-0.3892,-0.3916,-0.4022,-0.4028,-0.3966,-0.384,-0.3925,-0.4084,-0.4319,-0.4476,-0.4709,-0.4944,-0.5022,-0.5022,-0.5022,-0.5022,-0.4944,-0.4787,-0.4476,-0.4084,-0.3376,-0.2356,-0.1021,-0.0079,0.0785,0.173,-1.8419,-1.6762,-1.3756,-1.1156,-0.892,-0.8865,-0.8146,-0.6988,-0.6932,-0.7043,-0.7043,-0.6877,-0.6376,-0.5258,-0.3134,0.0669,0.4723,0.5045,0.6314,0.8225,0.6806,0.4337,0.1114,-0.2616,-0.5409,-0.7382,-0.9533,-1.0366,-0.9871,-0.9541,-0.9217,-0.894,-0.894,-0.8878,-0.8823,-0.865,-0.8484,-0.8429,-0.8152,-0.7992,-0.7992,-0.766,-0.7382,-0.7287,-0.7285,-0.764,-0.8154,-0.7342,-0.7095,-0.7744,-0.6035,-0.4872,-0.4438,-0.3887,-0.3083,-0.2157,-0.1665,-0.1233,-0.0925,-0.0876,-0.1079,-0.1416,-0.1504,-0.1533,-0.1498,-0.1989,-0.2362,-0.2774,-0.3992,-0.4663,-0.4348,-0.5522,-0.633,-0.6475,-0.7059,-0.7204,-0.6918,-0.6845,-0.6918,-0.6918,-0.6926,-0.6743,-0.6515,-0.5783,-0.5149,-0.468,-0.4123,-0.3923,-0.4239,-0.4354,-0.4532,-0.4771,-0.4776,-0.4625,-0.4081,-0.416,-0.4397,-0.4476,-0.4709,-0.4944,-0.4944,-0.5022,-0.5022,-0.4944,-0.4944,-0.4787,-0.4554,-0.4162,-0.3613,-0.2906,-0.1885,-0.0785,0.0393,0.0943,0.1813,-1.809,-1.6018,-1.4838,-1.2733,-1.0123,-1.0069,-0.8975,-0.7265,-0.721,-0.721,-0.7043,-0.6427,-0.5819,-0.5318,-0.3692,-0.0334,0.3944,0.3755,0.517,0.7635,0.6005,0.3584,0.0769,-0.3102,-0.5746,-0.7271,-0.9533,-1.0476,-1.0147,-0.9816,-0.9541,-0.9217,-0.8995,-0.894,-0.8885,-0.8823,-0.8768,-0.8712,-0.8602,-0.8602,-0.8546,-0.8497,-0.853,-0.8676,-0.8298,-0.828,-0.8742,-0.7943,-0.7646,-0.7872,-0.6346,-0.5486,-0.5302,-0.4315,-0.3453,-0.2714,-0.2342,-0.2166,-0.2312,-0.2155,-0.2316,-0.2938,-0.3047,-0.2961,-0.2943,-0.346,-0.3995,-0.4058,-0.5329,-0.6091,-0.6177,-0.6696,-0.7131,-0.7204,-0.7204,-0.7204,-0.7063,-0.699,-0.699,-0.6998,-0.7035,-0.6891,-0.6362,-0.5937,-0.5591,-0.4967,-0.4617,-0.4565,-0.4673,-0.4776,-0.4865,-0.4944,-0.5022,-0.4944,-0.4709,-0.4709,-0.4787,-0.4787,-0.4944,-0.4944,-0.5022,-0.5022,-0.5022,-0.4865,-0.4787,-0.4552,-0.4241,-0.3456,-0.2985,-0.2042,-0.1099,-0.0314,0.0864,0.1341,0.2064,-1.822,-1.6418,-1.6033,-1.4202,-1.1655,-1.1109,-0.9849,-0.8091,-0.7598,-0.7487,-0.7265,-0.6487,-0.6098,-0.5986,-0.5142,-0.1892,0.2656,0.2637,0.4307,0.7234,0.5196,0.2682,-0.0055,-0.3484,-0.5973,-0.7543,-0.9644,-1.0586,-1.0312,-1.0091,-0.9761,-0.9382,-0.9161,-0.8995,-0.894,-0.894,-0.894,-0.894,-0.894,-0.8885,-0.894,-0.9043,-0.9217,-0.9391,-0.9167,-0.9098,-0.9287,-0.8552,-0.8177,-0.7933,-0.6893,-0.6101,-0.5671,-0.4684,-0.3884,-0.3453,-0.333,-0.3351,-0.3527,-0.3513,-0.3694,-0.4213,-0.4359,-0.4224,-0.4144,-0.4829,-0.5103,-0.5382,-0.608,-0.7063,-0.7204,-0.7421,-0.7566,-0.7566,-0.7208,-0.699,-0.699,-0.699,-0.7003,-0.7043,-0.7117,-0.6829,-0.6301,-0.6163,-0.5743,-0.5034,-0.4887,-0.4981,-0.5011,-0.5179,-0.5179,-0.5257,-0.5414,-0.5257,-0.51,-0.5022,-0.5022,-0.5022,-0.4944,-0.5022,-0.4944,-0.4944,-0.4865,-0.4787,-0.4552,-0.4241,-0.3691,-0.2906,-0.2043,-0.1099,-0.055,0.0079,0.0948,0.167,0.2244,-1.8968,-1.7818,-1.7081,-1.5316,-1.3068,-1.1873,-1.0781,-0.9526,-0.8429,-0.7937,-0.7826,-0.7604,-0.7382,-0.7438,-0.7043,-0.383,0.1046,0.1672,0.3645,0.6716,0.4461,0.1831,-0.0871,-0.3598,-0.6079,-0.8085,-0.9856,-1.0531,-1.0312,-1.0257,-0.9981,-0.9541,-0.943,-0.9265,-0.894,-0.8995,-0.894,-0.8995,-0.8995,-0.8995,-0.8954,-0.9342,-0.9483,-0.9369,-0.9734,-1.0013,-1.0021,-0.9204,-0.8604,-0.8294,-0.7439,-0.646,-0.5544,-0.4807,-0.4438,-0.4441,-0.4687,-0.4726,-0.4668,-0.4993,-0.5199,-0.5412,-0.5474,-0.5581,-0.5514,-0.5662,-0.6019,-0.6593,-0.6906,-0.7131,-0.7494,-0.7566,-0.7566,-0.7566,-0.7204,-0.699,-0.699,-0.6994,-0.7027,-0.7121,-0.7215,-0.6918,-0.6371,-0.6089,-0.5807,-0.5228,-0.5011,-0.5011,-0.5019,-0.5257,-0.5573,-0.5651,-0.5727,-0.5648,-0.5492,-0.5335,-0.5257,-0.5179,-0.5022,-0.5022,-0.4865,-0.4865,-0.463,-0.4473,-0.4005,-0.3691,-0.2905,-0.2121,-0.1335,-0.055,-0.0079,0.0552,0.1271,0.1922,0.2189,-1.9849,-1.8042,-1.7713,-1.5956,-1.3285,-1.2037,-1.0828,-0.9739,-0.854,-0.7992,-0.7992,-0.7937,-0.7881,-0.7881,-0.7709,-0.4609,0.0552,0.0325,0.2413,0.5901,0.4191,0.1631,-0.081,-0.3419,-0.6135,-0.8748,-1.0139,-1.0633,-1.0531,-1.0421,-1.0147,-1.0036,-0.9761,-0.9651,-0.9485,-0.9541,-0.9541,-0.9541,-0.9541,-0.943,-0.9341,-0.9693,-0.988,-0.9723,-0.9973,-1.013,-1.0169,-0.9316,-0.8793,-0.8726,-0.775,-0.6771,-0.5912,-0.536,-0.5114,-0.5118,-0.5291,-0.5608,-0.6073,-0.6412,-0.6701,-0.6872,-0.7134,-0.6966,-0.6504,-0.6665,-0.6896,-0.7046,-0.7204,-0.7494,-0.7566,-0.7566,-0.7494,-0.7208,-0.7063,-0.699,-0.7007,-0.7052,-0.7154,-0.7276,-0.7333,-0.7003,-0.6449,-0.6237,-0.5932,-0.517,-0.5022,-0.5022,-0.5022,-0.5179,-0.5179,-0.5257,-0.5492,-0.5727,-0.5414,-0.5181,-0.51,-0.4944,-0.4865,-0.4865,-0.4709,-0.4552,-0.4395,-0.3925,-0.3534,-0.2906,-0.2121,-0.1413,-0.0628,0.0079,0.0712,0.1193,0.1759,0.2101,0.2373,-2.021,-1.8461,-1.8042,-1.6564,-1.4309,-1.3068,-1.2191,-1.1428,-1.0178,-0.9636,-0.9629,-0.9519,-0.9251,-0.8865,-0.8706,-0.5214,-0.0111,-0.0604,0.1897,0.5959,0.4233,0.1847,-0.0377,-0.3419,-0.6084,-0.8472,-0.9754,-1.0421,-1.0688,-1.0531,-1.0359,-1.0257,-1.0091,-0.9926,-0.9816,-0.9816,-0.9816,-0.9816,-0.9713,-0.957,-0.9594,-0.9949,-1.0054,-0.9872,-1.0139,-1.0261,-1.0119,-0.9457,-0.9153,-0.8909,-0.8116,-0.7261,-0.653,-0.6162,-0.599,-0.6027,-0.6268,-0.6602,-0.7121,-0.7512,-0.7756,-0.7833,-0.8088,-0.7853,-0.7253,-0.7353,-0.7513,-0.7336,-0.7421,-0.7566,-0.7566,-0.7421,-0.7276,-0.7063,-0.699,-0.7007,-0.7043,-0.715,-0.7256,-0.7362,-0.7415,-0.7077,-0.6492,-0.6271,-0.5958,-0.5257,-0.5022,-0.5022,-0.5022,-0.5179,-0.5179,-0.5257,-0.5492,-0.5495,-0.5181,-0.5103,-0.5025,-0.4787,-0.4552,-0.4554,-0.4554,-0.4238,-0.4003,-0.3299,-0.2828,-0.2042,-0.1256,-0.0707,0.0,0.0632,0.1353,0.1686,0.2102,0.2368,0.2478,-2.0261,-1.9176,-1.8094,-1.7107,-1.6057,-1.4708,-1.4159,-1.4202,-1.2896,-1.2191,-1.2136,-1.181,-1.1265,-1.0398,-0.9936,-0.6184,-0.0884,-0.0441,0.1977,0.5268,0.4694,0.263,0.0327,-0.3163,-0.581,-0.7526,-0.8816,-0.9871,-1.0633,-1.0696,-1.0586,-1.0366,-1.0312,-1.0202,-0.9981,-0.9871,-0.9926,-0.9926,-0.9706,-0.9606,-0.9694,-1.0067,-1.0128,-0.9762,-1.0307,-1.0453,-0.9997,-0.9883,-0.97,-0.9275,-0.8421,-0.775,-0.7388,-0.7082,-0.7002,-0.7089,-0.7483,-0.7737,-0.8021,-0.8426,-0.859,-0.8392,-0.8512,-0.8159,-0.762,-0.7778,-0.7914,-0.7566,-0.7566,-0.7566,-0.7566,-0.7276,-0.7067,-0.6998,-0.7015,-0.7047,-0.7141,-0.7288,-0.737,-0.7407,-0.7395,-0.7213,-0.6509,-0.6349,-0.588,-0.5335,-0.5022,-0.5022,-0.5022,-0.5179,-0.5495,-0.5495,-0.5338,-0.5181,-0.4946,-0.4789,-0.4711,-0.4554,-0.4238,-0.4003,-0.4005,-0.3689,-0.3376,-0.2749,-0.1964,-0.1178,-0.0471,0.0,0.0631,0.1352,0.1844,0.2106,0.2289,0.2393,0.2327,-2.0621,-1.9679,-1.8617,-1.7582,-1.6524,-1.5286,-1.4857,-1.4739,-1.3652,-1.3048,-1.2778,-1.2615,-1.2398,-1.1746,-1.0642,-0.7105,-0.269,-0.1038,0.2083,0.6344,0.5978,0.3546,0.071,-0.2222,-0.4756,-0.6523,-0.8146,-0.9596,-1.0633,-1.0688,-1.0696,-1.0586,-1.0641,-1.0586,-1.0476,-1.0476,-1.0468,-1.0476,-1.0421,-1.0287,-1.0273,-1.0341,-1.0271,-1.0059,-1.0428,-1.0508,-1.0226,-1.0422,-1.0126,-0.9335,-0.8665,-0.8111,-0.7811,-0.7694,-0.7691,-0.7921,-0.827,-0.8759,-0.9299,-0.9617,-0.9613,-0.9426,-0.944,-0.9067,-0.7988,-0.8232,-0.8213,-0.7783,-0.7566,-0.7566,-0.7566,-0.7208,-0.7019,-0.7076,-0.7101,-0.7154,-0.728,-0.7358,-0.7411,-0.7476,-0.7513,-0.7209,-0.6822,-0.6431,-0.6118,-0.557,-0.5179,-0.5022,-0.5022,-0.51,-0.5257,-0.4946,-0.4789,-0.4711,-0.4633,-0.4476,-0.4397,-0.4241,-0.3846,-0.3297,-0.314,-0.2826,-0.2512,-0.2043,-0.1256,-0.0471,0.0157,0.0707,0.1347,0.1917,0.2096,0.2277,0.214,0.2078,0.1839,-2.0364,-1.9834,-1.8342,-1.7424,-1.6842,-1.6033,-1.5767,-1.5767,-1.5114,-1.462,-1.4438,-1.419,-1.3837,-1.3244,-1.2115,-0.8254,-0.3012,-0.1734,0.1853,0.6378,0.6261,0.4203,0.1463,-0.0989,-0.3276,-0.5464,-0.7199,-0.8809,-1.0249,-1.0633,-1.0907,-1.1236,-1.1236,-1.1291,-1.14,-1.1299,-1.1181,-1.1097,-1.0927,-1.0779,-1.0607,-1.0521,-1.0353,-1.0251,-1.0495,-1.0651,-1.0536,-1.0725,-1.0368,-0.964,-0.9147,-0.8781,-0.8372,-0.8357,-0.8561,-0.8815,-0.9258,-0.9786,-1.0385,-1.0664,-1.0611,-1.034,-1.0272,-0.9566,-0.8826,-0.8693,-0.8367,-0.7711,-0.7638,-0.7494,-0.7357,-0.7165,-0.7105,-0.7215,-0.7235,-0.728,-0.7382,-0.7419,-0.7468,-0.7509,-0.7447,-0.7369,-0.6982,-0.6587,-0.6118,-0.573,-0.5257,-0.51,-0.5022,-0.5022,-0.4865,-0.463,-0.4317,-0.416,-0.3925,-0.3691,-0.3534,-0.3456,-0.3062,-0.2511,-0.2356,-0.1963,-0.1728,-0.1256,-0.0471,0.0157,0.0707,0.1181,0.1746,0.2163,0.2264,0.221,0.1989,0.1753,0.1511,-1.9731,-1.9731,-1.7713,-1.7014,-1.7278,-1.7053,-1.7132,-1.7278,-1.6959,-1.6721,-1.6527,-1.6143,-1.5317,-1.4672,-1.335,-0.9593,-0.3379,-0.2993,0.0862,0.4073,0.4812,0.3262,0.1274,0.0054,-0.2146,-0.4509,-0.6028,-0.8085,-0.9919,-1.0633,-1.1236,-1.1728,-1.1946,-1.211,-1.211,-1.2064,-1.191,-1.1698,-1.1424,-1.1215,-1.0985,-1.0813,-1.0487,-1.0368,-1.0583,-1.1004,-1.1088,-1.1088,-1.0785,-1.024,-0.9997,-0.9653,-0.9191,-0.9249,-0.95,-0.9888,-1.0277,-1.0809,-1.1247,-1.1397,-1.1356,-1.1096,-1.0537,-0.996,-0.9336,-0.8868,-0.8362,-0.7638,-0.7566,-0.743,-0.7173,-0.7088,-0.7203,-0.7325,-0.7378,-0.7403,-0.7419,-0.7476,-0.7525,-0.7525,-0.7525,-0.7291,-0.6978,-0.6587,-0.6196,-0.5962,-0.5414,-0.51,-0.5022,-0.5022,-0.4709,-0.4319,-0.4003,-0.3611,-0.3219,-0.2749,-0.2592,-0.2435,-0.1963,-0.157,-0.1492,-0.1256,-0.1021,-0.055,0.0079,0.0628,0.1021,0.1579,0.1991,0.2012,0.1954,0.1898,0.1755,0.1424,0.1094,-1.9746,-1.928,-1.816,-1.7888,-1.8238,-1.8372,-1.8452,-1.8452,-1.8184,-1.7769,-1.7292,-1.66,-1.6004,-1.5507,-1.3886,-1.0671,-0.6589,-0.4954,-0.2327,0.0728,0.0989,0.0156,-0.0626,-0.0536,-0.1536,-0.4052,-0.6407,-0.8361,-0.9974,-1.1126,-1.1837,-1.2055,-1.2327,-1.2382,-1.2436,-1.2519,-1.2421,-1.2432,-1.2181,-1.2047,-1.1811,-1.1187,-1.0804,-1.0636,-1.0763,-1.1503,-1.2294,-1.2174,-1.2113,-1.2053,-1.1345,-1.0555,-1.0341,-1.0473,-1.0685,-1.0827,-1.112,-1.1592,-1.2037,-1.182,-1.1617,-1.1643,-1.0812,-0.996,-0.9357,-0.8946,-0.8367,-0.7783,-0.7566,-0.7383,-0.717,-0.7178,-0.728,-0.7382,-0.7452,-0.7488,-0.7497,-0.7509,-0.7525,-0.7525,-0.7525,-0.7447,-0.7291,-0.6666,-0.6275,-0.6118,-0.5648,-0.51,-0.5022,-0.5022,-0.463,-0.4162,-0.3925,-0.3532,-0.2905,-0.2435,-0.2042,-0.165,-0.1099,-0.055,-0.055,-0.055,-0.0314,0.0079,0.055,0.1021,0.1261,0.1507,0.1839,0.1701,0.1558,0.141,0.1255,0.1008,0.0757,-2.0052,-1.9124,-1.8318,-1.8112,-1.8289,-1.8515,-1.866,-1.8621,-1.8409,-1.8114,-1.766,-1.6873,-1.6381,-1.5969,-1.4542,-1.2013,-0.8361,-0.5218,-0.2654,-0.0782,-0.089,-0.1573,-0.2251,-0.2247,-0.3007,-0.4797,-0.6719,-0.8686,-1.0296,-1.15,-1.2327,-1.298,-1.3034,-1.3152,-1.3237,-1.3188,-1.3187,-1.3158,-1.2947,-1.276,-1.2556,-1.1913,-1.1288,-1.1086,-1.1147,-1.1774,-1.2706,-1.2955,-1.3084,-1.3102,-1.2448,-1.1678,-1.1363,-1.1353,-1.1528,-1.1808,-1.1816,-1.2208,-1.2492,-1.224,-1.1909,-1.2149,-1.1166,-1.0454,-0.979,-0.9157,-0.8512,-0.7933,-0.7507,-0.7258,-0.7174,-0.7268,-0.7358,-0.7435,-0.7493,-0.7525,-0.7525,-0.7525,-0.7525,-0.7525,-0.7525,-0.7525,-0.7291,-0.6744,-0.6353,-0.6118,-0.5492,-0.5022,-0.5022,-0.4944,-0.4552,-0.416,-0.3925,-0.3532,-0.2749,-0.2121,-0.1492,-0.1021,-0.0471,0.0079,0.0393,0.0393,0.0393,0.0785,0.1021,0.1106,0.1347,0.1596,0.1611,0.147,0.1239,0.1,0.0754,0.0504,0.0337,-2.0308,-1.8982,-1.8318,-1.8096,-1.8243,-1.852,-1.8735,-1.871,-1.8418,-1.8367,-1.7978,-1.7316,-1.6769,-1.6266,-1.5557,-1.3139,-0.9879,-0.6532,-0.4425,-0.3936,-0.4235,-0.4657,-0.5027,-0.5732,-0.5971,-0.6098,-0.7523,-0.9182,-1.0562,-1.1719,-1.2817,-1.3846,-1.391,-1.3844,-1.4125,-1.4198,-1.4089,-1.3943,-1.3739,-1.3586,-1.3203,-1.261,-1.1788,-1.1117,-1.1475,-1.2107,-1.2988,-1.3504,-1.3923,-1.4002,-1.3597,-1.3084,-1.2693,-1.2249,-1.2274,-1.2734,-1.2644,-1.2762,-1.3014,-1.2627,-1.2311,-1.2466,-1.146,-1.0809,-1.0311,-0.9446,-0.8657,-0.8015,-0.7601,-0.717,-0.726,-0.7333,-0.7419,-0.7493,-0.7521,-0.7525,-0.7525,-0.7525,-0.7525,-0.7525,-0.7525,-0.7447,-0.7213,-0.6744,-0.6431,-0.6118,-0.5414,-0.5022,-0.5022,-0.4865,-0.4552,-0.416,-0.3925,-0.3062,-0.2278,-0.1492,-0.0942,-0.0314,0.0236,0.0707,0.1256,0.1335,0.1256,0.1178,0.1337,0.1344,0.1273,0.1203,0.1217,0.1071,0.0748,0.0251,0.0084,0.0084,-0.0084,-1.9956,-1.8227,-1.8265,-1.8629,-1.9081,-1.9415,-1.9653,-1.9831,-1.9531,-1.92,-1.8679,-1.7913,-1.7238,-1.6665,-1.6113,-1.4725,-1.2577,-1.0335,-0.9555,-0.9317,-0.9489,-0.9578,-0.9489,-0.9671,-0.9854,-0.9363,-0.9446,-1.0029,-1.0891,-1.2264,-1.3301,-1.3769,-1.4017,-1.4255,-1.4394,-1.4491,-1.466,-1.4781,-1.4682,-1.4583,-1.4291,-1.3039,-1.1812,-1.1027,-1.1695,-1.2722,-1.3706,-1.4272,-1.4808,-1.5553,-1.5044,-1.4745,-1.4385,-1.3707,-1.3526,-1.3544,-1.346,-1.3436,-1.3551,-1.2989,-1.2677,-1.2386,-1.1521,-1.0743,-1.0383,-0.974,-0.8879,-0.8188,-0.759,-0.7249,-0.7346,-0.7544,-0.7431,-0.7497,-0.7525,-0.7525,-0.7525,-0.7525,-0.7525,-0.7525,-0.7447,-0.7447,-0.7135,-0.6744,-0.6353,-0.5962,-0.5414,-0.51,-0.5022,-0.4865,-0.463,-0.4238,-0.3846,-0.2826,-0.1728,-0.0864,-0.0157,0.0393,0.0942,0.1413,0.1886,0.2121,0.22,0.1963,0.1574,0.1344,0.1195,0.0966,0.0653,0.0414,0.0,-0.042,-0.0504,-0.0505,-0.0589,-2.0087,-1.8536,-1.8952,-1.9306,-1.961,-1.9841,-2.0091,-2.0168,-1.995,-1.9645,-1.9229,-1.864,-1.7926,-1.7316,-1.6818,-1.5743,-1.4396,-1.3569,-1.2841,-1.2486,-1.2269,-1.2154,-1.2221,-1.2331,-1.1916,-1.1458,-1.1426,-1.1304,-1.1299,-1.2714,-1.3751,-1.4297,-1.4537,-1.4611,-1.4785,-1.5028,-1.5238,-1.542,-1.5481,-1.5472,-1.5343,-1.3435,-1.1985,-1.1924,-1.2286,-1.3426,-1.4679,-1.5343,-1.5698,-1.5904,-1.5674,-1.5443,-1.519,-1.491,-1.4503,-1.4426,-1.4135,-1.3857,-1.3839,-1.3322,-1.3068,-1.2723,-1.1821,-1.1103,-1.0455,-0.974,-0.9044,-0.846,-0.8104,-0.7845,-0.8063,-0.8044,-0.7946,-0.7587,-0.7525,-0.7525,-0.7525,-0.7525,-0.7525,-0.7525,-0.7525,-0.7447,-0.7291,-0.6822,-0.6353,-0.5883,-0.5414,-0.5179,-0.5022,-0.4865,-0.463,-0.3846,-0.3297,-0.2277,-0.1256,-0.0393,0.0471,0.1021,0.1649,0.2121,0.2435,0.2669,0.2748,0.2591,0.2127,0.1503,0.0962,0.0649,0.0164,-0.0332,-0.0669,-0.1009,-0.1009,-0.1094,-0.1262,-2.0306,-1.8933,-1.9538,-1.984,-1.9895,-2.0128,-2.0212,-2.027,-2.012,-1.9897,-1.9757,-1.9313,-1.8723,-1.802,-1.7462,-1.6613,-1.5182,-1.492,-1.4278,-1.3699,-1.3547,-1.3288,-1.314,-1.3122,-1.3272,-1.3102,-1.3588,-1.3347,-1.2633,-1.3487,-1.4423,-1.4911,-1.5086,-1.515,-1.5262,-1.5554,-1.5756,-1.5959,-1.6116,-1.6179,-1.5157,-1.3712,-1.2423,-1.2706,-1.3237,-1.4321,-1.5391,-1.6124,-1.6417,-1.6373,-1.6165,-1.595,-1.5742,-1.5633,-1.5473,-1.5157,-1.4663,-1.4314,-1.4036,-1.3735,-1.3342,-1.2809,-1.2323,-1.1534,-1.069,-0.9853,-0.9254,-0.8918,-0.8805,-0.8839,-0.888,-0.8959,-0.8686,-0.8306,-0.7994,-0.7759,-0.7759,-0.7681,-0.7525,-0.7525,-0.7525,-0.7369,-0.7213,-0.6744,-0.6275,-0.5805,-0.5335,-0.51,-0.4944,-0.4787,-0.4395,-0.3454,-0.2591,-0.1649,-0.0707,0.0,0.0785,0.1492,0.2042,0.2591,0.2905,0.3219,0.314,0.2906,0.237,0.1749,0.1047,0.0245,-0.0329,-0.0831,-0.1257,-0.1515,-0.1514,-0.1766,-0.2018,-2.0285,-1.8968,-1.9562,-1.995,-2.0143,-2.0227,-2.0358,-2.0591,-2.0606,-2.0265,-1.9926,-1.9986,-1.9552,-1.8805,-1.8211,-1.7702,-1.7186,-1.6552,-1.6086,-1.5708,-1.579,-1.5709,-1.5775,-1.6077,-1.53,-1.4831,-1.5255,-1.4854,-1.4298,-1.4839,-1.5332,-1.5648,-1.5773,-1.5796,-1.5941,-1.6136,-1.6228,-1.6444,-1.6612,-1.5881,-1.4416,-1.3868,-1.3047,-1.3,-1.4033,-1.5461,-1.6005,-1.6737,-1.7126,-1.7169,-1.6886,-1.6772,-1.6792,-1.6273,-1.614,-1.5869,-1.5404,-1.4782,-1.4545,-1.4156,-1.3555,-1.2888,-1.2252,-1.139,-1.057,-0.9989,-0.9719,-1.053,-1.0044,-0.9774,-0.9789,-0.9848,-0.9786,-0.9397,-0.8929,-0.87,-0.8544,-0.8072,-0.7838,-0.7525,-0.7525,-0.7291,-0.7135,-0.6587,-0.6118,-0.5727,-0.5335,-0.51,-0.4865,-0.463,-0.4081,-0.3142,-0.2199,-0.1256,-0.0314,0.0393,0.1099,0.1886,0.2434,0.2905,0.3062,0.3219,0.3219,0.2911,0.2294,0.1597,0.0647,-0.0163,-0.0742,-0.1331,-0.193,-0.2018,-0.1934,-0.2355,-0.2775,-2.0527,-1.9962,-2.044,-2.0667,-2.0794,-2.0779,-2.0852,-2.0969,-2.0998,-2.0854,-2.061,-2.0538,-2.0111,-1.9424,-1.8973,-1.8755,-1.8536,-1.8022,-1.7697,-1.7425,-1.7347,-1.7189,-1.6981,-1.6968,-1.657,-1.652,-1.6561,-1.6771,-1.6276,-1.5976,-1.6031,-1.6459,-1.647,-1.648,-1.6678,-1.6772,-1.6901,-1.692,-1.6668,-1.6118,-1.5248,-1.456,-1.4166,-1.4147,-1.5921,-1.6699,-1.7197,-1.7991,-1.8089,-1.7889,-1.7391,-1.7218,-1.7103,-1.6796,-1.6532,-1.6422,-1.6099,-1.5487,-1.4823,-1.4585,-1.388,-1.3039,-1.2402,-1.1856,-1.085,-1.0193,-1.0168,-1.0881,-1.0714,-1.0662,-1.0684,-1.0713,-1.0408,-1.0097,-0.9786,-0.9246,-0.8934,-0.8622,-0.8232,-0.7838,-0.7525,-0.7369,-0.7056,-0.6587,-0.6275,-0.5962,-0.5492,-0.5022,-0.4709,-0.4395,-0.3689,-0.2749,-0.1886,-0.0942,0.0,0.0785,0.1335,0.2043,0.2512,0.2983,0.2983,0.3062,0.2987,0.2366,0.1507,0.0801,0.0,-0.0656,-0.1324,-0.2002,-0.2607,-0.2691,-0.2775,-0.2777,-0.2691,-2.0716,-2.0845,-2.1089,-2.1203,-2.1203,-2.1203,-2.1203,-2.1203,-2.1203,-2.1203,-2.1145,-2.0955,-2.0509,-2.0111,-1.982,-1.9667,-1.9569,-1.9153,-1.8903,-1.8611,-1.8302,-1.7978,-1.781,-1.7572,-1.7585,-1.761,-1.772,-1.7966,-1.7995,-1.7673,-1.7385,-1.743,-1.7348,-1.7274,-1.7358,-1.7478,-1.7635,-1.7704,-1.6848,-1.6417,-1.6179,-1.542,-1.5721,-1.6531,-1.7613,-1.8423,-1.88,-1.9109,-1.9034,-1.8313,-1.7739,-1.7479,-1.7254,-1.6989,-1.6834,-1.6736,-1.6471,-1.5946,-1.5341,-1.4903,-1.4244,-1.3325,-1.2553,-1.1877,-1.1218,-1.0688,-1.0717,-1.1409,-1.1485,-1.1555,-1.1541,-1.1572,-1.1417,-1.0952,-1.0486,-0.9864,-0.9246,-0.8934,-0.8388,-0.7759,-0.7525,-0.7525,-0.7213,-0.6666,-0.6353,-0.6196,-0.5727,-0.5022,-0.4552,-0.4081,-0.3219,-0.2278,-0.1728,-0.0864,0.0157,0.1021,0.157,0.2043,0.2512,0.2748,0.2591,0.2672,0.2598,0.1819,0.0796,-0.0081,-0.09,-0.1402,-0.191,-0.2594,-0.3197,-0.3617,-0.3701,-0.3533,-0.2608,-2.0902,-2.1146,-2.1218,-2.1233,-2.1233,-2.1203,-2.1218,-2.1291,-2.1262,-2.1276,-2.1306,-2.1189,-2.1042,-2.0754,-2.0715,-2.0587,-2.0328,-2.0259,-2.0103,-1.972,-1.9277,-1.9004,-1.8735,-1.8583,-1.8499,-1.8677,-1.8724,-1.9003,-1.9345,-1.9098,-1.884,-1.8717,-1.8263,-1.8202,-1.8189,-1.8249,-1.8392,-1.8238,-1.7312,-1.6836,-1.6888,-1.6718,-1.7088,-1.813,-1.9082,-1.9867,-2.0455,-2.0126,-1.9425,-1.8629,-1.796,-1.7637,-1.7453,-1.7205,-1.7072,-1.7031,-1.6766,-1.632,-1.5882,-1.5221,-1.4395,-1.3325,-1.2496,-1.1918,-1.171,-1.1541,-1.1753,-1.2132,-1.2316,-1.23,-1.2417,-1.2424,-1.2192,-1.1882,-1.1262,-1.0563,-0.9864,-0.9246,-0.8622,-0.7838,-0.7525,-0.7525,-0.7291,-0.6744,-0.6427,-0.6193,-0.5414,-0.4709,-0.416,-0.3611,-0.2669,-0.1885,-0.157,-0.0785,0.0236,0.0864,0.1099,0.1413,0.1806,0.1963,0.1963,0.1967,0.166,0.1035,0.0,-0.0895,-0.1811,-0.2567,-0.3085,-0.3439,-0.3787,-0.4206,-0.387,-0.3281,-0.2271,-2.1421,-2.2133,-2.2133,-2.1902,-2.1511,-2.1511,-2.1628,-2.1789,-2.1803,-2.1803,-2.1789,-2.1803,-2.1745,-2.1672,-2.1701,-2.2082,-2.2412,-2.1525,-2.1598,-2.1525,-2.1144,-2.0341,-1.9951,-1.9663,-1.9561,-1.9483,-1.9434,-1.9456,-1.9675,-1.9897,-1.9822,-1.9485,-1.9187,-1.9025,-1.9036,-1.903,-1.9185,-1.893,-1.8117,-1.7455,-1.8337,-1.8279,-1.8659,-1.9779,-2.118,-2.1329,-2.1134,-2.0719,-1.995,-1.9025,-1.8197,-1.7893,-1.7674,-1.7453,-1.741,-1.737,-1.7036,-1.6707,-1.615,-1.5408,-1.4403,-1.3213,-1.2489,-1.2168,-1.2388,-1.255,-1.2788,-1.3075,-1.3154,-1.3042,-1.2888,-1.2811,-1.2733,-1.2501,-1.2037,-1.1262,-1.0408,-0.9636,-0.87,-0.7838,-0.7603,-0.7525,-0.7213,-0.6822,-0.6506,-0.6193,-0.5257,-0.4395,-0.3925,-0.3297,-0.2434,-0.1806,-0.1492,-0.0864,0.0157,0.0393,0.0471,0.0785,0.1099,0.1021,0.0865,0.0396,0.008,-0.0402,-0.0972,-0.2049,-0.3061,-0.3828,-0.4266,-0.4369,-0.4542,-0.4794,-0.4206,-0.3279,-0.2018,-2.2356,-2.3326,-2.3383,-2.2999,-2.2464,-2.2421,-2.2541,-2.2677,-2.2572,-2.2348,-2.2184,-2.2257,-2.2542,-2.2692,-2.2931,-2.3647,-2.4091,-2.359,-2.3395,-2.2931,-2.2258,-2.1438,-2.103,-2.0722,-2.0465,-2.0307,-2.0348,-2.0414,-2.0663,-2.0565,-2.0684,-2.0674,-2.0321,-2.0093,-1.9631,-1.9654,-1.9766,-1.9507,-1.8967,-1.841,-1.9345,-1.9285,-1.9713,-2.0748,-2.1826,-2.1831,-2.1257,-2.0759,-1.9975,-1.8979,-1.8208,-1.7947,-1.7851,-1.7825,-1.7691,-1.7537,-1.7296,-1.7017,-1.632,-1.5328,-1.4403,-1.3412,-1.3054,-1.2846,-1.294,-1.3251,-1.3384,-1.3546,-1.366,-1.359,-1.3274,-1.312,-1.3042,-1.2733,-1.2501,-1.1805,-1.0641,-0.9708,-0.8774,-0.7759,-0.7681,-0.7525,-0.7213,-0.6822,-0.62,-0.5727,-0.4865,-0.416,-0.3846,-0.3219,-0.2512,-0.1963,-0.157,-0.0785,0.0,-0.0079,-0.0079,0.0,0.0157,-0.0157,-0.0394,-0.0875,-0.1364,-0.1776,-0.2446,-0.3383,-0.4159,-0.4851,-0.5117,-0.5127,-0.5298,-0.5382,-0.4542,-0.3616,-0.2018,-2.378,-2.4878,-2.5043,-2.4705,-2.4349,-2.4098,-2.407,-2.4047,-2.3541,-2.3021,-2.2722,-2.2855,-2.3429,-2.4051,-2.4452,-2.5294,-2.5897,-2.5287,-2.4862,-2.4519,-2.3202,-2.2236,-2.1881,-2.1689,-2.1747,-2.168,-2.1907,-2.21,-2.2117,-2.2586,-2.2532,-2.2116,-2.1811,-2.1176,-2.012,-1.9947,-1.9948,-1.9857,-1.9586,-1.9513,-1.9536,-1.973,-2.063,-2.1281,-2.1645,-2.1555,-2.133,-2.048,-1.9509,-1.8404,-1.8091,-1.7951,-1.7836,-1.7974,-1.785,-1.7648,-1.7407,-1.7147,-1.6664,-1.5328,-1.4554,-1.4033,-1.3769,-1.3707,-1.3483,-1.3567,-1.3946,-1.4345,-1.4045,-1.3898,-1.3583,-1.3351,-1.3197,-1.2965,-1.2656,-1.2114,-1.0952,-0.9942,-0.9007,-0.815,-0.7759,-0.7447,-0.7217,-0.6747,-0.5968,-0.526,-0.4395,-0.3925,-0.3846,-0.3532,-0.2905,-0.2356,-0.1885,-0.1492,-0.0942,-0.0785,-0.0707,-0.0707,-0.0943,-0.1258,-0.1659,-0.2074,-0.2574,-0.3163,-0.3775,-0.4572,-0.5185,-0.5798,-0.6053,-0.6305,-0.5969,-0.5717,-0.4878,-0.3785,-0.2355,-2.5835,-2.6828,-2.7518,-2.8152,-2.829,-2.6906,-2.6075,-2.5714,-2.543,-2.5129,-2.4996,-2.5456,-2.5803,-2.6114,-2.6234,-2.6859,-2.7551,-2.5841,-2.5294,-2.6472,-2.4499,-2.384,-2.3475,-2.3384,-2.3384,-2.349,-2.3778,-2.413,-2.4194,-2.4813,-2.4561,-2.4034,-2.3243,-2.2071,-2.1309,-2.0989,-2.1084,-2.0761,-2.0484,-2.0197,-1.9959,-2.0731,-2.1485,-2.1824,-2.1624,-2.1387,-2.1227,-2.0066,-1.8841,-1.8073,-1.7928,-1.7992,-1.7916,-1.8099,-1.8095,-1.7983,-1.7861,-1.751,-1.7087,-1.633,-1.5675,-1.5156,-1.4731,-1.4843,-1.5259,-1.5606,-1.5582,-1.525,-1.4968,-1.4745,-1.4284,-1.3821,-1.3505,-1.3042,-1.2656,-1.2037,-1.1184,-1.033,-0.9475,-0.8618,-0.8072,-0.7326,-0.6866,-0.668,-0.6046,-0.5507,-0.4797,-0.4397,-0.4238,-0.4084,-0.3691,-0.2983,-0.2511,-0.2197,-0.1884,-0.1728,-0.1728,-0.1805,-0.2202,-0.2601,-0.3016,-0.3443,-0.4131,-0.4829,-0.5217,-0.5691,-0.6376,-0.7059,-0.7394,-0.7478,-0.6808,-0.6053,-0.5211,-0.4036,-0.2691,-2.7678,-2.8896,-2.9766,-3.0917,-3.1586,-2.9795,-2.845,-2.7751,-2.7591,-2.7297,-2.7149,-2.7739,-2.819,-2.8179,-2.8324,-2.8696,-2.9431,-2.7709,-2.6459,-2.7727,-2.5806,-2.4928,-2.4801,-2.5161,-2.5057,-2.5282,-2.594,-2.6486,-2.6416,-2.7327,-2.7265,-2.644,-2.5069,-2.4401,-2.3473,-2.2806,-2.1923,-2.1571,-2.1326,-2.0822,-2.0818,-2.1277,-2.1923,-2.1789,-2.1475,-2.1019,-2.0451,-1.9471,-1.8128,-1.7901,-1.7952,-1.8118,-1.8063,-1.8159,-1.8224,-1.818,-1.7872,-1.759,-1.7238,-1.7207,-1.6816,-1.6865,-1.6131,-1.6064,-1.6637,-1.6736,-1.6599,-1.6339,-1.6118,-1.5505,-1.4899,-1.4353,-1.3821,-1.3436,-1.2888,-1.2269,-1.1417,-1.0641,-0.9864,-0.9007,-0.8237,-0.7417,-0.6655,-0.6391,-0.605,-0.5745,-0.5361,-0.5111,-0.4865,-0.4633,-0.4554,-0.3925,-0.3217,-0.2903,-0.2746,-0.2825,-0.2825,-0.2903,-0.3465,-0.4036,-0.4633,-0.508,-0.5794,-0.6437,-0.6822,-0.7285,-0.7801,-0.8315,-0.8232,-0.7817,-0.7143,-0.6389,-0.5547,-0.4288,-0.2943,-2.9345,-3.0943,-3.1625,-3.2886,-3.397,-3.2427,-3.107,-2.9924,-2.9766,-2.9331,-2.8803,-2.9408,-2.9886,-3.0392,-3.0493,-3.0699,-3.0723,-2.963,-2.892,-2.8086,-2.6944,-2.6183,-2.6062,-2.6392,-2.6781,-2.7177,-2.7895,-2.8823,-2.8771,-2.9404,-2.9641,-2.9237,-2.7815,-2.7035,-2.5982,-2.4876,-2.3445,-2.2852,-2.2108,-2.1687,-2.16,-2.167,-2.2138,-2.1992,-2.154,-2.0655,-2.0019,-1.9049,-1.7959,-1.7506,-1.759,-1.7903,-1.8068,-1.8212,-1.8142,-1.8012,-1.7731,-1.7783,-1.7743,-1.7887,-1.832,-1.8508,-1.7829,-1.7369,-1.7404,-1.7842,-1.7607,-1.7255,-1.6797,-1.6195,-1.5582,-1.4968,-1.4284,-1.3821,-1.3274,-1.2501,-1.165,-1.0796,-1.0097,-0.9319,-0.8622,-0.7867,-0.7099,-0.6609,-0.6755,-0.662,-0.6466,-0.6441,-0.6115,-0.5414,-0.5257,-0.51,-0.4314,-0.3609,-0.3609,-0.416,-0.4331,-0.465,-0.5076,-0.5581,-0.6197,-0.6827,-0.739,-0.7958,-0.8427,-0.8716,-0.8813,-0.8738,-0.8654,-0.8152,-0.7482,-0.6472,-0.5631,-0.4623,-0.3279,-3.1316,-3.2534,-3.3453,-3.4338,-3.498,-3.4558,-3.3529,-3.2264,-3.1974,-3.1663,-3.1307,-3.2075,-3.2076,-3.1979,-3.188,-3.1799,-3.121,-3.0529,-3.0119,-2.9335,-2.8504,-2.8385,-2.8444,-2.8623,-2.8861,-2.9365,-3.0103,-3.0981,-3.118,-3.1552,-3.1612,-3.1286,-3.0153,-2.9546,-2.8668,-2.7831,-2.583,-2.4219,-2.3283,-2.2875,-2.2617,-2.2726,-2.2971,-2.2984,-2.2327,-2.1452,-2.0531,-1.9878,-1.8801,-1.7683,-1.8149,-1.8453,-1.8272,-1.8363,-1.8363,-1.8735,-1.8915,-1.9189,-1.9222,-1.941,-1.9704,-2.0039,-1.9665,-1.9892,-1.9757,-1.9338,-1.885,-1.8243,-1.7635,-1.7026,-1.6348,-1.5659,-1.4899,-1.4207,-1.366,-1.3042,-1.2114,-1.134,-1.0563,-0.9942,-0.9246,-0.8563,-0.7715,-0.7542,-0.769,-0.7649,-0.7653,-0.7616,-0.7365,-0.674,-0.6275,-0.6037,-0.5645,-0.5019,-0.557,-0.6125,-0.6233,-0.6343,-0.6709,-0.7248,-0.8054,-0.8625,-0.9104,-0.9404,-0.9706,-0.9559,-0.9318,-0.924,-0.9156,-0.8487,-0.7817,-0.6724,-0.5714,-0.4623,-0.3447,-3.2144,-3.3178,-3.4235,-3.5075,-3.5695,-3.5763,-3.519,-3.4367,-3.3983,-3.3559,-3.3293,-3.3785,-3.3706,-3.2904,-3.2763,-3.2502,-3.1923,-3.1363,-3.0878,-3.0353,-3.0041,-2.9707,-2.9884,-3.0314,-3.0469,-3.1133,-3.1999,-3.2894,-3.3194,-3.3446,-3.3548,-3.3398,-3.2339,-3.1251,-3.0357,-2.9237,-2.7771,-2.624,-2.523,-2.4753,-2.4507,-2.4372,-2.4636,-2.4749,-2.3977,-2.2716,-2.1764,-2.109,-1.9726,-1.8218,-1.8568,-1.8875,-1.8795,-1.8938,-1.9222,-1.9551,-1.9761,-1.9923,-1.9968,-2.0379,-2.072,-2.0943,-2.1207,-2.1335,-2.1043,-2.0511,-1.9919,-1.9239,-1.8547,-1.7864,-1.7111,-1.6348,-1.5505,-1.4584,-1.4122,-1.3583,-1.2733,-1.196,-1.1262,-1.0641,-0.9952,-0.9349,-0.8959,-0.8783,-0.8618,-0.8641,-0.8724,-0.8939,-0.8691,-0.8223,-0.7677,-0.7287,-0.6896,-0.6506,-0.7224,-0.7727,-0.7694,-0.7836,-0.8241,-0.8883,-0.9799,-1.0272,-1.049,-1.0693,-1.0976,-1.0654,-1.0237,-0.9824,-0.9574,-0.8905,-0.7985,-0.6724,-0.5547,-0.4456,-0.3195,-3.2271,-3.336,-3.4456,-3.5466,-3.6208,-3.6277,-3.62,-3.6214,-3.549,-3.494,-3.459,-3.4901,-3.4508,-3.378,-3.3659,-3.324,-3.2777,-3.2367,-3.1848,-3.1034,-3.1073,-3.0898,-3.084,-3.1112,-3.1912,-3.2628,-3.345,-3.4521,-3.4918,-3.5005,-3.5046,-3.5294,-3.3566,-3.2427,-3.1727,-3.0549,-2.9355,-2.8579,-2.7826,-2.7354,-2.6876,-2.6703,-2.6672,-2.7053,-2.5769,-2.4163,-2.3203,-2.1971,-2.058,-1.9252,-1.8801,-1.93,-1.9598,-1.9937,-2.031,-2.0561,-2.0789,-2.0824,-2.0967,-2.1301,-2.1481,-2.1686,-2.1965,-2.2112,-2.1798,-2.1285,-2.0597,-2.0372,-1.9757,-1.9002,-1.8243,-1.7559,-1.673,-1.5735,-1.4891,-1.4315,-1.3508,-1.2837,-1.2422,-1.1867,-1.1632,-1.101,-1.0409,-1.0308,-1.0202,-0.9885,-0.9901,-1.0208,-1.0219,-0.9828,-0.9443,-0.8812,-0.8498,-0.8286,-0.84,-0.8832,-0.895,-0.9186,-0.9698,-1.0438,-1.1259,-1.1576,-1.1807,-1.1986,-1.2069,-1.1653,-1.1237,-1.057,-0.982,-0.9151,-0.8064,-0.664,-0.5382,-0.4288,-0.2859,-3.3049,-3.4486,-3.5504,-3.6071,-3.6309,-3.6254,-3.6254,-3.6277,-3.615,-3.5893,-3.5688,-3.5627,-3.5302,-3.4619,-3.464,-3.4282,-3.3853,-3.3512,-3.3147,-3.2744,-3.2472,-3.2313,-3.2255,-3.3,-3.3592,-3.427,-3.5115,-3.5922,-3.5943,-3.6032,-3.587,-3.5356,-3.4132,-3.3375,-3.2786,-3.1575,-3.0908,-3.0213,-3.0186,-2.9341,-2.844,-2.8092,-2.7925,-2.7977,-2.6983,-2.5598,-2.4499,-2.3304,-2.1617,-2.0177,-2.0173,-2.0343,-2.0523,-2.0957,-2.139,-2.1703,-2.2103,-2.2165,-2.2178,-2.2264,-2.23,-2.2287,-2.2434,-2.2533,-2.2334,-2.1735,-2.1349,-2.1274,-2.0898,-2.0135,-1.9466,-1.8785,-1.8045,-1.6892,-1.5846,-1.5082,-1.4384,-1.399,-1.3598,-1.344,-1.3282,-1.2838,-1.2213,-1.1854,-1.1654,-1.1588,-1.156,-1.1663,-1.1937,-1.1871,-1.1476,-1.0996,-1.0403,-1.0188,-1.0152,-1.0211,-1.0415,-1.0803,-1.1329,-1.2074,-1.2738,-1.3108,-1.3307,-1.3065,-1.2989,-1.2567,-1.1819,-1.0737,-0.9986,-0.9318,-0.8064,-0.6556,-0.5295,-0.412,-0.2607,-3.3421,-3.4585,-3.581,-3.6254,-3.6254,-3.6254,-3.6386,-3.6495,-3.6495,-3.6633,-3.6723,-3.6084,-3.543,-3.5028,-3.5102,-3.522,-3.4798,-3.4755,-3.4461,-3.4231,-3.4101,-3.4089,-3.4325,-3.469,-3.5091,-3.5721,-3.6345,-3.6893,-3.6807,-3.6484,-3.6076,-3.5562,-3.4782,-3.363,-3.3012,-3.2362,-3.1685,-3.1046,-3.1508,-3.1155,-2.9996,-2.9889,-3.0023,-2.9856,-2.8875,-2.7384,-2.5875,-2.462,-2.2876,-2.1735,-2.1582,-2.1907,-2.2227,-2.2654,-2.298,-2.3237,-2.3486,-2.365,-2.3481,-2.3263,-2.3154,-2.293,-2.2558,-2.2558,-2.2707,-2.2184,-2.2109,-2.1948,-2.1798,-2.1124,-2.0793,-2.0287,-1.9614,-1.8575,-1.7613,-1.6877,-1.6058,-1.539,-1.5106,-1.4948,-1.4868,-1.4773,-1.4159,-1.3692,-1.349,-1.3096,-1.3058,-1.282,-1.3179,-1.3641,-1.3328,-1.3162,-1.2562,-1.2052,-1.1752,-1.1832,-1.2081,-1.2495,-1.2975,-1.3535,-1.4099,-1.4533,-1.4803,-1.4405,-1.3915,-1.3314,-1.2395,-1.1326,-1.0237,-0.9486,-0.8064,-0.6476,-0.5214,-0.3952,-0.2354,-3.3735,-3.4479,-3.5748,-3.6254,-3.6332,-3.6332,-3.6495,-3.6688,-3.6904,-3.7281,-3.7542,-3.6409,-3.5488,-3.5291,-3.5364,-3.5505,-3.5624,-3.5777,-3.5698,-3.5591,-3.5678,-3.5309,-3.5388,-3.5917,-3.6509,-3.7023,-3.7569,-3.7604,-3.7495,-3.7071,-3.6606,-3.5933,-3.4372,-3.2717,-3.2181,-3.1501,-3.0857,-3.1028,-3.151,-3.229,-3.2251,-3.2193,-3.2164,-3.1809,-3.0916,-2.9184,-2.7554,-2.5981,-2.4341,-2.3367,-2.2992,-2.3301,-2.3619,-2.4022,-2.4356,-2.4576,-2.4649,-2.4556,-2.4301,-2.4005,-2.3661,-2.329,-2.2781,-2.2707,-2.293,-2.293,-2.2856,-2.2769,-2.2545,-2.2271,-2.1956,-2.1987,-2.1323,-2.0242,-1.9315,-1.8533,-1.7682,-1.6995,-1.6925,-1.6757,-1.6765,-1.6765,-1.6174,-1.5696,-1.505,-1.4651,-1.4338,-1.4178,-1.4201,-1.4685,-1.49,-1.49,-1.4796,-1.4187,-1.3601,-1.3563,-1.3846,-1.4052,-1.4452,-1.4923,-1.5373,-1.5793,-1.5891,-1.5601,-1.5014,-1.4253,-1.3251,-1.2093,-1.1004,-0.9741,-0.8148,-0.664,-0.5295,-0.395,-0.2186,-3.4622,-3.5894,-3.6208,-3.6254,-3.6332,-3.6526,-3.6634,-3.6904,-3.782,-3.7974,-3.7542,-3.7838,-3.7637,-3.7535,-3.7346,-3.7212,-3.6943,-3.6987,-3.667,-3.6509,-3.6581,-3.6244,-3.6302,-3.7238,-3.7965,-3.8422,-3.8625,-3.8551,-3.8036,-3.7796,-3.6928,-3.5356,-3.411,-3.2713,-3.1654,-3.1088,-3.0892,-3.115,-3.1947,-3.2769,-3.3035,-3.3066,-3.3305,-3.2867,-3.2259,-3.0565,-2.9033,-2.7885,-2.6164,-2.4838,-2.435,-2.4723,-2.5065,-2.5373,-2.5653,-2.5988,-2.5974,-2.5786,-2.5492,-2.5125,-2.483,-2.4475,-2.4105,-2.3735,-2.3883,-2.3748,-2.3748,-2.3896,-2.36,-2.3154,-2.3005,-2.3881,-2.3631,-2.1851,-2.0632,-2.0016,-1.9314,-1.9424,-1.9504,-1.9423,-1.9423,-1.8872,-1.7956,-1.7217,-1.614,-1.5747,-1.5288,-1.5135,-1.5408,-1.5829,-1.64,-1.6563,-1.6709,-1.627,-1.5681,-1.5462,-1.5615,-1.5729,-1.6016,-1.6567,-1.6831,-1.6953,-1.6987,-1.6867,-1.6095,-1.5308,-1.4213,-1.2888,-1.1426,-1.008,-0.8483,-0.6975,-0.5547,-0.395,-0.2186]}]]